<?xml version="1.0" encoding="UTF-8" standalone="no" ?>
<gpx xmlns="http://www.topografix.com/GPX/1/1" xmlns:xsi="http://www.w3.org/2001/XMLSchema-instance" xsi:schemaLocation="http://www.topografix.com/GPX/1/1 http://www.topografix.com/GPX/1/1/gpx.xsd" version="1.1" creator="VisuGPX - https://www.visugpx.com">
  <metadata>
    <name>2016-06-18 Exploration à la Rousse</name>
    <desc><![CDATA[Belles rencontres avec un bouquetin, un blaireau et ... une sépulture cachée]]></desc>
  </metadata>
  <trk>
    <name><![CDATA[2016-06-18 La Rousse]]></name>
    <trkseg>
      <trkpt lat="45.41248" lon="5.88647">
        <ele>1055</ele>
        <time>2016-06-18T08:08:06Z</time>
      </trkpt>
      <trkpt lat="45.41251" lon="5.88658">
        <ele>1055</ele>
        <time>2016-06-18T08:08:11Z</time>
      </trkpt>
      <trkpt lat="45.41243" lon="5.88676">
        <ele>1032.739352506</ele>
        <time>2016-06-18T08:08:21Z</time>
      </trkpt>
      <trkpt lat="45.41237" lon="5.88681">
        <ele>1032.739352506</ele>
        <time>2016-06-18T08:08:26Z</time>
      </trkpt>
      <trkpt lat="45.41229" lon="5.88693">
        <ele>1039.259130638</ele>
        <time>2016-06-18T08:08:36Z</time>
      </trkpt>
      <trkpt lat="45.41228" lon="5.88696">
        <ele>1039.259130638</ele>
        <time>2016-06-18T08:08:41Z</time>
      </trkpt>
      <trkpt lat="45.41217" lon="5.88707">
        <ele>1045.673304872</ele>
        <time>2016-06-18T08:08:51Z</time>
      </trkpt>
      <trkpt lat="45.41213" lon="5.88709">
        <ele>1045.673304872</ele>
        <time>2016-06-18T08:08:56Z</time>
      </trkpt>
      <trkpt lat="45.41209" lon="5.88712">
        <ele>1045.673304872</ele>
        <time>2016-06-18T08:09:06Z</time>
      </trkpt>
      <trkpt lat="45.41201" lon="5.88721">
        <ele>1050.949164022</ele>
        <time>2016-06-18T08:09:11Z</time>
      </trkpt>
      <trkpt lat="45.41192" lon="5.88738">
        <ele>1056.39540712</ele>
        <time>2016-06-18T08:09:21Z</time>
      </trkpt>
      <trkpt lat="45.41189" lon="5.88741">
        <ele>1056.39540712</ele>
        <time>2016-06-18T08:09:26Z</time>
      </trkpt>
      <trkpt lat="45.41184" lon="5.88758">
        <ele>1061.692625983</ele>
        <time>2016-06-18T08:09:36Z</time>
      </trkpt>
      <trkpt lat="45.41181" lon="5.88765">
        <ele>1061.692625983</ele>
        <time>2016-06-18T08:09:41Z</time>
      </trkpt>
      <trkpt lat="45.41175" lon="5.88781">
        <ele>1067.882899045</ele>
        <time>2016-06-18T08:09:51Z</time>
      </trkpt>
      <trkpt lat="45.41172" lon="5.88786">
        <ele>1067.882899045</ele>
        <time>2016-06-18T08:09:56Z</time>
      </trkpt>
      <trkpt lat="45.41164" lon="5.888">
        <ele>1074.406558039</ele>
        <time>2016-06-18T08:10:11Z</time>
      </trkpt>
      <trkpt lat="45.41161" lon="5.88803">
        <ele>1074.406558039</ele>
        <time>2016-06-18T08:10:16Z</time>
      </trkpt>
      <trkpt lat="45.41152" lon="5.88809">
        <ele>1080.592060514</ele>
        <time>2016-06-18T08:10:26Z</time>
      </trkpt>
      <trkpt lat="45.41148" lon="5.88811">
        <ele>1080.592060514</ele>
        <time>2016-06-18T08:10:31Z</time>
      </trkpt>
      <trkpt lat="45.41142" lon="5.88819">
        <ele>1087.746614728</ele>
        <time>2016-06-18T08:10:41Z</time>
      </trkpt>
      <trkpt lat="45.4114" lon="5.88829">
        <ele>1087.746614728</ele>
        <time>2016-06-18T08:10:46Z</time>
      </trkpt>
      <trkpt lat="45.41133" lon="5.88833">
        <ele>1093.758927296</ele>
        <time>2016-06-18T08:10:56Z</time>
      </trkpt>
      <trkpt lat="45.41133" lon="5.88835">
        <ele>1093.758927296</ele>
        <time>2016-06-18T08:11:01Z</time>
      </trkpt>
      <trkpt lat="45.41129" lon="5.88843">
        <ele>1093.758927296</ele>
        <time>2016-06-18T08:11:11Z</time>
      </trkpt>
      <trkpt lat="45.41122" lon="5.88847">
        <ele>1098.894950257</ele>
        <time>2016-06-18T08:11:16Z</time>
      </trkpt>
      <trkpt lat="45.41114" lon="5.88862">
        <ele>1102.750620642</ele>
        <time>2016-06-18T08:11:26Z</time>
      </trkpt>
      <trkpt lat="45.41113" lon="5.88865">
        <ele>1102.750620642</ele>
        <time>2016-06-18T08:11:31Z</time>
      </trkpt>
      <trkpt lat="45.41108" lon="5.88869">
        <ele>1102.750620642</ele>
        <time>2016-06-18T08:11:41Z</time>
      </trkpt>
      <trkpt lat="45.41103" lon="5.8887">
        <ele>1105.812165237</ele>
        <time>2016-06-18T08:11:46Z</time>
      </trkpt>
      <trkpt lat="45.411" lon="5.88882">
        <ele>1108.205110321</ele>
        <time>2016-06-18T08:11:56Z</time>
      </trkpt>
      <trkpt lat="45.41098" lon="5.8889">
        <ele>1108.205110321</ele>
        <time>2016-06-18T08:12:01Z</time>
      </trkpt>
      <trkpt lat="45.41092" lon="5.88893">
        <ele>1111.038693793</ele>
        <time>2016-06-18T08:12:11Z</time>
      </trkpt>
      <trkpt lat="45.41087" lon="5.88894">
        <ele>1111.038693793</ele>
        <time>2016-06-18T08:12:16Z</time>
      </trkpt>
      <trkpt lat="45.41081" lon="5.88903">
        <ele>1114.148366678</ele>
        <time>2016-06-18T08:12:26Z</time>
      </trkpt>
      <trkpt lat="45.41077" lon="5.88904">
        <ele>1114.148366678</ele>
        <time>2016-06-18T08:12:31Z</time>
      </trkpt>
      <trkpt lat="45.4107" lon="5.88914">
        <ele>1117.537568953</ele>
        <time>2016-06-18T08:12:46Z</time>
      </trkpt>
      <trkpt lat="45.41068" lon="5.88921">
        <ele>1117.537568953</ele>
        <time>2016-06-18T08:12:51Z</time>
      </trkpt>
      <trkpt lat="45.41062" lon="5.88926">
        <ele>1120.721713958</ele>
        <time>2016-06-18T08:13:01Z</time>
      </trkpt>
      <trkpt lat="45.41059" lon="5.88932">
        <ele>1120.721713958</ele>
        <time>2016-06-18T08:13:06Z</time>
      </trkpt>
      <trkpt lat="45.41057" lon="5.88944">
        <ele>1123.272952648</ele>
        <time>2016-06-18T08:13:16Z</time>
      </trkpt>
      <trkpt lat="45.41055" lon="5.88952">
        <ele>1123.272952648</ele>
        <time>2016-06-18T08:13:21Z</time>
      </trkpt>
      <trkpt lat="45.4105" lon="5.88966">
        <ele>1125.744862316</ele>
        <time>2016-06-18T08:13:31Z</time>
      </trkpt>
      <trkpt lat="45.41046" lon="5.88976">
        <ele>1125.744862316</ele>
        <time>2016-06-18T08:13:36Z</time>
      </trkpt>
      <trkpt lat="45.41045" lon="5.8899">
        <ele>1127.094519866</ele>
        <time>2016-06-18T08:13:46Z</time>
      </trkpt>
      <trkpt lat="45.41042" lon="5.89002">
        <ele>1128.210576084</ele>
        <time>2016-06-18T08:13:51Z</time>
      </trkpt>
      <trkpt lat="45.41042" lon="5.89026">
        <ele>1129.422603114</ele>
        <time>2016-06-18T08:14:01Z</time>
      </trkpt>
      <trkpt lat="45.41039" lon="5.89034">
        <ele>1129.422603114</ele>
        <time>2016-06-18T08:14:06Z</time>
      </trkpt>
      <trkpt lat="45.41035" lon="5.89058">
        <ele>1131.015973713</ele>
        <time>2016-06-18T08:14:16Z</time>
      </trkpt>
      <trkpt lat="45.41034" lon="5.89069">
        <ele>1131.015973713</ele>
        <time>2016-06-18T08:14:21Z</time>
      </trkpt>
      <trkpt lat="45.41036" lon="5.89088">
        <ele>1131.944180665</ele>
        <time>2016-06-18T08:14:31Z</time>
      </trkpt>
      <trkpt lat="45.41034" lon="5.89097">
        <ele>1131.944180665</ele>
        <time>2016-06-18T08:14:36Z</time>
      </trkpt>
      <trkpt lat="45.41031" lon="5.8913">
        <ele>1132.416769239</ele>
        <time>2016-06-18T08:14:51Z</time>
      </trkpt>
      <trkpt lat="45.41025" lon="5.89138">
        <ele>1132.416769239</ele>
        <time>2016-06-18T08:14:56Z</time>
      </trkpt>
      <trkpt lat="45.41016" lon="5.89158">
        <ele>1131.911647987</ele>
        <time>2016-06-18T08:15:06Z</time>
      </trkpt>
      <trkpt lat="45.4101" lon="5.89161">
        <ele>1131.911647987</ele>
        <time>2016-06-18T08:15:11Z</time>
      </trkpt>
      <trkpt lat="45.40998" lon="5.89169">
        <ele>1130.936877262</ele>
        <time>2016-06-18T08:15:21Z</time>
      </trkpt>
      <trkpt lat="45.40987" lon="5.89167">
        <ele>1130.646268838</ele>
        <time>2016-06-18T08:15:26Z</time>
      </trkpt>
      <trkpt lat="45.4098" lon="5.89189">
        <ele>1130.009043791</ele>
        <time>2016-06-18T08:15:36Z</time>
      </trkpt>
      <trkpt lat="45.40976" lon="5.89195">
        <ele>1130.009043791</ele>
        <time>2016-06-18T08:15:41Z</time>
      </trkpt>
      <trkpt lat="45.40966" lon="5.89209">
        <ele>1129.190194781</ele>
        <time>2016-06-18T08:15:51Z</time>
      </trkpt>
      <trkpt lat="45.4096" lon="5.89222">
        <ele>1128.065238725</ele>
        <time>2016-06-18T08:15:56Z</time>
      </trkpt>
      <trkpt lat="45.40946" lon="5.89233">
        <ele>1126.797557301</ele>
        <time>2016-06-18T08:16:06Z</time>
      </trkpt>
      <trkpt lat="45.4094" lon="5.89238">
        <ele>1126.797557301</ele>
        <time>2016-06-18T08:16:11Z</time>
      </trkpt>
      <trkpt lat="45.40926" lon="5.89246">
        <ele>1125.402148625</ele>
        <time>2016-06-18T08:16:21Z</time>
      </trkpt>
      <trkpt lat="45.40921" lon="5.89248">
        <ele>1125.402148625</ele>
        <time>2016-06-18T08:16:26Z</time>
      </trkpt>
      <trkpt lat="45.40904" lon="5.8926">
        <ele>1123.474728375</ele>
        <time>2016-06-18T08:16:36Z</time>
      </trkpt>
      <trkpt lat="45.40895" lon="5.89263">
        <ele>1123.474728375</ele>
        <time>2016-06-18T08:16:41Z</time>
      </trkpt>
      <trkpt lat="45.40881" lon="5.89283">
        <ele>1121.340374634</ele>
        <time>2016-06-18T08:16:56Z</time>
      </trkpt>
      <trkpt lat="45.40876" lon="5.89295">
        <ele>1118.883524307</ele>
        <time>2016-06-18T08:17:01Z</time>
      </trkpt>
      <trkpt lat="45.40869" lon="5.89317">
        <ele>1115.854102161</ele>
        <time>2016-06-18T08:17:11Z</time>
      </trkpt>
      <trkpt lat="45.40867" lon="5.89331">
        <ele>1112.879807635</ele>
        <time>2016-06-18T08:17:16Z</time>
      </trkpt>
      <trkpt lat="45.40866" lon="5.89342">
        <ele>1112.879807635</ele>
        <time>2016-06-18T08:17:21Z</time>
      </trkpt>
      <trkpt lat="45.40866" lon="5.89352">
        <ele>1109.834493751</ele>
        <time>2016-06-18T08:17:26Z</time>
      </trkpt>
      <trkpt lat="45.40864" lon="5.89358">
        <ele>1109.834493751</ele>
        <time>2016-06-18T08:17:31Z</time>
      </trkpt>
      <trkpt lat="45.40859" lon="5.89382">
        <ele>1106.890523992</ele>
        <time>2016-06-18T08:17:41Z</time>
      </trkpt>
      <trkpt lat="45.40859" lon="5.89394">
        <ele>1106.890523992</ele>
        <time>2016-06-18T08:17:46Z</time>
      </trkpt>
      <trkpt lat="45.40858" lon="5.89413">
        <ele>1103.917731836</ele>
        <time>2016-06-18T08:17:56Z</time>
      </trkpt>
      <trkpt lat="45.40858" lon="5.89424">
        <ele>1103.917731836</ele>
        <time>2016-06-18T08:18:01Z</time>
      </trkpt>
      <trkpt lat="45.40856" lon="5.89442">
        <ele>1101.087495271</ele>
        <time>2016-06-18T08:18:11Z</time>
      </trkpt>
      <trkpt lat="45.40857" lon="5.89454">
        <ele>1101.087495271</ele>
        <time>2016-06-18T08:18:16Z</time>
      </trkpt>
      <trkpt lat="45.40852" lon="5.89472">
        <ele>1098.411972192</ele>
        <time>2016-06-18T08:18:26Z</time>
      </trkpt>
      <trkpt lat="45.40849" lon="5.8948">
        <ele>1098.411972192</ele>
        <time>2016-06-18T08:18:31Z</time>
      </trkpt>
      <trkpt lat="45.40839" lon="5.89488">
        <ele>1096.049650154</ele>
        <time>2016-06-18T08:18:41Z</time>
      </trkpt>
      <trkpt lat="45.40834" lon="5.89494">
        <ele>1096.049650154</ele>
        <time>2016-06-18T08:18:46Z</time>
      </trkpt>
      <trkpt lat="45.40826" lon="5.89508">
        <ele>1094.744793701</ele>
        <time>2016-06-18T08:18:56Z</time>
      </trkpt>
      <trkpt lat="45.40818" lon="5.89512">
        <ele>1094.744793701</ele>
        <time>2016-06-18T08:19:01Z</time>
      </trkpt>
      <trkpt lat="45.4081" lon="5.89522">
        <ele>1093.236793623</ele>
        <time>2016-06-18T08:19:11Z</time>
      </trkpt>
      <trkpt lat="45.40803" lon="5.89522">
        <ele>1093.236793623</ele>
        <time>2016-06-18T08:19:16Z</time>
      </trkpt>
      <trkpt lat="45.4079" lon="5.89527">
        <ele>1091.400010022</ele>
        <time>2016-06-18T08:19:26Z</time>
      </trkpt>
      <trkpt lat="45.40784" lon="5.89524">
        <ele>1091.400010022</ele>
        <time>2016-06-18T08:19:31Z</time>
      </trkpt>
      <trkpt lat="45.40771" lon="5.89531">
        <ele>1091.379172592</ele>
        <time>2016-06-18T08:19:41Z</time>
      </trkpt>
      <trkpt lat="45.40765" lon="5.89532">
        <ele>1091.379172592</ele>
        <time>2016-06-18T08:19:46Z</time>
      </trkpt>
      <trkpt lat="45.40745" lon="5.8954">
        <ele>1091.233985763</ele>
        <time>2016-06-18T08:20:01Z</time>
      </trkpt>
      <trkpt lat="45.40739" lon="5.89539">
        <ele>1091.233985763</ele>
        <time>2016-06-18T08:20:06Z</time>
      </trkpt>
      <trkpt lat="45.40731" lon="5.89539">
        <ele>1091.882267337</ele>
        <time>2016-06-18T08:20:16Z</time>
      </trkpt>
      <trkpt lat="45.40722" lon="5.89539">
        <ele>1091.882267337</ele>
        <time>2016-06-18T08:20:21Z</time>
      </trkpt>
      <trkpt lat="45.40706" lon="5.8954">
        <ele>1093.111908563</ele>
        <time>2016-06-18T08:20:31Z</time>
      </trkpt>
      <trkpt lat="45.407" lon="5.89538">
        <ele>1093.111908563</ele>
        <time>2016-06-18T08:20:36Z</time>
      </trkpt>
      <trkpt lat="45.40683" lon="5.89537">
        <ele>1094.271225602</ele>
        <time>2016-06-18T08:20:46Z</time>
      </trkpt>
      <trkpt lat="45.40674" lon="5.89531">
        <ele>1095.212214975</ele>
        <time>2016-06-18T08:20:51Z</time>
      </trkpt>
      <trkpt lat="45.40665" lon="5.89535">
        <ele>1095.950349565</ele>
        <time>2016-06-18T08:21:01Z</time>
      </trkpt>
      <trkpt lat="45.40654" lon="5.8953">
        <ele>1096.350542823</ele>
        <time>2016-06-18T08:21:06Z</time>
      </trkpt>
      <trkpt lat="45.40643" lon="5.89525">
        <ele>1097.040098395</ele>
        <time>2016-06-18T08:21:16Z</time>
      </trkpt>
      <trkpt lat="45.40639" lon="5.89521">
        <ele>1097.040098395</ele>
        <time>2016-06-18T08:21:21Z</time>
      </trkpt>
      <trkpt lat="45.40624" lon="5.89511">
        <ele>1097.994568741</ele>
        <time>2016-06-18T08:21:31Z</time>
      </trkpt>
      <trkpt lat="45.40618" lon="5.89511">
        <ele>1097.994568741</ele>
        <time>2016-06-18T08:21:36Z</time>
      </trkpt>
      <trkpt lat="45.40611" lon="5.89504">
        <ele>1100.086425556</ele>
        <time>2016-06-18T08:21:46Z</time>
      </trkpt>
      <trkpt lat="45.40607" lon="5.89504">
        <ele>1100.086425556</ele>
        <time>2016-06-18T08:21:51Z</time>
      </trkpt>
      <trkpt lat="45.40585" lon="5.895">
        <ele>1101.281351042</ele>
        <time>2016-06-18T08:22:06Z</time>
      </trkpt>
      <trkpt lat="45.40577" lon="5.89505">
        <ele>1101.281351042</ele>
        <time>2016-06-18T08:22:11Z</time>
      </trkpt>
      <trkpt lat="45.4057" lon="5.89513">
        <ele>1102.096237729</ele>
        <time>2016-06-18T08:22:21Z</time>
      </trkpt>
      <trkpt lat="45.40567" lon="5.89517">
        <ele>1102.096237729</ele>
        <time>2016-06-18T08:22:26Z</time>
      </trkpt>
      <trkpt lat="45.40559" lon="5.89517">
        <ele>1103.598397993</ele>
        <time>2016-06-18T08:22:36Z</time>
      </trkpt>
      <trkpt lat="45.40551" lon="5.89518">
        <ele>1103.598397993</ele>
        <time>2016-06-18T08:22:41Z</time>
      </trkpt>
      <trkpt lat="45.40539" lon="5.89516">
        <ele>1105.137397204</ele>
        <time>2016-06-18T08:22:51Z</time>
      </trkpt>
      <trkpt lat="45.40534" lon="5.89523">
        <ele>1105.137397204</ele>
        <time>2016-06-18T08:22:56Z</time>
      </trkpt>
      <trkpt lat="45.40528" lon="5.89533">
        <ele>1106.707166761</ele>
        <time>2016-06-18T08:23:06Z</time>
      </trkpt>
      <trkpt lat="45.40523" lon="5.89544">
        <ele>1108.154970303</ele>
        <time>2016-06-18T08:23:11Z</time>
      </trkpt>
      <trkpt lat="45.40514" lon="5.89562">
        <ele>1109.634635173</ele>
        <time>2016-06-18T08:23:21Z</time>
      </trkpt>
      <trkpt lat="45.40508" lon="5.89566">
        <ele>1109.634635173</ele>
        <time>2016-06-18T08:23:26Z</time>
      </trkpt>
      <trkpt lat="45.40495" lon="5.89564">
        <ele>1112.166016607</ele>
        <time>2016-06-18T08:23:36Z</time>
      </trkpt>
      <trkpt lat="45.40486" lon="5.89567">
        <ele>1114.490245601</ele>
        <time>2016-06-18T08:23:41Z</time>
      </trkpt>
      <trkpt lat="45.40469" lon="5.89581">
        <ele>1116.910551759</ele>
        <time>2016-06-18T08:23:56Z</time>
      </trkpt>
      <trkpt lat="45.40462" lon="5.89583">
        <ele>1116.910551759</ele>
        <time>2016-06-18T08:24:01Z</time>
      </trkpt>
      <trkpt lat="45.40453" lon="5.89596">
        <ele>1119.1227954</ele>
        <time>2016-06-18T08:24:11Z</time>
      </trkpt>
      <trkpt lat="45.40447" lon="5.89606">
        <ele>1120.993091093</ele>
        <time>2016-06-18T08:24:16Z</time>
      </trkpt>
      <trkpt lat="45.40443" lon="5.89623">
        <ele>1122.398912591</ele>
        <time>2016-06-18T08:24:26Z</time>
      </trkpt>
      <trkpt lat="45.40444" lon="5.89628">
        <ele>1122.398912591</ele>
        <time>2016-06-18T08:24:31Z</time>
      </trkpt>
      <trkpt lat="45.40439" lon="5.89647">
        <ele>1123.808526011</ele>
        <time>2016-06-18T08:24:41Z</time>
      </trkpt>
      <trkpt lat="45.40437" lon="5.89656">
        <ele>1123.808526011</ele>
        <time>2016-06-18T08:24:46Z</time>
      </trkpt>
      <trkpt lat="45.4043" lon="5.8968">
        <ele>1125.653486169</ele>
        <time>2016-06-18T08:24:56Z</time>
      </trkpt>
      <trkpt lat="45.40427" lon="5.89687">
        <ele>1125.653486169</ele>
        <time>2016-06-18T08:25:01Z</time>
      </trkpt>
      <trkpt lat="45.40423" lon="5.89705">
        <ele>1127.60717879</ele>
        <time>2016-06-18T08:25:11Z</time>
      </trkpt>
      <trkpt lat="45.40418" lon="5.89713">
        <ele>1127.60717879</ele>
        <time>2016-06-18T08:25:16Z</time>
      </trkpt>
      <trkpt lat="45.40414" lon="5.89739">
        <ele>1129.223375243</ele>
        <time>2016-06-18T08:25:26Z</time>
      </trkpt>
      <trkpt lat="45.40414" lon="5.89747">
        <ele>1129.223375243</ele>
        <time>2016-06-18T08:25:31Z</time>
      </trkpt>
      <trkpt lat="45.40409" lon="5.89763">
        <ele>1130.235349486</ele>
        <time>2016-06-18T08:25:41Z</time>
      </trkpt>
      <trkpt lat="45.40406" lon="5.89771">
        <ele>1130.235349486</ele>
        <time>2016-06-18T08:25:46Z</time>
      </trkpt>
      <trkpt lat="45.40396" lon="5.89798">
        <ele>1130.975809246</ele>
        <time>2016-06-18T08:26:01Z</time>
      </trkpt>
      <trkpt lat="45.40401" lon="5.89812">
        <ele>1131.464225713</ele>
        <time>2016-06-18T08:26:06Z</time>
      </trkpt>
      <trkpt lat="45.40396" lon="5.89823">
        <ele>1131.464225713</ele>
        <time>2016-06-18T08:26:16Z</time>
      </trkpt>
      <trkpt lat="45.40398" lon="5.89835">
        <ele>1132.585073952</ele>
        <time>2016-06-18T08:26:21Z</time>
      </trkpt>
      <trkpt lat="45.40399" lon="5.89848">
        <ele>1135.010807047</ele>
        <time>2016-06-18T08:26:31Z</time>
      </trkpt>
      <trkpt lat="45.40398" lon="5.89847">
        <ele>1135.010807047</ele>
        <time>2016-06-18T08:26:36Z</time>
      </trkpt>
      <trkpt lat="45.40393" lon="5.89849">
        <ele>1135.010807047</ele>
        <time>2016-06-18T08:26:46Z</time>
      </trkpt>
      <trkpt lat="45.40391" lon="5.89852">
        <ele>1137.629821454</ele>
        <time>2016-06-18T08:26:51Z</time>
      </trkpt>
      <trkpt lat="45.4039" lon="5.89863">
        <ele>1137.629821454</ele>
        <time>2016-06-18T08:27:01Z</time>
      </trkpt>
      <trkpt lat="45.40385" lon="5.89871">
        <ele>1139.124320681</ele>
        <time>2016-06-18T08:27:06Z</time>
      </trkpt>
      <trkpt lat="45.40377" lon="5.89886">
        <ele>1141.016657749</ele>
        <time>2016-06-18T08:27:16Z</time>
      </trkpt>
      <trkpt lat="45.40375" lon="5.89895">
        <ele>1141.016657749</ele>
        <time>2016-06-18T08:27:21Z</time>
      </trkpt>
      <trkpt lat="45.40375" lon="5.89905">
        <ele>1143.27391354</ele>
        <time>2016-06-18T08:27:26Z</time>
      </trkpt>
      <trkpt lat="45.40376" lon="5.8991">
        <ele>1143.27391354</ele>
        <time>2016-06-18T08:27:31Z</time>
      </trkpt>
      <trkpt lat="45.40377" lon="5.89912">
        <ele>1143.27391354</ele>
        <time>2016-06-18T08:27:36Z</time>
      </trkpt>
      <trkpt lat="45.40376" lon="5.89913">
        <ele>1143.27391354</ele>
        <time>2016-06-18T08:27:41Z</time>
      </trkpt>
      <trkpt lat="45.40374" lon="5.89916">
        <ele>1145.86471241</ele>
        <time>2016-06-18T08:27:51Z</time>
      </trkpt>
      <trkpt lat="45.40369" lon="5.89927">
        <ele>1148.038294285</ele>
        <time>2016-06-18T08:27:56Z</time>
      </trkpt>
      <trkpt lat="45.4036" lon="5.89952">
        <ele>1151.263007</ele>
        <time>2016-06-18T08:28:11Z</time>
      </trkpt>
      <trkpt lat="45.40354" lon="5.89955">
        <ele>1151.263007</ele>
        <time>2016-06-18T08:28:16Z</time>
      </trkpt>
      <trkpt lat="45.40352" lon="5.89967">
        <ele>1154.589627125</ele>
        <time>2016-06-18T08:28:26Z</time>
      </trkpt>
      <trkpt lat="45.40348" lon="5.89973">
        <ele>1154.589627125</ele>
        <time>2016-06-18T08:28:31Z</time>
      </trkpt>
      <trkpt lat="45.40344" lon="5.89988">
        <ele>1158.58034337</ele>
        <time>2016-06-18T08:28:41Z</time>
      </trkpt>
      <trkpt lat="45.40345" lon="5.89996">
        <ele>1158.58034337</ele>
        <time>2016-06-18T08:28:46Z</time>
      </trkpt>
      <trkpt lat="45.40345" lon="5.9">
        <ele>1158.58034337</ele>
        <time>2016-06-18T08:28:56Z</time>
      </trkpt>
      <trkpt lat="45.40346" lon="5.90004">
        <ele>1162.889177164</ele>
        <time>2016-06-18T08:29:01Z</time>
      </trkpt>
      <trkpt lat="45.40345" lon="5.90011">
        <ele>1162.889177164</ele>
        <time>2016-06-18T08:29:11Z</time>
      </trkpt>
      <trkpt lat="45.40345" lon="5.90018">
        <ele>1166.906342847</ele>
        <time>2016-06-18T08:29:16Z</time>
      </trkpt>
      <trkpt lat="45.40349" lon="5.90044">
        <ele>1170.356180003</ele>
        <time>2016-06-18T08:29:26Z</time>
      </trkpt>
      <trkpt lat="45.40345" lon="5.90057">
        <ele>1173.706154574</ele>
        <time>2016-06-18T08:29:31Z</time>
      </trkpt>
      <trkpt lat="45.40345" lon="5.90062">
        <ele>1173.706154574</ele>
        <time>2016-06-18T08:29:41Z</time>
      </trkpt>
      <trkpt lat="45.40345" lon="5.90065">
        <ele>1173.706154574</ele>
        <time>2016-06-18T08:29:46Z</time>
      </trkpt>
      <trkpt lat="45.40342" lon="5.90073">
        <ele>1177.534153813</ele>
        <time>2016-06-18T08:30:01Z</time>
      </trkpt>
      <trkpt lat="45.40343" lon="5.90082">
        <ele>1177.534153813</ele>
        <time>2016-06-18T08:30:06Z</time>
      </trkpt>
      <trkpt lat="45.40339" lon="5.90091">
        <ele>1181.509081216</ele>
        <time>2016-06-18T08:30:16Z</time>
      </trkpt>
      <trkpt lat="45.40342" lon="5.90094">
        <ele>1181.509081216</ele>
        <time>2016-06-18T08:30:21Z</time>
      </trkpt>
      <trkpt lat="45.40338" lon="5.90093">
        <ele>1181.509081216</ele>
        <time>2016-06-18T08:30:31Z</time>
      </trkpt>
      <trkpt lat="45.40338" lon="5.90093">
        <ele>1181.509081216</ele>
        <time>2016-06-18T08:30:36Z</time>
      </trkpt>
      <trkpt lat="45.40332" lon="5.90107">
        <ele>1186.477858959</ele>
        <time>2016-06-18T08:30:46Z</time>
      </trkpt>
      <trkpt lat="45.40331" lon="5.90119">
        <ele>1186.477858959</ele>
        <time>2016-06-18T08:30:51Z</time>
      </trkpt>
      <trkpt lat="45.40338" lon="5.9013">
        <ele>1190.626225222</ele>
        <time>2016-06-18T08:31:01Z</time>
      </trkpt>
      <trkpt lat="45.40336" lon="5.90133">
        <ele>1190.626225222</ele>
        <time>2016-06-18T08:31:06Z</time>
      </trkpt>
      <trkpt lat="45.40335" lon="5.90135">
        <ele>1190.626225222</ele>
        <time>2016-06-18T08:31:16Z</time>
      </trkpt>
      <trkpt lat="45.40335" lon="5.90135">
        <ele>1190.626225222</ele>
        <time>2016-06-18T08:31:21Z</time>
      </trkpt>
      <trkpt lat="45.40335" lon="5.90135">
        <ele>1190.626225222</ele>
        <time>2016-06-18T08:31:31Z</time>
      </trkpt>
      <trkpt lat="45.40335" lon="5.90137">
        <ele>1190.626225222</ele>
        <time>2016-06-18T08:31:36Z</time>
      </trkpt>
      <trkpt lat="45.40329" lon="5.90148">
        <ele>1194.872164737</ele>
        <time>2016-06-18T08:31:46Z</time>
      </trkpt>
      <trkpt lat="45.40325" lon="5.90151">
        <ele>1194.872164737</ele>
        <time>2016-06-18T08:31:51Z</time>
      </trkpt>
      <trkpt lat="45.40328" lon="5.9016">
        <ele>1198.912202401</ele>
        <time>2016-06-18T08:32:01Z</time>
      </trkpt>
      <trkpt lat="45.40326" lon="5.90168">
        <ele>1198.912202401</ele>
        <time>2016-06-18T08:32:06Z</time>
      </trkpt>
      <trkpt lat="45.40323" lon="5.90183">
        <ele>1202.754489654</ele>
        <time>2016-06-18T08:32:16Z</time>
      </trkpt>
      <trkpt lat="45.40323" lon="5.9019">
        <ele>1202.754489654</ele>
        <time>2016-06-18T08:32:21Z</time>
      </trkpt>
      <trkpt lat="45.40321" lon="5.90191">
        <ele>1202.754489654</ele>
        <time>2016-06-18T08:32:31Z</time>
      </trkpt>
      <trkpt lat="45.40321" lon="5.90193">
        <ele>1202.754489654</ele>
        <time>2016-06-18T08:32:36Z</time>
      </trkpt>
      <trkpt lat="45.40321" lon="5.90193">
        <ele>1202.754489654</ele>
        <time>2016-06-18T08:32:46Z</time>
      </trkpt>
      <trkpt lat="45.40321" lon="5.90193">
        <ele>1202.754489654</ele>
        <time>2016-06-18T08:32:51Z</time>
      </trkpt>
      <trkpt lat="45.40322" lon="5.90217">
        <ele>1207.99401026</ele>
        <time>2016-06-18T08:33:02Z</time>
      </trkpt>
      <trkpt lat="45.40323" lon="5.90219">
        <ele>1207.99401026</ele>
        <time>2016-06-18T08:33:07Z</time>
      </trkpt>
      <trkpt lat="45.40324" lon="5.9022">
        <ele>1207.99401026</ele>
        <time>2016-06-18T08:33:17Z</time>
      </trkpt>
      <trkpt lat="45.40324" lon="5.9022">
        <ele>1207.99401026</ele>
        <time>2016-06-18T08:33:22Z</time>
      </trkpt>
      <trkpt lat="45.40328" lon="5.90235">
        <ele>1213.652671434</ele>
        <time>2016-06-18T08:33:32Z</time>
      </trkpt>
      <trkpt lat="45.40326" lon="5.90246">
        <ele>1213.652671434</ele>
        <time>2016-06-18T08:33:37Z</time>
      </trkpt>
      <trkpt lat="45.40328" lon="5.90262">
        <ele>1219.256142702</ele>
        <time>2016-06-18T08:33:47Z</time>
      </trkpt>
      <trkpt lat="45.40329" lon="5.9027">
        <ele>1219.256142702</ele>
        <time>2016-06-18T08:33:52Z</time>
      </trkpt>
      <trkpt lat="45.40332" lon="5.90288">
        <ele>1224.221224766</ele>
        <time>2016-06-18T08:34:02Z</time>
      </trkpt>
      <trkpt lat="45.40335" lon="5.90295">
        <ele>1224.221224766</ele>
        <time>2016-06-18T08:34:07Z</time>
      </trkpt>
      <trkpt lat="45.40338" lon="5.90292">
        <ele>1229.451925292</ele>
        <time>2016-06-18T08:34:17Z</time>
      </trkpt>
      <trkpt lat="45.40342" lon="5.90291">
        <ele>1229.451925292</ele>
        <time>2016-06-18T08:34:21Z</time>
      </trkpt>
      <trkpt lat="45.40352" lon="5.90282">
        <ele>1235.785196819</ele>
        <time>2016-06-18T08:34:32Z</time>
      </trkpt>
      <trkpt lat="45.40353" lon="5.90282">
        <ele>1235.785196819</ele>
        <time>2016-06-18T08:34:37Z</time>
      </trkpt>
      <trkpt lat="45.40354" lon="5.90286">
        <ele>1235.785196819</ele>
        <time>2016-06-18T08:34:53Z</time>
      </trkpt>
      <trkpt lat="45.40352" lon="5.9029">
        <ele>1235.785196819</ele>
        <time>2016-06-18T08:34:57Z</time>
      </trkpt>
      <trkpt lat="45.40353" lon="5.90292">
        <ele>1242.839899015</ele>
        <time>2016-06-18T08:35:07Z</time>
      </trkpt>
      <trkpt lat="45.40353" lon="5.90292">
        <ele>1242.839899015</ele>
        <time>2016-06-18T08:35:12Z</time>
      </trkpt>
      <trkpt lat="45.40353" lon="5.90292">
        <ele>1242.839899015</ele>
        <time>2016-06-18T08:35:22Z</time>
      </trkpt>
      <trkpt lat="45.40353" lon="5.90292">
        <ele>1242.839899015</ele>
        <time>2016-06-18T08:35:27Z</time>
      </trkpt>
      <trkpt lat="45.40358" lon="5.90315">
        <ele>1249.251881398</ele>
        <time>2016-06-18T08:35:37Z</time>
      </trkpt>
      <trkpt lat="45.4036" lon="5.90322">
        <ele>1249.251881398</ele>
        <time>2016-06-18T08:35:42Z</time>
      </trkpt>
      <trkpt lat="45.40362" lon="5.90328">
        <ele>1256.06663217</ele>
        <time>2016-06-18T08:35:52Z</time>
      </trkpt>
      <trkpt lat="45.40362" lon="5.90329">
        <ele>1256.06663217</ele>
        <time>2016-06-18T08:35:57Z</time>
      </trkpt>
      <trkpt lat="45.40362" lon="5.90329">
        <ele>1256.06663217</ele>
        <time>2016-06-18T08:36:07Z</time>
      </trkpt>
      <trkpt lat="45.40362" lon="5.90329">
        <ele>1256.06663217</ele>
        <time>2016-06-18T08:36:12Z</time>
      </trkpt>
      <trkpt lat="45.40354" lon="5.90351">
        <ele>1263.386728082</ele>
        <time>2016-06-18T08:36:22Z</time>
      </trkpt>
      <trkpt lat="45.40353" lon="5.90359">
        <ele>1263.386728082</ele>
        <time>2016-06-18T08:36:27Z</time>
      </trkpt>
      <trkpt lat="45.40347" lon="5.90373">
        <ele>1270.296899424</ele>
        <time>2016-06-18T08:36:37Z</time>
      </trkpt>
      <trkpt lat="45.4035" lon="5.90376">
        <ele>1270.296899424</ele>
        <time>2016-06-18T08:36:43Z</time>
      </trkpt>
      <trkpt lat="45.40347" lon="5.90383">
        <ele>1277.104126981</ele>
        <time>2016-06-18T08:36:52Z</time>
      </trkpt>
      <trkpt lat="45.40348" lon="5.90385">
        <ele>1277.104126981</ele>
        <time>2016-06-18T08:36:57Z</time>
      </trkpt>
      <trkpt lat="45.40348" lon="5.90387">
        <ele>1277.104126981</ele>
        <time>2016-06-18T08:37:07Z</time>
      </trkpt>
      <trkpt lat="45.40348" lon="5.90387">
        <ele>1277.104126981</ele>
        <time>2016-06-18T08:37:12Z</time>
      </trkpt>
      <trkpt lat="45.40348" lon="5.90387">
        <ele>1277.104126981</ele>
        <time>2016-06-18T08:37:22Z</time>
      </trkpt>
      <trkpt lat="45.40348" lon="5.90387">
        <ele>1277.104126981</ele>
        <time>2016-06-18T08:37:27Z</time>
      </trkpt>
      <trkpt lat="45.40368" lon="5.90422">
        <ele>1282.507664203</ele>
        <time>2016-06-18T08:37:47Z</time>
      </trkpt>
      <trkpt lat="45.40369" lon="5.90425">
        <ele>1282.507664203</ele>
        <time>2016-06-18T08:37:52Z</time>
      </trkpt>
      <trkpt lat="45.40369" lon="5.90426">
        <ele>1282.507664203</ele>
        <time>2016-06-18T08:38:02Z</time>
      </trkpt>
      <trkpt lat="45.40369" lon="5.90426">
        <ele>1282.507664203</ele>
        <time>2016-06-18T08:38:07Z</time>
      </trkpt>
      <trkpt lat="45.40368" lon="5.90426">
        <ele>1282.507664203</ele>
        <time>2016-06-18T08:38:17Z</time>
      </trkpt>
      <trkpt lat="45.40368" lon="5.90426">
        <ele>1282.507664203</ele>
        <time>2016-06-18T08:38:22Z</time>
      </trkpt>
      <trkpt lat="45.40369" lon="5.90428">
        <ele>1282.507664203</ele>
        <time>2016-06-18T08:38:32Z</time>
      </trkpt>
      <trkpt lat="45.40368" lon="5.90435">
        <ele>1290.208061057</ele>
        <time>2016-06-18T08:38:37Z</time>
      </trkpt>
      <trkpt lat="45.40367" lon="5.90438">
        <ele>1290.208061057</ele>
        <time>2016-06-18T08:38:47Z</time>
      </trkpt>
      <trkpt lat="45.40367" lon="5.90438">
        <ele>1290.208061057</ele>
        <time>2016-06-18T08:38:52Z</time>
      </trkpt>
      <trkpt lat="45.40367" lon="5.90449">
        <ele>1299.158759415</ele>
        <time>2016-06-18T08:39:02Z</time>
      </trkpt>
      <trkpt lat="45.40365" lon="5.90449">
        <ele>1299.158759415</ele>
        <time>2016-06-18T08:39:07Z</time>
      </trkpt>
      <trkpt lat="45.40361" lon="5.90452">
        <ele>1299.158759415</ele>
        <time>2016-06-18T08:39:17Z</time>
      </trkpt>
      <trkpt lat="45.40358" lon="5.90463">
        <ele>1308.531276705</ele>
        <time>2016-06-18T08:39:22Z</time>
      </trkpt>
      <trkpt lat="45.40359" lon="5.90479">
        <ele>1316.260080769</ele>
        <time>2016-06-18T08:39:32Z</time>
      </trkpt>
      <trkpt lat="45.40361" lon="5.90481">
        <ele>1316.260080769</ele>
        <time>2016-06-18T08:39:37Z</time>
      </trkpt>
      <trkpt lat="45.40362" lon="5.90488">
        <ele>1316.260080769</ele>
        <time>2016-06-18T08:39:47Z</time>
      </trkpt>
      <trkpt lat="45.40363" lon="5.90487">
        <ele>1316.260080769</ele>
        <time>2016-06-18T08:39:52Z</time>
      </trkpt>
      <trkpt lat="45.40362" lon="5.90487">
        <ele>1316.260080769</ele>
        <time>2016-06-18T08:40:02Z</time>
      </trkpt>
      <trkpt lat="45.40362" lon="5.90487">
        <ele>1324.472359266</ele>
        <time>2016-06-18T08:40:07Z</time>
      </trkpt>
      <trkpt lat="45.40362" lon="5.90487">
        <ele>1324.472359266</ele>
        <time>2016-06-18T08:40:17Z</time>
      </trkpt>
      <trkpt lat="45.40361" lon="5.90492">
        <ele>1324.472359266</ele>
        <time>2016-06-18T08:40:22Z</time>
      </trkpt>
      <trkpt lat="45.40362" lon="5.90496">
        <ele>1324.472359266</ele>
        <time>2016-06-18T08:40:37Z</time>
      </trkpt>
      <trkpt lat="45.40362" lon="5.90496">
        <ele>1324.472359266</ele>
        <time>2016-06-18T08:40:42Z</time>
      </trkpt>
      <trkpt lat="45.4036" lon="5.90499">
        <ele>1334.128942782</ele>
        <time>2016-06-18T08:40:52Z</time>
      </trkpt>
      <trkpt lat="45.40359" lon="5.90498">
        <ele>1334.128942782</ele>
        <time>2016-06-18T08:40:57Z</time>
      </trkpt>
      <trkpt lat="45.40358" lon="5.90498">
        <ele>1334.128942782</ele>
        <time>2016-06-18T08:41:07Z</time>
      </trkpt>
      <trkpt lat="45.40358" lon="5.90498">
        <ele>1334.128942782</ele>
        <time>2016-06-18T08:41:12Z</time>
      </trkpt>
      <trkpt lat="45.40347" lon="5.90502">
        <ele>1343.377978114</ele>
        <time>2016-06-18T08:41:22Z</time>
      </trkpt>
      <trkpt lat="45.40347" lon="5.905">
        <ele>1343.377978114</ele>
        <time>2016-06-18T08:41:27Z</time>
      </trkpt>
      <trkpt lat="45.40346" lon="5.90501">
        <ele>1343.377978114</ele>
        <time>2016-06-18T08:41:37Z</time>
      </trkpt>
      <trkpt lat="45.40346" lon="5.90501">
        <ele>1343.377978114</ele>
        <time>2016-06-18T08:41:43Z</time>
      </trkpt>
      <trkpt lat="45.40337" lon="5.90515">
        <ele>1352.523108362</ele>
        <time>2016-06-18T08:41:52Z</time>
      </trkpt>
      <trkpt lat="45.40338" lon="5.90514">
        <ele>1352.523108362</ele>
        <time>2016-06-18T08:41:57Z</time>
      </trkpt>
      <trkpt lat="45.40336" lon="5.90519">
        <ele>1352.523108362</ele>
        <time>2016-06-18T08:42:07Z</time>
      </trkpt>
      <trkpt lat="45.40338" lon="5.90519">
        <ele>1352.523108362</ele>
        <time>2016-06-18T08:42:12Z</time>
      </trkpt>
      <trkpt lat="45.40338" lon="5.90519">
        <ele>1352.523108362</ele>
        <time>2016-06-18T08:42:27Z</time>
      </trkpt>
      <trkpt lat="45.40338" lon="5.9052">
        <ele>1352.523108362</ele>
        <time>2016-06-18T08:42:32Z</time>
      </trkpt>
      <trkpt lat="45.40346" lon="5.90543">
        <ele>1360.69341232</ele>
        <time>2016-06-18T08:42:42Z</time>
      </trkpt>
      <trkpt lat="45.40356" lon="5.90548">
        <ele>1368.38223774</ele>
        <time>2016-06-18T08:42:47Z</time>
      </trkpt>
      <trkpt lat="45.4036" lon="5.90555">
        <ele>1368.38223774</ele>
        <time>2016-06-18T08:42:57Z</time>
      </trkpt>
      <trkpt lat="45.40359" lon="5.90553">
        <ele>1368.38223774</ele>
        <time>2016-06-18T08:43:02Z</time>
      </trkpt>
      <trkpt lat="45.40356" lon="5.90553">
        <ele>1376.624922732</ele>
        <time>2016-06-18T08:43:12Z</time>
      </trkpt>
      <trkpt lat="45.40356" lon="5.90553">
        <ele>1376.624922732</ele>
        <time>2016-06-18T08:43:17Z</time>
      </trkpt>
      <trkpt lat="45.40355" lon="5.90556">
        <ele>1376.624922732</ele>
        <time>2016-06-18T08:43:27Z</time>
      </trkpt>
      <trkpt lat="45.40355" lon="5.90556">
        <ele>1376.624922732</ele>
        <time>2016-06-18T08:43:32Z</time>
      </trkpt>
      <trkpt lat="45.40355" lon="5.90556">
        <ele>1376.624922732</ele>
        <time>2016-06-18T08:43:42Z</time>
      </trkpt>
      <trkpt lat="45.40358" lon="5.9057">
        <ele>1383.353173774</ele>
        <time>2016-06-18T08:43:47Z</time>
      </trkpt>
      <trkpt lat="45.40366" lon="5.90578">
        <ele>1390.402349577</ele>
        <time>2016-06-18T08:43:57Z</time>
      </trkpt>
      <trkpt lat="45.40371" lon="5.90587">
        <ele>1390.402349577</ele>
        <time>2016-06-18T08:44:02Z</time>
      </trkpt>
      <trkpt lat="45.40386" lon="5.9059">
        <ele>1397.598980887</ele>
        <time>2016-06-18T08:44:12Z</time>
      </trkpt>
      <trkpt lat="45.40389" lon="5.9059">
        <ele>1397.598980887</ele>
        <time>2016-06-18T08:44:17Z</time>
      </trkpt>
      <trkpt lat="45.40389" lon="5.90604">
        <ele>1404.061775946</ele>
        <time>2016-06-18T08:44:27Z</time>
      </trkpt>
      <trkpt lat="45.40392" lon="5.90609">
        <ele>1404.061775946</ele>
        <time>2016-06-18T08:44:32Z</time>
      </trkpt>
      <trkpt lat="45.40394" lon="5.90619">
        <ele>1410.273655505</ele>
        <time>2016-06-18T08:44:43Z</time>
      </trkpt>
      <trkpt lat="45.40404" lon="5.9062">
        <ele>1416.250798412</ele>
        <time>2016-06-18T08:44:47Z</time>
      </trkpt>
      <trkpt lat="45.40407" lon="5.90623">
        <ele>1416.250798412</ele>
        <time>2016-06-18T08:44:57Z</time>
      </trkpt>
      <trkpt lat="45.40406" lon="5.90625">
        <ele>1416.250798412</ele>
        <time>2016-06-18T08:45:02Z</time>
      </trkpt>
      <trkpt lat="45.40404" lon="5.90632">
        <ele>1421.865092144</ele>
        <time>2016-06-18T08:45:12Z</time>
      </trkpt>
      <trkpt lat="45.40402" lon="5.90636">
        <ele>1421.865092144</ele>
        <time>2016-06-18T08:45:17Z</time>
      </trkpt>
      <trkpt lat="45.40401" lon="5.90645">
        <ele>1427.431519203</ele>
        <time>2016-06-18T08:45:27Z</time>
      </trkpt>
      <trkpt lat="45.40401" lon="5.90646">
        <ele>1427.431519203</ele>
        <time>2016-06-18T08:45:32Z</time>
      </trkpt>
      <trkpt lat="45.40404" lon="5.90652">
        <ele>1427.431519203</ele>
        <time>2016-06-18T08:45:47Z</time>
      </trkpt>
      <trkpt lat="45.40405" lon="5.90663">
        <ele>1432.089459651</ele>
        <time>2016-06-18T08:45:52Z</time>
      </trkpt>
      <trkpt lat="45.40412" lon="5.90674">
        <ele>1437.350144314</ele>
        <time>2016-06-18T08:46:04Z</time>
      </trkpt>
      <trkpt lat="45.40411" lon="5.90674">
        <ele>1437.350144314</ele>
        <time>2016-06-18T08:46:07Z</time>
      </trkpt>
      <trkpt lat="45.40411" lon="5.90681">
        <ele>1437.350144314</ele>
        <time>2016-06-18T08:46:17Z</time>
      </trkpt>
      <trkpt lat="45.40415" lon="5.90685">
        <ele>1442.306544929</ele>
        <time>2016-06-18T08:46:22Z</time>
      </trkpt>
      <trkpt lat="45.40416" lon="5.90688">
        <ele>1442.306544929</ele>
        <time>2016-06-18T08:46:32Z</time>
      </trkpt>
      <trkpt lat="45.40416" lon="5.90688">
        <ele>1442.306544929</ele>
        <time>2016-06-18T08:46:37Z</time>
      </trkpt>
      <trkpt lat="45.40416" lon="5.90688">
        <ele>1442.306544929</ele>
        <time>2016-06-18T08:46:47Z</time>
      </trkpt>
      <trkpt lat="45.40421" lon="5.90693">
        <ele>1442.306544929</ele>
        <time>2016-06-18T08:46:52Z</time>
      </trkpt>
      <trkpt lat="45.40429" lon="5.9071">
        <ele>1446.839903006</ele>
        <time>2016-06-18T08:47:04Z</time>
      </trkpt>
      <trkpt lat="45.40426" lon="5.90715">
        <ele>1446.839903006</ele>
        <time>2016-06-18T08:47:06Z</time>
      </trkpt>
      <trkpt lat="45.40431" lon="5.90729">
        <ele>1451.994477119</ele>
        <time>2016-06-18T08:47:17Z</time>
      </trkpt>
      <trkpt lat="45.40431" lon="5.90737">
        <ele>1451.994477119</ele>
        <time>2016-06-18T08:47:22Z</time>
      </trkpt>
      <trkpt lat="45.40436" lon="5.90745">
        <ele>1456.718653403</ele>
        <time>2016-06-18T08:47:32Z</time>
      </trkpt>
      <trkpt lat="45.40436" lon="5.90747">
        <ele>1456.718653403</ele>
        <time>2016-06-18T08:47:37Z</time>
      </trkpt>
      <trkpt lat="45.40444" lon="5.90759">
        <ele>1461.336446661</ele>
        <time>2016-06-18T08:47:47Z</time>
      </trkpt>
      <trkpt lat="45.40448" lon="5.90764">
        <ele>1461.336446661</ele>
        <time>2016-06-18T08:47:52Z</time>
      </trkpt>
      <trkpt lat="45.40446" lon="5.90781">
        <ele>1465.28380533</ele>
        <time>2016-06-18T08:48:02Z</time>
      </trkpt>
      <trkpt lat="45.40448" lon="5.90788">
        <ele>1465.28380533</ele>
        <time>2016-06-18T08:48:07Z</time>
      </trkpt>
      <trkpt lat="45.40458" lon="5.90796">
        <ele>1469.04889193</ele>
        <time>2016-06-18T08:48:17Z</time>
      </trkpt>
      <trkpt lat="45.4046" lon="5.908">
        <ele>1469.04889193</ele>
        <time>2016-06-18T08:48:21Z</time>
      </trkpt>
      <trkpt lat="45.40463" lon="5.90803">
        <ele>1469.04889193</ele>
        <time>2016-06-18T08:48:27Z</time>
      </trkpt>
      <trkpt lat="45.40463" lon="5.90812">
        <ele>1471.787559369</ele>
        <time>2016-06-18T08:48:32Z</time>
      </trkpt>
      <trkpt lat="45.4047" lon="5.90833">
        <ele>1474.017624279</ele>
        <time>2016-06-18T08:48:44Z</time>
      </trkpt>
      <trkpt lat="45.40474" lon="5.90838">
        <ele>1474.017624279</ele>
        <time>2016-06-18T08:48:47Z</time>
      </trkpt>
      <trkpt lat="45.40485" lon="5.90863">
        <ele>1475.932071206</ele>
        <time>2016-06-18T08:49:02Z</time>
      </trkpt>
      <trkpt lat="45.40491" lon="5.90868">
        <ele>1475.932071206</ele>
        <time>2016-06-18T08:49:07Z</time>
      </trkpt>
      <trkpt lat="45.405" lon="5.90895">
        <ele>1477.854683659</ele>
        <time>2016-06-18T08:49:22Z</time>
      </trkpt>
      <trkpt lat="45.40511" lon="5.90918">
        <ele>1479.508918217</ele>
        <time>2016-06-18T08:49:37Z</time>
      </trkpt>
      <trkpt lat="45.40514" lon="5.90927">
        <ele>1479.508918217</ele>
        <time>2016-06-18T08:49:42Z</time>
      </trkpt>
      <trkpt lat="45.40522" lon="5.90944">
        <ele>1480.49509166</ele>
        <time>2016-06-18T08:49:52Z</time>
      </trkpt>
      <trkpt lat="45.40528" lon="5.90947">
        <ele>1480.49509166</ele>
        <time>2016-06-18T08:49:57Z</time>
      </trkpt>
      <trkpt lat="45.40535" lon="5.90962">
        <ele>1481.165203142</ele>
        <time>2016-06-18T08:50:07Z</time>
      </trkpt>
      <trkpt lat="45.40542" lon="5.9097">
        <ele>1481.125545316</ele>
        <time>2016-06-18T08:50:12Z</time>
      </trkpt>
      <trkpt lat="45.4055" lon="5.90981">
        <ele>1480.733700633</ele>
        <time>2016-06-18T08:50:21Z</time>
      </trkpt>
      <trkpt lat="45.40556" lon="5.90985">
        <ele>1480.733700633</ele>
        <time>2016-06-18T08:50:26Z</time>
      </trkpt>
      <trkpt lat="45.40561" lon="5.90991">
        <ele>1480.465852191</ele>
        <time>2016-06-18T08:50:31Z</time>
      </trkpt>
      <trkpt lat="45.40564" lon="5.90998">
        <ele>1480.465852191</ele>
        <time>2016-06-18T08:50:37Z</time>
      </trkpt>
      <trkpt lat="45.40577" lon="5.91012">
        <ele>1480.762587127</ele>
        <time>2016-06-18T08:50:47Z</time>
      </trkpt>
      <trkpt lat="45.40581" lon="5.91013">
        <ele>1480.762587127</ele>
        <time>2016-06-18T08:50:51Z</time>
      </trkpt>
      <trkpt lat="45.40596" lon="5.91026">
        <ele>1479.868535661</ele>
        <time>2016-06-18T08:51:01Z</time>
      </trkpt>
      <trkpt lat="45.40601" lon="5.91033">
        <ele>1479.868535661</ele>
        <time>2016-06-18T08:51:07Z</time>
      </trkpt>
      <trkpt lat="45.40613" lon="5.91045">
        <ele>1479.619027939</ele>
        <time>2016-06-18T08:51:17Z</time>
      </trkpt>
      <trkpt lat="45.40613" lon="5.91057">
        <ele>1479.619027939</ele>
        <time>2016-06-18T08:51:22Z</time>
      </trkpt>
      <trkpt lat="45.4063" lon="5.91064">
        <ele>1479.550699422</ele>
        <time>2016-06-18T08:51:32Z</time>
      </trkpt>
      <trkpt lat="45.40629" lon="5.91076">
        <ele>1479.550699422</ele>
        <time>2016-06-18T08:51:37Z</time>
      </trkpt>
      <trkpt lat="45.40639" lon="5.91086">
        <ele>1479.665684025</ele>
        <time>2016-06-18T08:51:52Z</time>
      </trkpt>
      <trkpt lat="45.40646" lon="5.91078">
        <ele>1479.665684025</ele>
        <time>2016-06-18T08:52:07Z</time>
      </trkpt>
      <trkpt lat="45.40648" lon="5.91078">
        <ele>1480.253278254</ele>
        <time>2016-06-18T08:52:12Z</time>
      </trkpt>
      <trkpt lat="45.40654" lon="5.91093">
        <ele>1480.426890639</ele>
        <time>2016-06-18T08:52:22Z</time>
      </trkpt>
      <trkpt lat="45.40656" lon="5.91098">
        <ele>1480.426890639</ele>
        <time>2016-06-18T08:52:27Z</time>
      </trkpt>
      <trkpt lat="45.40659" lon="5.91113">
        <ele>1480.374594905</ele>
        <time>2016-06-18T08:52:38Z</time>
      </trkpt>
      <trkpt lat="45.40662" lon="5.91114">
        <ele>1480.374594905</ele>
        <time>2016-06-18T08:52:42Z</time>
      </trkpt>
      <trkpt lat="45.40663" lon="5.91125">
        <ele>1480.703192794</ele>
        <time>2016-06-18T08:52:52Z</time>
      </trkpt>
      <trkpt lat="45.40668" lon="5.91134">
        <ele>1480.703192794</ele>
        <time>2016-06-18T08:52:57Z</time>
      </trkpt>
      <trkpt lat="45.4067" lon="5.91151">
        <ele>1481.252845554</ele>
        <time>2016-06-18T08:53:07Z</time>
      </trkpt>
      <trkpt lat="45.40675" lon="5.91156">
        <ele>1481.252845554</ele>
        <time>2016-06-18T08:53:12Z</time>
      </trkpt>
      <trkpt lat="45.40685" lon="5.91167">
        <ele>1481.874400105</ele>
        <time>2016-06-18T08:53:22Z</time>
      </trkpt>
      <trkpt lat="45.40687" lon="5.91175">
        <ele>1481.874400105</ele>
        <time>2016-06-18T08:53:28Z</time>
      </trkpt>
      <trkpt lat="45.40693" lon="5.91188">
        <ele>1481.708459453</ele>
        <time>2016-06-18T08:53:37Z</time>
      </trkpt>
      <trkpt lat="45.40697" lon="5.91194">
        <ele>1481.708459453</ele>
        <time>2016-06-18T08:53:42Z</time>
      </trkpt>
      <trkpt lat="45.40705" lon="5.91207">
        <ele>1482.410431447</ele>
        <time>2016-06-18T08:53:52Z</time>
      </trkpt>
      <trkpt lat="45.40704" lon="5.91213">
        <ele>1482.410431447</ele>
        <time>2016-06-18T08:53:57Z</time>
      </trkpt>
      <trkpt lat="45.40711" lon="5.91226">
        <ele>1483.205452782</ele>
        <time>2016-06-18T08:54:07Z</time>
      </trkpt>
      <trkpt lat="45.40719" lon="5.91228">
        <ele>1483.205452782</ele>
        <time>2016-06-18T08:54:12Z</time>
      </trkpt>
      <trkpt lat="45.40719" lon="5.91233">
        <ele>1484.239558072</ele>
        <time>2016-06-18T08:54:16Z</time>
      </trkpt>
      <trkpt lat="45.40724" lon="5.91241">
        <ele>1484.239558072</ele>
        <time>2016-06-18T08:54:27Z</time>
      </trkpt>
      <trkpt lat="45.40727" lon="5.91244">
        <ele>1485.791067304</ele>
        <time>2016-06-18T08:54:31Z</time>
      </trkpt>
      <trkpt lat="45.40728" lon="5.91264">
        <ele>1487.251316857</ele>
        <time>2016-06-18T08:54:42Z</time>
      </trkpt>
      <trkpt lat="45.40729" lon="5.91267">
        <ele>1487.251316857</ele>
        <time>2016-06-18T08:54:46Z</time>
      </trkpt>
      <trkpt lat="45.40735" lon="5.91278">
        <ele>1488.632652223</ele>
        <time>2016-06-18T08:54:57Z</time>
      </trkpt>
      <trkpt lat="45.40739" lon="5.91285">
        <ele>1488.632652223</ele>
        <time>2016-06-18T08:55:02Z</time>
      </trkpt>
      <trkpt lat="45.40746" lon="5.91303">
        <ele>1489.946340629</ele>
        <time>2016-06-18T08:55:17Z</time>
      </trkpt>
      <trkpt lat="45.40747" lon="5.91308">
        <ele>1489.946340629</ele>
        <time>2016-06-18T08:55:21Z</time>
      </trkpt>
      <trkpt lat="45.40755" lon="5.91321">
        <ele>1492.211413038</ele>
        <time>2016-06-18T08:55:32Z</time>
      </trkpt>
      <trkpt lat="45.40759" lon="5.91326">
        <ele>1492.211413038</ele>
        <time>2016-06-18T08:55:37Z</time>
      </trkpt>
      <trkpt lat="45.4077" lon="5.91332">
        <ele>1494.063230636</ele>
        <time>2016-06-18T08:55:47Z</time>
      </trkpt>
      <trkpt lat="45.40776" lon="5.91332">
        <ele>1494.063230636</ele>
        <time>2016-06-18T08:55:52Z</time>
      </trkpt>
      <trkpt lat="45.40783" lon="5.91346">
        <ele>1496.111661488</ele>
        <time>2016-06-18T08:56:02Z</time>
      </trkpt>
      <trkpt lat="45.40783" lon="5.91353">
        <ele>1496.111661488</ele>
        <time>2016-06-18T08:56:07Z</time>
      </trkpt>
      <trkpt lat="45.40783" lon="5.91365">
        <ele>1498.344448934</ele>
        <time>2016-06-18T08:56:17Z</time>
      </trkpt>
      <trkpt lat="45.40789" lon="5.91374">
        <ele>1498.344448934</ele>
        <time>2016-06-18T08:56:23Z</time>
      </trkpt>
      <trkpt lat="45.40793" lon="5.9138">
        <ele>1500.605299888</ele>
        <time>2016-06-18T08:56:32Z</time>
      </trkpt>
      <trkpt lat="45.40798" lon="5.91384">
        <ele>1500.605299888</ele>
        <time>2016-06-18T08:56:37Z</time>
      </trkpt>
      <trkpt lat="45.40803" lon="5.91392">
        <ele>1502.46081083</ele>
        <time>2016-06-18T08:56:47Z</time>
      </trkpt>
      <trkpt lat="45.40808" lon="5.91396">
        <ele>1502.46081083</ele>
        <time>2016-06-18T08:56:52Z</time>
      </trkpt>
      <trkpt lat="45.40817" lon="5.91413">
        <ele>1505.095504571</ele>
        <time>2016-06-18T08:57:07Z</time>
      </trkpt>
      <trkpt lat="45.40815" lon="5.91422">
        <ele>1505.095504571</ele>
        <time>2016-06-18T08:57:12Z</time>
      </trkpt>
      <trkpt lat="45.40819" lon="5.91433">
        <ele>1507.731005183</ele>
        <time>2016-06-18T08:57:22Z</time>
      </trkpt>
      <trkpt lat="45.40823" lon="5.91438">
        <ele>1507.731005183</ele>
        <time>2016-06-18T08:57:27Z</time>
      </trkpt>
      <trkpt lat="45.40833" lon="5.91449">
        <ele>1511.231104482</ele>
        <time>2016-06-18T08:57:37Z</time>
      </trkpt>
      <trkpt lat="45.40838" lon="5.91453">
        <ele>1511.231104482</ele>
        <time>2016-06-18T08:57:42Z</time>
      </trkpt>
      <trkpt lat="45.40846" lon="5.91465">
        <ele>1514.664170052</ele>
        <time>2016-06-18T08:57:52Z</time>
      </trkpt>
      <trkpt lat="45.40846" lon="5.91474">
        <ele>1514.664170052</ele>
        <time>2016-06-18T08:57:57Z</time>
      </trkpt>
      <trkpt lat="45.40847" lon="5.91486">
        <ele>1517.887563085</ele>
        <time>2016-06-18T08:58:07Z</time>
      </trkpt>
      <trkpt lat="45.40847" lon="5.9149">
        <ele>1517.887563085</ele>
        <time>2016-06-18T08:58:12Z</time>
      </trkpt>
      <trkpt lat="45.40856" lon="5.91498">
        <ele>1521.634214888</ele>
        <time>2016-06-18T08:58:22Z</time>
      </trkpt>
      <trkpt lat="45.40855" lon="5.91505">
        <ele>1521.634214888</ele>
        <time>2016-06-18T08:58:27Z</time>
      </trkpt>
      <trkpt lat="45.40862" lon="5.91513">
        <ele>1524.852273058</ele>
        <time>2016-06-18T08:58:38Z</time>
      </trkpt>
      <trkpt lat="45.40859" lon="5.9152">
        <ele>1524.852273058</ele>
        <time>2016-06-18T08:58:42Z</time>
      </trkpt>
      <trkpt lat="45.40865" lon="5.91528">
        <ele>1527.721406874</ele>
        <time>2016-06-18T08:58:53Z</time>
      </trkpt>
      <trkpt lat="45.4087" lon="5.91529">
        <ele>1527.721406874</ele>
        <time>2016-06-18T08:58:57Z</time>
      </trkpt>
      <trkpt lat="45.40876" lon="5.91528">
        <ele>1530.553076851</ele>
        <time>2016-06-18T08:59:07Z</time>
      </trkpt>
      <trkpt lat="45.40875" lon="5.91532">
        <ele>1530.553076851</ele>
        <time>2016-06-18T08:59:12Z</time>
      </trkpt>
      <trkpt lat="45.40871" lon="5.91537">
        <ele>1530.553076851</ele>
        <time>2016-06-18T08:59:22Z</time>
      </trkpt>
      <trkpt lat="45.4087" lon="5.91545">
        <ele>1534.644666075</ele>
        <time>2016-06-18T08:59:27Z</time>
      </trkpt>
      <trkpt lat="45.4088" lon="5.91566">
        <ele>1538.744763246</ele>
        <time>2016-06-18T08:59:42Z</time>
      </trkpt>
      <trkpt lat="45.40884" lon="5.91568">
        <ele>1538.744763246</ele>
        <time>2016-06-18T08:59:47Z</time>
      </trkpt>
      <trkpt lat="45.40894" lon="5.9157">
        <ele>1543.423152207</ele>
        <time>2016-06-18T08:59:57Z</time>
      </trkpt>
      <trkpt lat="45.40896" lon="5.91575">
        <ele>1543.423152207</ele>
        <time>2016-06-18T09:00:02Z</time>
      </trkpt>
      <trkpt lat="45.40901" lon="5.91585">
        <ele>1547.76500308</ele>
        <time>2016-06-18T09:00:12Z</time>
      </trkpt>
      <trkpt lat="45.40902" lon="5.91588">
        <ele>1547.76500308</ele>
        <time>2016-06-18T09:00:17Z</time>
      </trkpt>
      <trkpt lat="45.40907" lon="5.916">
        <ele>1551.7882991</ele>
        <time>2016-06-18T09:00:26Z</time>
      </trkpt>
      <trkpt lat="45.40909" lon="5.91605">
        <ele>1551.7882991</ele>
        <time>2016-06-18T09:00:32Z</time>
      </trkpt>
      <trkpt lat="45.40913" lon="5.91614">
        <ele>1556.08706011</ele>
        <time>2016-06-18T09:00:42Z</time>
      </trkpt>
      <trkpt lat="45.40918" lon="5.91617">
        <ele>1556.08706011</ele>
        <time>2016-06-18T09:00:47Z</time>
      </trkpt>
      <trkpt lat="45.40927" lon="5.91628">
        <ele>1560.202155149</ele>
        <time>2016-06-18T09:00:57Z</time>
      </trkpt>
      <trkpt lat="45.40931" lon="5.91637">
        <ele>1560.202155149</ele>
        <time>2016-06-18T09:01:02Z</time>
      </trkpt>
      <trkpt lat="45.40935" lon="5.91652">
        <ele>1563.996971125</ele>
        <time>2016-06-18T09:01:12Z</time>
      </trkpt>
      <trkpt lat="45.4094" lon="5.91657">
        <ele>1563.996971125</ele>
        <time>2016-06-18T09:01:17Z</time>
      </trkpt>
      <trkpt lat="45.40945" lon="5.91664">
        <ele>1567.922340198</ele>
        <time>2016-06-18T09:01:22Z</time>
      </trkpt>
      <trkpt lat="45.4095" lon="5.91678">
        <ele>1571.675131886</ele>
        <time>2016-06-18T09:01:32Z</time>
      </trkpt>
      <trkpt lat="45.40953" lon="5.91684">
        <ele>1571.675131886</ele>
        <time>2016-06-18T09:01:37Z</time>
      </trkpt>
      <trkpt lat="45.40957" lon="5.91698">
        <ele>1575.695611811</ele>
        <time>2016-06-18T09:01:47Z</time>
      </trkpt>
      <trkpt lat="45.40956" lon="5.91708">
        <ele>1575.695611811</ele>
        <time>2016-06-18T09:01:52Z</time>
      </trkpt>
      <trkpt lat="45.40965" lon="5.91713">
        <ele>1579.52638188</ele>
        <time>2016-06-18T09:02:02Z</time>
      </trkpt>
      <trkpt lat="45.40969" lon="5.91716">
        <ele>1579.52638188</ele>
        <time>2016-06-18T09:02:07Z</time>
      </trkpt>
      <trkpt lat="45.40972" lon="5.91731">
        <ele>1583.464837046</ele>
        <time>2016-06-18T09:02:18Z</time>
      </trkpt>
      <trkpt lat="45.40975" lon="5.91735">
        <ele>1583.464837046</ele>
        <time>2016-06-18T09:02:22Z</time>
      </trkpt>
      <trkpt lat="45.40977" lon="5.91739">
        <ele>1583.464837046</ele>
        <time>2016-06-18T09:02:26Z</time>
      </trkpt>
      <trkpt lat="45.4098" lon="5.91743">
        <ele>1587.930447253</ele>
        <time>2016-06-18T09:02:31Z</time>
      </trkpt>
      <trkpt lat="45.40984" lon="5.91746">
        <ele>1587.930447253</ele>
        <time>2016-06-18T09:02:36Z</time>
      </trkpt>
      <trkpt lat="45.40991" lon="5.91755">
        <ele>1591.581173589</ele>
        <time>2016-06-18T09:02:47Z</time>
      </trkpt>
      <trkpt lat="45.40994" lon="5.91765">
        <ele>1591.581173589</ele>
        <time>2016-06-18T09:02:52Z</time>
      </trkpt>
      <trkpt lat="45.40994" lon="5.9178">
        <ele>1595.193530371</ele>
        <time>2016-06-18T09:03:02Z</time>
      </trkpt>
      <trkpt lat="45.41" lon="5.91783">
        <ele>1595.193530371</ele>
        <time>2016-06-18T09:03:08Z</time>
      </trkpt>
      <trkpt lat="45.41009" lon="5.91794">
        <ele>1598.766669595</ele>
        <time>2016-06-18T09:03:17Z</time>
      </trkpt>
      <trkpt lat="45.41011" lon="5.91801">
        <ele>1598.766669595</ele>
        <time>2016-06-18T09:03:22Z</time>
      </trkpt>
      <trkpt lat="45.41019" lon="5.91818">
        <ele>1602.444157949</ele>
        <time>2016-06-18T09:03:37Z</time>
      </trkpt>
      <trkpt lat="45.41024" lon="5.91827">
        <ele>1602.444157949</ele>
        <time>2016-06-18T09:03:42Z</time>
      </trkpt>
      <trkpt lat="45.41029" lon="5.9184">
        <ele>1604.917740847</ele>
        <time>2016-06-18T09:03:52Z</time>
      </trkpt>
      <trkpt lat="45.41033" lon="5.91843">
        <ele>1604.917740847</ele>
        <time>2016-06-18T09:03:57Z</time>
      </trkpt>
      <trkpt lat="45.41043" lon="5.91855">
        <ele>1607.140439382</ele>
        <time>2016-06-18T09:04:08Z</time>
      </trkpt>
      <trkpt lat="45.41045" lon="5.9186">
        <ele>1607.140439382</ele>
        <time>2016-06-18T09:04:12Z</time>
      </trkpt>
      <trkpt lat="45.41057" lon="5.91877">
        <ele>1609.275533955</ele>
        <time>2016-06-18T09:04:27Z</time>
      </trkpt>
      <trkpt lat="45.4106" lon="5.91885">
        <ele>1609.275533955</ele>
        <time>2016-06-18T09:04:32Z</time>
      </trkpt>
      <trkpt lat="45.41062" lon="5.91895">
        <ele>1611.61877862</ele>
        <time>2016-06-18T09:04:42Z</time>
      </trkpt>
      <trkpt lat="45.41067" lon="5.91899">
        <ele>1611.61877862</ele>
        <time>2016-06-18T09:04:47Z</time>
      </trkpt>
      <trkpt lat="45.41073" lon="5.91907">
        <ele>1613.867273294</ele>
        <time>2016-06-18T09:04:57Z</time>
      </trkpt>
      <trkpt lat="45.41078" lon="5.91912">
        <ele>1613.867273294</ele>
        <time>2016-06-18T09:05:02Z</time>
      </trkpt>
      <trkpt lat="45.41081" lon="5.91922">
        <ele>1616.173058393</ele>
        <time>2016-06-18T09:05:12Z</time>
      </trkpt>
      <trkpt lat="45.41085" lon="5.9193">
        <ele>1616.173058393</ele>
        <time>2016-06-18T09:05:17Z</time>
      </trkpt>
      <trkpt lat="45.4109" lon="5.91941">
        <ele>1618.965148646</ele>
        <time>2016-06-18T09:05:27Z</time>
      </trkpt>
      <trkpt lat="45.41092" lon="5.91943">
        <ele>1618.965148646</ele>
        <time>2016-06-18T09:05:31Z</time>
      </trkpt>
      <trkpt lat="45.41098" lon="5.91953">
        <ele>1621.77508628</ele>
        <time>2016-06-18T09:05:42Z</time>
      </trkpt>
      <trkpt lat="45.41101" lon="5.91959">
        <ele>1621.77508628</ele>
        <time>2016-06-18T09:05:49Z</time>
      </trkpt>
      <trkpt lat="45.41107" lon="5.91972">
        <ele>1624.168843353</ele>
        <time>2016-06-18T09:05:57Z</time>
      </trkpt>
      <trkpt lat="45.41112" lon="5.91974">
        <ele>1624.168843353</ele>
        <time>2016-06-18T09:06:02Z</time>
      </trkpt>
      <trkpt lat="45.41115" lon="5.91987">
        <ele>1626.754282734</ele>
        <time>2016-06-18T09:06:12Z</time>
      </trkpt>
      <trkpt lat="45.4112" lon="5.91992">
        <ele>1626.754282734</ele>
        <time>2016-06-18T09:06:17Z</time>
      </trkpt>
      <trkpt lat="45.41128" lon="5.92005">
        <ele>1630.094133881</ele>
        <time>2016-06-18T09:06:26Z</time>
      </trkpt>
      <trkpt lat="45.41132" lon="5.92009">
        <ele>1630.094133881</ele>
        <time>2016-06-18T09:06:33Z</time>
      </trkpt>
      <trkpt lat="45.41136" lon="5.92021">
        <ele>1632.690168734</ele>
        <time>2016-06-18T09:06:42Z</time>
      </trkpt>
      <trkpt lat="45.41141" lon="5.92025">
        <ele>1632.690168734</ele>
        <time>2016-06-18T09:06:47Z</time>
      </trkpt>
      <trkpt lat="45.41151" lon="5.92033">
        <ele>1635.750355853</ele>
        <time>2016-06-18T09:06:57Z</time>
      </trkpt>
      <trkpt lat="45.41155" lon="5.92039">
        <ele>1635.750355853</ele>
        <time>2016-06-18T09:07:02Z</time>
      </trkpt>
      <trkpt lat="45.41161" lon="5.92051">
        <ele>1638.519226926</ele>
        <time>2016-06-18T09:07:12Z</time>
      </trkpt>
      <trkpt lat="45.41164" lon="5.92056">
        <ele>1638.519226926</ele>
        <time>2016-06-18T09:07:16Z</time>
      </trkpt>
      <trkpt lat="45.41172" lon="5.92065">
        <ele>1641.738784202</ele>
        <time>2016-06-18T09:07:27Z</time>
      </trkpt>
      <trkpt lat="45.41175" lon="5.9207">
        <ele>1641.738784202</ele>
        <time>2016-06-18T09:07:32Z</time>
      </trkpt>
      <trkpt lat="45.41184" lon="5.92082">
        <ele>1645.230635505</ele>
        <time>2016-06-18T09:07:42Z</time>
      </trkpt>
      <trkpt lat="45.41186" lon="5.92087">
        <ele>1645.230635505</ele>
        <time>2016-06-18T09:07:47Z</time>
      </trkpt>
      <trkpt lat="45.41191" lon="5.92095">
        <ele>1648.252327778</ele>
        <time>2016-06-18T09:07:57Z</time>
      </trkpt>
      <trkpt lat="45.41194" lon="5.92099">
        <ele>1648.252327778</ele>
        <time>2016-06-18T09:08:02Z</time>
      </trkpt>
      <trkpt lat="45.41204" lon="5.9211">
        <ele>1651.702533216</ele>
        <time>2016-06-18T09:08:17Z</time>
      </trkpt>
      <trkpt lat="45.41205" lon="5.92115">
        <ele>1651.702533216</ele>
        <time>2016-06-18T09:08:22Z</time>
      </trkpt>
      <trkpt lat="45.41208" lon="5.92125">
        <ele>1654.251081006</ele>
        <time>2016-06-18T09:08:32Z</time>
      </trkpt>
      <trkpt lat="45.41214" lon="5.92129">
        <ele>1654.251081006</ele>
        <time>2016-06-18T09:08:37Z</time>
      </trkpt>
      <trkpt lat="45.4122" lon="5.92137">
        <ele>1657.262086008</ele>
        <time>2016-06-18T09:08:46Z</time>
      </trkpt>
      <trkpt lat="45.4122" lon="5.92137">
        <ele>1657.262086008</ele>
        <time>2016-06-18T09:08:51Z</time>
      </trkpt>
      <trkpt lat="45.41224" lon="5.92142">
        <ele>1657.262086008</ele>
        <time>2016-06-18T09:08:57Z</time>
      </trkpt>
      <trkpt lat="45.4123" lon="5.92155">
        <ele>1660.268864341</ele>
        <time>2016-06-18T09:09:08Z</time>
      </trkpt>
      <trkpt lat="45.41233" lon="5.92158">
        <ele>1660.268864341</ele>
        <time>2016-06-18T09:09:12Z</time>
      </trkpt>
      <trkpt lat="45.41241" lon="5.92172">
        <ele>1663.271397269</ele>
        <time>2016-06-18T09:09:27Z</time>
      </trkpt>
      <trkpt lat="45.41244" lon="5.92179">
        <ele>1663.271397269</ele>
        <time>2016-06-18T09:09:32Z</time>
      </trkpt>
      <trkpt lat="45.41248" lon="5.92188">
        <ele>1665.981491465</ele>
        <time>2016-06-18T09:09:43Z</time>
      </trkpt>
      <trkpt lat="45.41251" lon="5.92194">
        <ele>1665.981491465</ele>
        <time>2016-06-18T09:09:47Z</time>
      </trkpt>
      <trkpt lat="45.41249" lon="5.92204">
        <ele>1668.997643839</ele>
        <time>2016-06-18T09:09:57Z</time>
      </trkpt>
      <trkpt lat="45.4125" lon="5.9221">
        <ele>1668.997643839</ele>
        <time>2016-06-18T09:10:02Z</time>
      </trkpt>
      <trkpt lat="45.41254" lon="5.92221">
        <ele>1672.585336226</ele>
        <time>2016-06-18T09:10:12Z</time>
      </trkpt>
      <trkpt lat="45.41256" lon="5.92227">
        <ele>1672.585336226</ele>
        <time>2016-06-18T09:10:17Z</time>
      </trkpt>
      <trkpt lat="45.4126" lon="5.92242">
        <ele>1675.836085667</ele>
        <time>2016-06-18T09:10:27Z</time>
      </trkpt>
      <trkpt lat="45.41262" lon="5.92248">
        <ele>1675.836085667</ele>
        <time>2016-06-18T09:10:32Z</time>
      </trkpt>
      <trkpt lat="45.4127" lon="5.92251">
        <ele>1679.206121682</ele>
        <time>2016-06-18T09:10:41Z</time>
      </trkpt>
      <trkpt lat="45.41274" lon="5.92254">
        <ele>1679.206121682</ele>
        <time>2016-06-18T09:10:46Z</time>
      </trkpt>
      <trkpt lat="45.41277" lon="5.92257">
        <ele>1679.206121682</ele>
        <time>2016-06-18T09:10:52Z</time>
      </trkpt>
      <trkpt lat="45.41281" lon="5.92263">
        <ele>1681.964965526</ele>
        <time>2016-06-18T09:10:57Z</time>
      </trkpt>
      <trkpt lat="45.41292" lon="5.92274">
        <ele>1684.013986468</ele>
        <time>2016-06-18T09:11:07Z</time>
      </trkpt>
      <trkpt lat="45.41295" lon="5.92281">
        <ele>1684.013986468</ele>
        <time>2016-06-18T09:11:12Z</time>
      </trkpt>
      <trkpt lat="45.41303" lon="5.92288">
        <ele>1685.552035858</ele>
        <time>2016-06-18T09:11:21Z</time>
      </trkpt>
      <trkpt lat="45.41308" lon="5.92293">
        <ele>1685.552035858</ele>
        <time>2016-06-18T09:11:27Z</time>
      </trkpt>
      <trkpt lat="45.41314" lon="5.92306">
        <ele>1687.629474055</ele>
        <time>2016-06-18T09:11:37Z</time>
      </trkpt>
      <trkpt lat="45.41318" lon="5.92314">
        <ele>1687.629474055</ele>
        <time>2016-06-18T09:11:42Z</time>
      </trkpt>
      <trkpt lat="45.41329" lon="5.92325">
        <ele>1688.768104859</ele>
        <time>2016-06-18T09:11:52Z</time>
      </trkpt>
      <trkpt lat="45.41333" lon="5.92332">
        <ele>1688.768104859</ele>
        <time>2016-06-18T09:11:57Z</time>
      </trkpt>
      <trkpt lat="45.41345" lon="5.92338">
        <ele>1690.050836465</ele>
        <time>2016-06-18T09:12:07Z</time>
      </trkpt>
      <trkpt lat="45.41348" lon="5.92342">
        <ele>1690.050836465</ele>
        <time>2016-06-18T09:12:12Z</time>
      </trkpt>
      <trkpt lat="45.41358" lon="5.92358">
        <ele>1692.336494789</ele>
        <time>2016-06-18T09:12:27Z</time>
      </trkpt>
      <trkpt lat="45.41361" lon="5.92365">
        <ele>1692.336494789</ele>
        <time>2016-06-18T09:12:32Z</time>
      </trkpt>
      <trkpt lat="45.41368" lon="5.92381">
        <ele>1694.54453182</ele>
        <time>2016-06-18T09:12:42Z</time>
      </trkpt>
      <trkpt lat="45.41371" lon="5.92386">
        <ele>1694.54453182</ele>
        <time>2016-06-18T09:12:47Z</time>
      </trkpt>
      <trkpt lat="45.41379" lon="5.924">
        <ele>1696.538626438</ele>
        <time>2016-06-18T09:12:57Z</time>
      </trkpt>
      <trkpt lat="45.41383" lon="5.92403">
        <ele>1696.538626438</ele>
        <time>2016-06-18T09:13:02Z</time>
      </trkpt>
      <trkpt lat="45.41395" lon="5.9241">
        <ele>1698.337142833</ele>
        <time>2016-06-18T09:13:12Z</time>
      </trkpt>
      <trkpt lat="45.41398" lon="5.92417">
        <ele>1698.337142833</ele>
        <time>2016-06-18T09:13:17Z</time>
      </trkpt>
      <trkpt lat="45.41407" lon="5.92423">
        <ele>1700.101711101</ele>
        <time>2016-06-18T09:13:27Z</time>
      </trkpt>
      <trkpt lat="45.41411" lon="5.92425">
        <ele>1700.101711101</ele>
        <time>2016-06-18T09:13:32Z</time>
      </trkpt>
      <trkpt lat="45.41424" lon="5.92427">
        <ele>1701.693910512</ele>
        <time>2016-06-18T09:13:42Z</time>
      </trkpt>
      <trkpt lat="45.41429" lon="5.92432">
        <ele>1701.693910512</ele>
        <time>2016-06-18T09:13:47Z</time>
      </trkpt>
      <trkpt lat="45.41428" lon="5.92444">
        <ele>1703.27413806</ele>
        <time>2016-06-18T09:13:57Z</time>
      </trkpt>
      <trkpt lat="45.41426" lon="5.92447">
        <ele>1703.27413806</ele>
        <time>2016-06-18T09:14:02Z</time>
      </trkpt>
      <trkpt lat="45.41422" lon="5.92457">
        <ele>1705.423313611</ele>
        <time>2016-06-18T09:14:13Z</time>
      </trkpt>
      <trkpt lat="45.41423" lon="5.9246">
        <ele>1705.423313611</ele>
        <time>2016-06-18T09:14:17Z</time>
      </trkpt>
      <trkpt lat="45.41428" lon="5.92472">
        <ele>1707.669243205</ele>
        <time>2016-06-18T09:14:27Z</time>
      </trkpt>
      <trkpt lat="45.41431" lon="5.92476">
        <ele>1707.669243205</ele>
        <time>2016-06-18T09:14:32Z</time>
      </trkpt>
      <trkpt lat="45.41433" lon="5.92481">
        <ele>1707.669243205</ele>
        <time>2016-06-18T09:14:37Z</time>
      </trkpt>
      <trkpt lat="45.41432" lon="5.92496">
        <ele>1710.150525645</ele>
        <time>2016-06-18T09:14:47Z</time>
      </trkpt>
      <trkpt lat="45.41434" lon="5.92511">
        <ele>1712.850739695</ele>
        <time>2016-06-18T09:15:02Z</time>
      </trkpt>
      <trkpt lat="45.41437" lon="5.92518">
        <ele>1712.850739695</ele>
        <time>2016-06-18T09:15:07Z</time>
      </trkpt>
      <trkpt lat="45.41444" lon="5.92528">
        <ele>1714.889323098</ele>
        <time>2016-06-18T09:15:17Z</time>
      </trkpt>
      <trkpt lat="45.41447" lon="5.92536">
        <ele>1714.889323098</ele>
        <time>2016-06-18T09:15:22Z</time>
      </trkpt>
      <trkpt lat="45.4145" lon="5.92547">
        <ele>1716.893302118</ele>
        <time>2016-06-18T09:15:32Z</time>
      </trkpt>
      <trkpt lat="45.41452" lon="5.92549">
        <ele>1716.893302118</ele>
        <time>2016-06-18T09:15:37Z</time>
      </trkpt>
      <trkpt lat="45.41461" lon="5.92554">
        <ele>1719.587787432</ele>
        <time>2016-06-18T09:15:47Z</time>
      </trkpt>
      <trkpt lat="45.41461" lon="5.92556">
        <ele>1719.587787432</ele>
        <time>2016-06-18T09:15:52Z</time>
      </trkpt>
      <trkpt lat="45.41465" lon="5.9257">
        <ele>1722.63384787</ele>
        <time>2016-06-18T09:16:02Z</time>
      </trkpt>
      <trkpt lat="45.41468" lon="5.92574">
        <ele>1722.63384787</ele>
        <time>2016-06-18T09:16:07Z</time>
      </trkpt>
      <trkpt lat="45.41478" lon="5.92585">
        <ele>1726.148740975</ele>
        <time>2016-06-18T09:16:22Z</time>
      </trkpt>
      <trkpt lat="45.41479" lon="5.92592">
        <ele>1726.148740975</ele>
        <time>2016-06-18T09:16:27Z</time>
      </trkpt>
      <trkpt lat="45.41488" lon="5.92595">
        <ele>1729.519189834</ele>
        <time>2016-06-18T09:16:37Z</time>
      </trkpt>
      <trkpt lat="45.41492" lon="5.926">
        <ele>1729.519189834</ele>
        <time>2016-06-18T09:16:42Z</time>
      </trkpt>
      <trkpt lat="45.415" lon="5.92609">
        <ele>1732.897888363</ele>
        <time>2016-06-18T09:16:52Z</time>
      </trkpt>
      <trkpt lat="45.41502" lon="5.92617">
        <ele>1732.897888363</ele>
        <time>2016-06-18T09:16:57Z</time>
      </trkpt>
      <trkpt lat="45.41508" lon="5.92621">
        <ele>1736.426258759</ele>
        <time>2016-06-18T09:17:07Z</time>
      </trkpt>
      <trkpt lat="45.41511" lon="5.9262">
        <ele>1736.426258759</ele>
        <time>2016-06-18T09:17:12Z</time>
      </trkpt>
      <trkpt lat="45.41513" lon="5.92622">
        <ele>1736.426258759</ele>
        <time>2016-06-18T09:17:22Z</time>
      </trkpt>
      <trkpt lat="45.41514" lon="5.92627">
        <ele>1740.379004042</ele>
        <time>2016-06-18T09:17:27Z</time>
      </trkpt>
      <trkpt lat="45.41517" lon="5.92634">
        <ele>1740.379004042</ele>
        <time>2016-06-18T09:17:37Z</time>
      </trkpt>
      <trkpt lat="45.41517" lon="5.9264">
        <ele>1744.721223965</ele>
        <time>2016-06-18T09:17:42Z</time>
      </trkpt>
      <trkpt lat="45.4152" lon="5.92652">
        <ele>1748.410710907</ele>
        <time>2016-06-18T09:17:52Z</time>
      </trkpt>
      <trkpt lat="45.41521" lon="5.92658">
        <ele>1748.410710907</ele>
        <time>2016-06-18T09:17:57Z</time>
      </trkpt>
      <trkpt lat="45.41524" lon="5.92672">
        <ele>1751.204212943</ele>
        <time>2016-06-18T09:18:07Z</time>
      </trkpt>
      <trkpt lat="45.41527" lon="5.92675">
        <ele>1751.204212943</ele>
        <time>2016-06-18T09:18:12Z</time>
      </trkpt>
      <trkpt lat="45.41533" lon="5.92679">
        <ele>1754.031766226</ele>
        <time>2016-06-18T09:18:22Z</time>
      </trkpt>
      <trkpt lat="45.41537" lon="5.92683">
        <ele>1754.031766226</ele>
        <time>2016-06-18T09:18:27Z</time>
      </trkpt>
      <trkpt lat="45.41544" lon="5.92689">
        <ele>1757.034456168</ele>
        <time>2016-06-18T09:18:42Z</time>
      </trkpt>
      <trkpt lat="45.41545" lon="5.92691">
        <ele>1757.034456168</ele>
        <time>2016-06-18T09:18:47Z</time>
      </trkpt>
      <trkpt lat="45.41553" lon="5.92702">
        <ele>1759.91020129</ele>
        <time>2016-06-18T09:18:57Z</time>
      </trkpt>
      <trkpt lat="45.41558" lon="5.92704">
        <ele>1759.91020129</ele>
        <time>2016-06-18T09:19:02Z</time>
      </trkpt>
      <trkpt lat="45.41564" lon="5.92709">
        <ele>1763.100045618</ele>
        <time>2016-06-18T09:19:12Z</time>
      </trkpt>
      <trkpt lat="45.41567" lon="5.92716">
        <ele>1763.100045618</ele>
        <time>2016-06-18T09:19:18Z</time>
      </trkpt>
      <trkpt lat="45.41572" lon="5.92724">
        <ele>1766.579444303</ele>
        <time>2016-06-18T09:19:27Z</time>
      </trkpt>
      <trkpt lat="45.41576" lon="5.92725">
        <ele>1766.579444303</ele>
        <time>2016-06-18T09:19:32Z</time>
      </trkpt>
      <trkpt lat="45.41585" lon="5.92727">
        <ele>1770.468982333</ele>
        <time>2016-06-18T09:19:42Z</time>
      </trkpt>
      <trkpt lat="45.41586" lon="5.9273">
        <ele>1770.468982333</ele>
        <time>2016-06-18T09:19:46Z</time>
      </trkpt>
      <trkpt lat="45.41597" lon="5.92738">
        <ele>1775.023380822</ele>
        <time>2016-06-18T09:20:02Z</time>
      </trkpt>
      <trkpt lat="45.41601" lon="5.92739">
        <ele>1775.023380822</ele>
        <time>2016-06-18T09:20:06Z</time>
      </trkpt>
      <trkpt lat="45.4161" lon="5.9275">
        <ele>1779.179824449</ele>
        <time>2016-06-18T09:20:17Z</time>
      </trkpt>
      <trkpt lat="45.41612" lon="5.92754">
        <ele>1779.179824449</ele>
        <time>2016-06-18T09:20:22Z</time>
      </trkpt>
      <trkpt lat="45.41631" lon="5.9276">
        <ele>1783.684072118</ele>
        <time>2016-06-18T09:20:37Z</time>
      </trkpt>
      <trkpt lat="45.41634" lon="5.92761">
        <ele>1783.684072118</ele>
        <time>2016-06-18T09:20:42Z</time>
      </trkpt>
      <trkpt lat="45.41644" lon="5.9277">
        <ele>1787.640960189</ele>
        <time>2016-06-18T09:20:52Z</time>
      </trkpt>
      <trkpt lat="45.41653" lon="5.92771">
        <ele>1787.640960189</ele>
        <time>2016-06-18T09:20:57Z</time>
      </trkpt>
      <trkpt lat="45.41663" lon="5.92777">
        <ele>1790.655017732</ele>
        <time>2016-06-18T09:21:06Z</time>
      </trkpt>
      <trkpt lat="45.41667" lon="5.9278">
        <ele>1790.655017732</ele>
        <time>2016-06-18T09:21:11Z</time>
      </trkpt>
      <trkpt lat="45.41672" lon="5.92784">
        <ele>1793.083093714</ele>
        <time>2016-06-18T09:21:17Z</time>
      </trkpt>
      <trkpt lat="45.41675" lon="5.92788">
        <ele>1793.083093714</ele>
        <time>2016-06-18T09:21:21Z</time>
      </trkpt>
      <trkpt lat="45.41678" lon="5.92794">
        <ele>1795.401644914</ele>
        <time>2016-06-18T09:21:26Z</time>
      </trkpt>
      <trkpt lat="45.4168" lon="5.92801">
        <ele>1795.401644914</ele>
        <time>2016-06-18T09:21:32Z</time>
      </trkpt>
      <trkpt lat="45.41681" lon="5.92816">
        <ele>1798.340719816</ele>
        <time>2016-06-18T09:21:42Z</time>
      </trkpt>
      <trkpt lat="45.4168" lon="5.92831">
        <ele>1800.989830174</ele>
        <time>2016-06-18T09:21:47Z</time>
      </trkpt>
      <trkpt lat="45.41682" lon="5.92851">
        <ele>1802.650343992</ele>
        <time>2016-06-18T09:21:57Z</time>
      </trkpt>
      <trkpt lat="45.41687" lon="5.92857">
        <ele>1802.650343992</ele>
        <time>2016-06-18T09:22:02Z</time>
      </trkpt>
      <trkpt lat="45.41694" lon="5.9287">
        <ele>1803.254205772</ele>
        <time>2016-06-18T09:22:13Z</time>
      </trkpt>
      <trkpt lat="45.417" lon="5.92873">
        <ele>1803.254205772</ele>
        <time>2016-06-18T09:22:17Z</time>
      </trkpt>
      <trkpt lat="45.41702" lon="5.92875">
        <ele>1803.750126176</ele>
        <time>2016-06-18T09:22:27Z</time>
      </trkpt>
      <trkpt lat="45.41703" lon="5.92875">
        <ele>1803.750126176</ele>
        <time>2016-06-18T09:22:32Z</time>
      </trkpt>
      <trkpt lat="45.41712" lon="5.92883">
        <ele>1803.864544653</ele>
        <time>2016-06-18T09:22:42Z</time>
      </trkpt>
      <trkpt lat="45.41714" lon="5.92886">
        <ele>1803.864544653</ele>
        <time>2016-06-18T09:22:47Z</time>
      </trkpt>
      <trkpt lat="45.41717" lon="5.92903">
        <ele>1803.633274961</ele>
        <time>2016-06-18T09:22:58Z</time>
      </trkpt>
      <trkpt lat="45.41717" lon="5.92904">
        <ele>1803.633274961</ele>
        <time>2016-06-18T09:23:01Z</time>
      </trkpt>
      <trkpt lat="45.41718" lon="5.92908">
        <ele>1803.633274961</ele>
        <time>2016-06-18T09:23:07Z</time>
      </trkpt>
      <trkpt lat="45.4172" lon="5.92921">
        <ele>1803.23454463</ele>
        <time>2016-06-18T09:23:12Z</time>
      </trkpt>
      <trkpt lat="45.4172" lon="5.92921">
        <ele>1803.23454463</ele>
        <time>2016-06-18T09:23:16Z</time>
      </trkpt>
      <trkpt lat="45.41719" lon="5.92921">
        <ele>1803.23454463</ele>
        <time>2016-06-18T09:23:21Z</time>
      </trkpt>
      <trkpt lat="45.41719" lon="5.92922">
        <ele>1803.23454463</ele>
        <time>2016-06-18T09:23:26Z</time>
      </trkpt>
      <trkpt lat="45.41722" lon="5.92928">
        <ele>1803.23454463</ele>
        <time>2016-06-18T09:23:36Z</time>
      </trkpt>
      <trkpt lat="45.41722" lon="5.92928">
        <ele>1803.23454463</ele>
        <time>2016-06-18T09:23:41Z</time>
      </trkpt>
      <trkpt lat="45.41732" lon="5.92937">
        <ele>1802.545676881</ele>
        <time>2016-06-18T09:23:51Z</time>
      </trkpt>
      <trkpt lat="45.41738" lon="5.92933">
        <ele>1802.545676881</ele>
        <time>2016-06-18T09:23:56Z</time>
      </trkpt>
      <trkpt lat="45.41742" lon="5.92933">
        <ele>1802.318406174</ele>
        <time>2016-06-18T09:24:06Z</time>
      </trkpt>
      <trkpt lat="45.41744" lon="5.92932">
        <ele>1802.318406174</ele>
        <time>2016-06-18T09:24:11Z</time>
      </trkpt>
      <trkpt lat="45.41749" lon="5.92927">
        <ele>1802.318406174</ele>
        <time>2016-06-18T09:24:26Z</time>
      </trkpt>
      <trkpt lat="45.41751" lon="5.92926">
        <ele>1801.950846876</ele>
        <time>2016-06-18T09:24:31Z</time>
      </trkpt>
      <trkpt lat="45.41751" lon="5.92926">
        <ele>1801.950846876</ele>
        <time>2016-06-18T09:24:41Z</time>
      </trkpt>
      <trkpt lat="45.41751" lon="5.92926">
        <ele>1801.950846876</ele>
        <time>2016-06-18T09:24:46Z</time>
      </trkpt>
      <trkpt lat="45.4175" lon="5.92929">
        <ele>1801.950846876</ele>
        <time>2016-06-18T09:24:56Z</time>
      </trkpt>
      <trkpt lat="45.41751" lon="5.92929">
        <ele>1801.950846876</ele>
        <time>2016-06-18T09:25:01Z</time>
      </trkpt>
      <trkpt lat="45.41753" lon="5.92929">
        <ele>1801.950846876</ele>
        <time>2016-06-18T09:25:11Z</time>
      </trkpt>
      <trkpt lat="45.41755" lon="5.92931">
        <ele>1801.950846876</ele>
        <time>2016-06-18T09:25:16Z</time>
      </trkpt>
      <trkpt lat="45.41757" lon="5.92928">
        <ele>1801.462043436</ele>
        <time>2016-06-18T09:25:26Z</time>
      </trkpt>
      <trkpt lat="45.41757" lon="5.92927">
        <ele>1801.462043436</ele>
        <time>2016-06-18T09:25:31Z</time>
      </trkpt>
      <trkpt lat="45.41757" lon="5.92927">
        <ele>1801.462043436</ele>
        <time>2016-06-18T09:25:41Z</time>
      </trkpt>
      <trkpt lat="45.41757" lon="5.92927">
        <ele>1801.462043436</ele>
        <time>2016-06-18T09:25:46Z</time>
      </trkpt>
      <trkpt lat="45.41757" lon="5.92927">
        <ele>1801.462043436</ele>
        <time>2016-06-18T09:25:51Z</time>
      </trkpt>
      <trkpt lat="45.41757" lon="5.92927">
        <ele>1801.462043436</ele>
        <time>2016-06-18T09:25:56Z</time>
      </trkpt>
      <trkpt lat="45.41757" lon="5.92927">
        <ele>1801.462043436</ele>
        <time>2016-06-18T09:26:01Z</time>
      </trkpt>
      <trkpt lat="45.41757" lon="5.92927">
        <ele>1801.462043436</ele>
        <time>2016-06-18T09:26:11Z</time>
      </trkpt>
      <trkpt lat="45.41757" lon="5.92927">
        <ele>1801.462043436</ele>
        <time>2016-06-18T09:26:16Z</time>
      </trkpt>
      <trkpt lat="45.41757" lon="5.92927">
        <ele>1801.462043436</ele>
        <time>2016-06-18T09:26:21Z</time>
      </trkpt>
      <trkpt lat="45.41757" lon="5.92927">
        <ele>1801.462043436</ele>
        <time>2016-06-18T09:26:26Z</time>
      </trkpt>
      <trkpt lat="45.41757" lon="5.92927">
        <ele>1801.462043436</ele>
        <time>2016-06-18T09:26:32Z</time>
      </trkpt>
      <trkpt lat="45.41756" lon="5.92924">
        <ele>1801.462043436</ele>
        <time>2016-06-18T09:26:42Z</time>
      </trkpt>
      <trkpt lat="45.41755" lon="5.92925">
        <ele>1801.462043436</ele>
        <time>2016-06-18T09:26:47Z</time>
      </trkpt>
      <trkpt lat="45.41755" lon="5.92925">
        <ele>1801.462043436</ele>
        <time>2016-06-18T09:26:51Z</time>
      </trkpt>
      <trkpt lat="45.41755" lon="5.92927">
        <ele>1801.462043436</ele>
        <time>2016-06-18T09:27:02Z</time>
      </trkpt>
      <trkpt lat="45.41755" lon="5.92926">
        <ele>1801.462043436</ele>
        <time>2016-06-18T09:27:07Z</time>
      </trkpt>
      <trkpt lat="45.41749" lon="5.92931">
        <ele>1800.869841306</ele>
        <time>2016-06-18T09:27:16Z</time>
      </trkpt>
      <trkpt lat="45.41748" lon="5.9293">
        <ele>1800.869841306</ele>
        <time>2016-06-18T09:27:22Z</time>
      </trkpt>
      <trkpt lat="45.41736" lon="5.9293">
        <ele>1800.335020139</ele>
        <time>2016-06-18T09:27:32Z</time>
      </trkpt>
      <trkpt lat="45.41729" lon="5.92933">
        <ele>1800.335020139</ele>
        <time>2016-06-18T09:27:37Z</time>
      </trkpt>
      <trkpt lat="45.41729" lon="5.92935">
        <ele>1800.335020139</ele>
        <time>2016-06-18T09:27:47Z</time>
      </trkpt>
      <trkpt lat="45.41729" lon="5.92934">
        <ele>1800.335020139</ele>
        <time>2016-06-18T09:27:52Z</time>
      </trkpt>
      <trkpt lat="45.41729" lon="5.92934">
        <ele>1800.335020139</ele>
        <time>2016-06-18T09:28:02Z</time>
      </trkpt>
      <trkpt lat="45.41729" lon="5.92934">
        <ele>1800.335020139</ele>
        <time>2016-06-18T09:28:07Z</time>
      </trkpt>
      <trkpt lat="45.41729" lon="5.92935">
        <ele>1800.335020139</ele>
        <time>2016-06-18T09:28:17Z</time>
      </trkpt>
      <trkpt lat="45.41729" lon="5.92935">
        <ele>1800.335020139</ele>
        <time>2016-06-18T09:28:22Z</time>
      </trkpt>
      <trkpt lat="45.41726" lon="5.92945">
        <ele>1798.70921446</ele>
        <time>2016-06-18T09:28:32Z</time>
      </trkpt>
      <trkpt lat="45.41723" lon="5.92948">
        <ele>1798.70921446</ele>
        <time>2016-06-18T09:28:37Z</time>
      </trkpt>
      <trkpt lat="45.41722" lon="5.92963">
        <ele>1797.525289799</ele>
        <time>2016-06-18T09:28:47Z</time>
      </trkpt>
      <trkpt lat="45.4172" lon="5.9297">
        <ele>1797.525289799</ele>
        <time>2016-06-18T09:28:52Z</time>
      </trkpt>
      <trkpt lat="45.41718" lon="5.92973">
        <ele>1797.525289799</ele>
        <time>2016-06-18T09:29:02Z</time>
      </trkpt>
      <trkpt lat="45.41718" lon="5.92973">
        <ele>1796.616841736</ele>
        <time>2016-06-18T09:29:07Z</time>
      </trkpt>
      <trkpt lat="45.41715" lon="5.92979">
        <ele>1796.616841736</ele>
        <time>2016-06-18T09:29:17Z</time>
      </trkpt>
      <trkpt lat="45.41714" lon="5.92979">
        <ele>1796.616841736</ele>
        <time>2016-06-18T09:29:22Z</time>
      </trkpt>
      <trkpt lat="45.41715" lon="5.9298">
        <ele>1796.616841736</ele>
        <time>2016-06-18T09:29:27Z</time>
      </trkpt>
      <trkpt lat="45.41715" lon="5.9298">
        <ele>1796.616841736</ele>
        <time>2016-06-18T09:29:32Z</time>
      </trkpt>
      <trkpt lat="45.41715" lon="5.9298">
        <ele>1796.616841736</ele>
        <time>2016-06-18T09:29:37Z</time>
      </trkpt>
      <trkpt lat="45.41714" lon="5.92976">
        <ele>1795.9728102</ele>
        <time>2016-06-18T09:29:52Z</time>
      </trkpt>
      <trkpt lat="45.4171" lon="5.92973">
        <ele>1795.9728102</ele>
        <time>2016-06-18T09:29:57Z</time>
      </trkpt>
      <trkpt lat="45.41708" lon="5.92974">
        <ele>1795.9728102</ele>
        <time>2016-06-18T09:30:07Z</time>
      </trkpt>
      <trkpt lat="45.41708" lon="5.92974">
        <ele>1795.9728102</ele>
        <time>2016-06-18T09:30:12Z</time>
      </trkpt>
      <trkpt lat="45.41708" lon="5.92974">
        <ele>1795.9728102</ele>
        <time>2016-06-18T09:30:22Z</time>
      </trkpt>
      <trkpt lat="45.41708" lon="5.92974">
        <ele>1795.9728102</ele>
        <time>2016-06-18T09:30:27Z</time>
      </trkpt>
      <trkpt lat="45.41708" lon="5.92974">
        <ele>1795.9728102</ele>
        <time>2016-06-18T09:30:38Z</time>
      </trkpt>
      <trkpt lat="45.41706" lon="5.92975">
        <ele>1795.9728102</ele>
        <time>2016-06-18T09:30:42Z</time>
      </trkpt>
      <trkpt lat="45.41705" lon="5.92974">
        <ele>1794.284973646</ele>
        <time>2016-06-18T09:30:52Z</time>
      </trkpt>
      <trkpt lat="45.41705" lon="5.92974">
        <ele>1794.284973646</ele>
        <time>2016-06-18T09:30:57Z</time>
      </trkpt>
      <trkpt lat="45.41704" lon="5.92973">
        <ele>1794.284973646</ele>
        <time>2016-06-18T09:31:07Z</time>
      </trkpt>
      <trkpt lat="45.41698" lon="5.92966">
        <ele>1793.082009605</ele>
        <time>2016-06-18T09:31:12Z</time>
      </trkpt>
      <trkpt lat="45.41695" lon="5.9296">
        <ele>1793.082009605</ele>
        <time>2016-06-18T09:31:22Z</time>
      </trkpt>
      <trkpt lat="45.41693" lon="5.9296">
        <ele>1793.082009605</ele>
        <time>2016-06-18T09:31:27Z</time>
      </trkpt>
      <trkpt lat="45.41694" lon="5.9296">
        <ele>1793.082009605</ele>
        <time>2016-06-18T09:31:37Z</time>
      </trkpt>
      <trkpt lat="45.41694" lon="5.9296">
        <ele>1793.082009605</ele>
        <time>2016-06-18T09:31:42Z</time>
      </trkpt>
      <trkpt lat="45.41694" lon="5.9296">
        <ele>1793.082009605</ele>
        <time>2016-06-18T09:31:47Z</time>
      </trkpt>
      <trkpt lat="45.41687" lon="5.92954">
        <ele>1790.752350894</ele>
        <time>2016-06-18T09:31:57Z</time>
      </trkpt>
      <trkpt lat="45.41688" lon="5.92953">
        <ele>1790.752350894</ele>
        <time>2016-06-18T09:32:02Z</time>
      </trkpt>
      <trkpt lat="45.41684" lon="5.92949">
        <ele>1790.752350894</ele>
        <time>2016-06-18T09:32:12Z</time>
      </trkpt>
      <trkpt lat="45.41683" lon="5.92945">
        <ele>1788.399710176</ele>
        <time>2016-06-18T09:32:17Z</time>
      </trkpt>
      <trkpt lat="45.4168" lon="5.92939">
        <ele>1788.399710176</ele>
        <time>2016-06-18T09:32:26Z</time>
      </trkpt>
      <trkpt lat="45.41679" lon="5.92937">
        <ele>1788.399710176</ele>
        <time>2016-06-18T09:32:32Z</time>
      </trkpt>
      <trkpt lat="45.41676" lon="5.92933">
        <ele>1787.478842403</ele>
        <time>2016-06-18T09:32:41Z</time>
      </trkpt>
      <trkpt lat="45.41673" lon="5.92933">
        <ele>1787.478842403</ele>
        <time>2016-06-18T09:32:46Z</time>
      </trkpt>
      <trkpt lat="45.41667" lon="5.92932">
        <ele>1787.478842403</ele>
        <time>2016-06-18T09:32:57Z</time>
      </trkpt>
      <trkpt lat="45.41665" lon="5.92936">
        <ele>1788.468670268</ele>
        <time>2016-06-18T09:33:02Z</time>
      </trkpt>
      <trkpt lat="45.41663" lon="5.92942">
        <ele>1788.468670268</ele>
        <time>2016-06-18T09:33:12Z</time>
      </trkpt>
      <trkpt lat="45.41662" lon="5.92947">
        <ele>1788.468670268</ele>
        <time>2016-06-18T09:33:17Z</time>
      </trkpt>
      <trkpt lat="45.41662" lon="5.92947">
        <ele>1790.077958383</ele>
        <time>2016-06-18T09:33:22Z</time>
      </trkpt>
      <trkpt lat="45.41662" lon="5.92948">
        <ele>1790.077958383</ele>
        <time>2016-06-18T09:33:26Z</time>
      </trkpt>
      <trkpt lat="45.41662" lon="5.92948">
        <ele>1790.077958383</ele>
        <time>2016-06-18T09:33:31Z</time>
      </trkpt>
      <trkpt lat="45.41662" lon="5.92948">
        <ele>1790.077958383</ele>
        <time>2016-06-18T09:33:36Z</time>
      </trkpt>
      <trkpt lat="45.41662" lon="5.92948">
        <ele>1790.077958383</ele>
        <time>2016-06-18T09:33:41Z</time>
      </trkpt>
      <trkpt lat="45.41662" lon="5.92948">
        <ele>1790.077958383</ele>
        <time>2016-06-18T09:33:46Z</time>
      </trkpt>
      <trkpt lat="45.41662" lon="5.92948">
        <ele>1790.077958383</ele>
        <time>2016-06-18T09:33:51Z</time>
      </trkpt>
      <trkpt lat="45.41662" lon="5.92948">
        <ele>1790.077958383</ele>
        <time>2016-06-18T09:34:01Z</time>
      </trkpt>
      <trkpt lat="45.41662" lon="5.92948">
        <ele>1790.077958383</ele>
        <time>2016-06-18T09:34:07Z</time>
      </trkpt>
      <trkpt lat="45.4166" lon="5.92941">
        <ele>1790.077958383</ele>
        <time>2016-06-18T09:34:16Z</time>
      </trkpt>
      <trkpt lat="45.41654" lon="5.92935">
        <ele>1791.684758027</ele>
        <time>2016-06-18T09:34:22Z</time>
      </trkpt>
      <trkpt lat="45.41648" lon="5.92927">
        <ele>1791.684758027</ele>
        <time>2016-06-18T09:34:32Z</time>
      </trkpt>
      <trkpt lat="45.4164" lon="5.92917">
        <ele>1793.14489125</ele>
        <time>2016-06-18T09:34:37Z</time>
      </trkpt>
      <trkpt lat="45.41633" lon="5.92906">
        <ele>1794.469055129</ele>
        <time>2016-06-18T09:34:46Z</time>
      </trkpt>
      <trkpt lat="45.41632" lon="5.92896">
        <ele>1794.469055129</ele>
        <time>2016-06-18T09:34:52Z</time>
      </trkpt>
      <trkpt lat="45.41626" lon="5.92883">
        <ele>1796.243767529</ele>
        <time>2016-06-18T09:35:02Z</time>
      </trkpt>
      <trkpt lat="45.41624" lon="5.92875">
        <ele>1796.243767529</ele>
        <time>2016-06-18T09:35:06Z</time>
      </trkpt>
      <trkpt lat="45.41621" lon="5.92868">
        <ele>1798.146329375</ele>
        <time>2016-06-18T09:35:12Z</time>
      </trkpt>
      <trkpt lat="45.41619" lon="5.92866">
        <ele>1798.146329375</ele>
        <time>2016-06-18T09:35:16Z</time>
      </trkpt>
      <trkpt lat="45.41619" lon="5.92866">
        <ele>1798.146329375</ele>
        <time>2016-06-18T09:35:21Z</time>
      </trkpt>
      <trkpt lat="45.41608" lon="5.92867">
        <ele>1799.877205712</ele>
        <time>2016-06-18T09:35:32Z</time>
      </trkpt>
      <trkpt lat="45.41605" lon="5.92864">
        <ele>1799.877205712</ele>
        <time>2016-06-18T09:35:37Z</time>
      </trkpt>
      <trkpt lat="45.41597" lon="5.92864">
        <ele>1800.870958912</ele>
        <time>2016-06-18T09:35:52Z</time>
      </trkpt>
      <trkpt lat="45.41587" lon="5.92862">
        <ele>1801.614383629</ele>
        <time>2016-06-18T09:35:57Z</time>
      </trkpt>
      <trkpt lat="45.41575" lon="5.92864">
        <ele>1801.406188139</ele>
        <time>2016-06-18T09:36:07Z</time>
      </trkpt>
      <trkpt lat="45.4157" lon="5.92862">
        <ele>1801.406188139</ele>
        <time>2016-06-18T09:36:12Z</time>
      </trkpt>
      <trkpt lat="45.41556" lon="5.92864">
        <ele>1800.607911176</ele>
        <time>2016-06-18T09:36:22Z</time>
      </trkpt>
      <trkpt lat="45.41556" lon="5.92863">
        <ele>1800.607911176</ele>
        <time>2016-06-18T09:36:27Z</time>
      </trkpt>
      <trkpt lat="45.41547" lon="5.92859">
        <ele>1799.844278628</ele>
        <time>2016-06-18T09:36:37Z</time>
      </trkpt>
      <trkpt lat="45.41545" lon="5.92862">
        <ele>1799.844278628</ele>
        <time>2016-06-18T09:36:42Z</time>
      </trkpt>
      <trkpt lat="45.41539" lon="5.92859">
        <ele>1797.676334834</ele>
        <time>2016-06-18T09:36:52Z</time>
      </trkpt>
      <trkpt lat="45.41537" lon="5.92858">
        <ele>1797.676334834</ele>
        <time>2016-06-18T09:36:58Z</time>
      </trkpt>
      <trkpt lat="45.41528" lon="5.92861">
        <ele>1795.224514291</ele>
        <time>2016-06-18T09:37:07Z</time>
      </trkpt>
      <trkpt lat="45.41525" lon="5.92863">
        <ele>1795.224514291</ele>
        <time>2016-06-18T09:37:12Z</time>
      </trkpt>
      <trkpt lat="45.41523" lon="5.92866">
        <ele>1795.224514291</ele>
        <time>2016-06-18T09:37:23Z</time>
      </trkpt>
      <trkpt lat="45.4152" lon="5.92865">
        <ele>1795.224514291</ele>
        <time>2016-06-18T09:37:27Z</time>
      </trkpt>
      <trkpt lat="45.41512" lon="5.9287">
        <ele>1792.230584989</ele>
        <time>2016-06-18T09:37:37Z</time>
      </trkpt>
      <trkpt lat="45.41511" lon="5.92869">
        <ele>1792.230584989</ele>
        <time>2016-06-18T09:37:42Z</time>
      </trkpt>
      <trkpt lat="45.41502" lon="5.92874">
        <ele>1789.321301931</ele>
        <time>2016-06-18T09:37:52Z</time>
      </trkpt>
      <trkpt lat="45.41497" lon="5.92876">
        <ele>1789.321301931</ele>
        <time>2016-06-18T09:37:57Z</time>
      </trkpt>
      <trkpt lat="45.41492" lon="5.92881">
        <ele>1785.635841981</ele>
        <time>2016-06-18T09:38:07Z</time>
      </trkpt>
      <trkpt lat="45.41491" lon="5.92879">
        <ele>1785.635841981</ele>
        <time>2016-06-18T09:38:12Z</time>
      </trkpt>
      <trkpt lat="45.41485" lon="5.92879">
        <ele>1785.635841981</ele>
        <time>2016-06-18T09:38:23Z</time>
      </trkpt>
      <trkpt lat="45.41483" lon="5.92878">
        <ele>1781.675588966</ele>
        <time>2016-06-18T09:38:26Z</time>
      </trkpt>
      <trkpt lat="45.41478" lon="5.9287">
        <ele>1781.675588966</ele>
        <time>2016-06-18T09:38:42Z</time>
      </trkpt>
      <trkpt lat="45.41476" lon="5.92868">
        <ele>1778.049752455</ele>
        <time>2016-06-18T09:38:46Z</time>
      </trkpt>
      <trkpt lat="45.41475" lon="5.92868">
        <ele>1778.049752455</ele>
        <time>2016-06-18T09:38:51Z</time>
      </trkpt>
      <trkpt lat="45.41474" lon="5.92867">
        <ele>1778.049752455</ele>
        <time>2016-06-18T09:38:57Z</time>
      </trkpt>
      <trkpt lat="45.41469" lon="5.9286">
        <ele>1773.736384823</ele>
        <time>2016-06-18T09:39:07Z</time>
      </trkpt>
      <trkpt lat="45.41465" lon="5.92858">
        <ele>1773.736384823</ele>
        <time>2016-06-18T09:39:12Z</time>
      </trkpt>
      <trkpt lat="45.41465" lon="5.92858">
        <ele>1773.736384823</ele>
        <time>2016-06-18T09:39:25Z</time>
      </trkpt>
      <trkpt lat="45.41465" lon="5.92859">
        <ele>1773.736384823</ele>
        <time>2016-06-18T09:39:26Z</time>
      </trkpt>
      <trkpt lat="45.41456" lon="5.92857">
        <ele>1769.663721638</ele>
        <time>2016-06-18T09:39:37Z</time>
      </trkpt>
      <trkpt lat="45.41455" lon="5.92854">
        <ele>1769.663721638</ele>
        <time>2016-06-18T09:39:42Z</time>
      </trkpt>
      <trkpt lat="45.41451" lon="5.92843">
        <ele>1765.537966852</ele>
        <time>2016-06-18T09:39:52Z</time>
      </trkpt>
      <trkpt lat="45.41448" lon="5.92839">
        <ele>1765.537966852</ele>
        <time>2016-06-18T09:40:00Z</time>
      </trkpt>
      <trkpt lat="45.41444" lon="5.9282">
        <ele>1762.095540024</ele>
        <time>2016-06-18T09:40:07Z</time>
      </trkpt>
      <trkpt lat="45.4144" lon="5.92817">
        <ele>1762.095540024</ele>
        <time>2016-06-18T09:40:12Z</time>
      </trkpt>
      <trkpt lat="45.41438" lon="5.9282">
        <ele>1762.095540024</ele>
        <time>2016-06-18T09:40:21Z</time>
      </trkpt>
      <trkpt lat="45.41438" lon="5.92819">
        <ele>1762.095540024</ele>
        <time>2016-06-18T09:40:27Z</time>
      </trkpt>
      <trkpt lat="45.41438" lon="5.92819">
        <ele>1762.095540024</ele>
        <time>2016-06-18T09:40:38Z</time>
      </trkpt>
      <trkpt lat="45.41438" lon="5.9282">
        <ele>1762.095540024</ele>
        <time>2016-06-18T09:40:42Z</time>
      </trkpt>
      <trkpt lat="45.4144" lon="5.92821">
        <ele>1759.728320922</ele>
        <time>2016-06-18T09:40:52Z</time>
      </trkpt>
      <trkpt lat="45.41439" lon="5.92822">
        <ele>1759.728320922</ele>
        <time>2016-06-18T09:40:57Z</time>
      </trkpt>
      <trkpt lat="45.41438" lon="5.92816">
        <ele>1759.728320922</ele>
        <time>2016-06-18T09:41:07Z</time>
      </trkpt>
      <trkpt lat="45.41435" lon="5.92809">
        <ele>1756.634408205</ele>
        <time>2016-06-18T09:41:12Z</time>
      </trkpt>
      <trkpt lat="45.41425" lon="5.928">
        <ele>1753.595883035</ele>
        <time>2016-06-18T09:41:22Z</time>
      </trkpt>
      <trkpt lat="45.41422" lon="5.92799">
        <ele>1753.595883035</ele>
        <time>2016-06-18T09:41:27Z</time>
      </trkpt>
      <trkpt lat="45.4142" lon="5.92782">
        <ele>1750.616352056</ele>
        <time>2016-06-18T09:41:42Z</time>
      </trkpt>
      <trkpt lat="45.41419" lon="5.9278">
        <ele>1750.616352056</ele>
        <time>2016-06-18T09:41:47Z</time>
      </trkpt>
      <trkpt lat="45.41418" lon="5.92779">
        <ele>1750.616352056</ele>
        <time>2016-06-18T09:41:57Z</time>
      </trkpt>
      <trkpt lat="45.41417" lon="5.92776">
        <ele>1750.616352056</ele>
        <time>2016-06-18T09:42:02Z</time>
      </trkpt>
      <trkpt lat="45.41422" lon="5.92763">
        <ele>1748.419238127</ele>
        <time>2016-06-18T09:42:12Z</time>
      </trkpt>
      <trkpt lat="45.41418" lon="5.92758">
        <ele>1748.419238127</ele>
        <time>2016-06-18T09:42:17Z</time>
      </trkpt>
      <trkpt lat="45.4142" lon="5.92745">
        <ele>1746.951767164</ele>
        <time>2016-06-18T09:42:27Z</time>
      </trkpt>
      <trkpt lat="45.41417" lon="5.92742">
        <ele>1746.951767164</ele>
        <time>2016-06-18T09:42:32Z</time>
      </trkpt>
      <trkpt lat="45.41415" lon="5.9274">
        <ele>1746.951767164</ele>
        <time>2016-06-18T09:42:43Z</time>
      </trkpt>
      <trkpt lat="45.41415" lon="5.92736">
        <ele>1746.739146331</ele>
        <time>2016-06-18T09:42:47Z</time>
      </trkpt>
      <trkpt lat="45.41414" lon="5.92732">
        <ele>1746.739146331</ele>
        <time>2016-06-18T09:42:51Z</time>
      </trkpt>
      <trkpt lat="45.41413" lon="5.92733">
        <ele>1746.739146331</ele>
        <time>2016-06-18T09:42:56Z</time>
      </trkpt>
      <trkpt lat="45.41411" lon="5.92732">
        <ele>1746.739146331</ele>
        <time>2016-06-18T09:43:02Z</time>
      </trkpt>
      <trkpt lat="45.4141" lon="5.92721">
        <ele>1746.678980861</ele>
        <time>2016-06-18T09:43:12Z</time>
      </trkpt>
      <trkpt lat="45.4141" lon="5.92719">
        <ele>1746.678980861</ele>
        <time>2016-06-18T09:43:17Z</time>
      </trkpt>
      <trkpt lat="45.41408" lon="5.92715">
        <ele>1746.678980861</ele>
        <time>2016-06-18T09:43:32Z</time>
      </trkpt>
      <trkpt lat="45.41406" lon="5.92713">
        <ele>1746.678980861</ele>
        <time>2016-06-18T09:43:37Z</time>
      </trkpt>
      <trkpt lat="45.41401" lon="5.92703">
        <ele>1747.190285546</ele>
        <time>2016-06-18T09:43:47Z</time>
      </trkpt>
      <trkpt lat="45.41401" lon="5.92693">
        <ele>1747.190285546</ele>
        <time>2016-06-18T09:43:52Z</time>
      </trkpt>
      <trkpt lat="45.41402" lon="5.92683">
        <ele>1748.083017212</ele>
        <time>2016-06-18T09:43:57Z</time>
      </trkpt>
      <trkpt lat="45.41401" lon="5.9268">
        <ele>1748.083017212</ele>
        <time>2016-06-18T09:44:01Z</time>
      </trkpt>
      <trkpt lat="45.41401" lon="5.92681">
        <ele>1748.083017212</ele>
        <time>2016-06-18T09:44:06Z</time>
      </trkpt>
      <trkpt lat="45.414" lon="5.92681">
        <ele>1748.083017212</ele>
        <time>2016-06-18T09:44:11Z</time>
      </trkpt>
      <trkpt lat="45.41401" lon="5.92671">
        <ele>1749.179822428</ele>
        <time>2016-06-18T09:44:22Z</time>
      </trkpt>
      <trkpt lat="45.414" lon="5.92667">
        <ele>1749.179822428</ele>
        <time>2016-06-18T09:44:27Z</time>
      </trkpt>
      <trkpt lat="45.41395" lon="5.92655">
        <ele>1750.171521185</ele>
        <time>2016-06-18T09:44:37Z</time>
      </trkpt>
      <trkpt lat="45.4139" lon="5.92645">
        <ele>1750.171521185</ele>
        <time>2016-06-18T09:44:42Z</time>
      </trkpt>
      <trkpt lat="45.41382" lon="5.92641">
        <ele>1750.483575378</ele>
        <time>2016-06-18T09:44:57Z</time>
      </trkpt>
      <trkpt lat="45.41381" lon="5.92641">
        <ele>1750.483575378</ele>
        <time>2016-06-18T09:45:01Z</time>
      </trkpt>
      <trkpt lat="45.41378" lon="5.92636">
        <ele>1750.483575378</ele>
        <time>2016-06-18T09:45:12Z</time>
      </trkpt>
      <trkpt lat="45.41376" lon="5.92629">
        <ele>1751.026554472</ele>
        <time>2016-06-18T09:45:17Z</time>
      </trkpt>
      <trkpt lat="45.41366" lon="5.92611">
        <ele>1751.346397551</ele>
        <time>2016-06-18T09:45:27Z</time>
      </trkpt>
      <trkpt lat="45.41363" lon="5.9261">
        <ele>1751.346397551</ele>
        <time>2016-06-18T09:45:32Z</time>
      </trkpt>
      <trkpt lat="45.41354" lon="5.92607">
        <ele>1751.88762083</ele>
        <time>2016-06-18T09:45:42Z</time>
      </trkpt>
      <trkpt lat="45.41352" lon="5.92604">
        <ele>1751.88762083</ele>
        <time>2016-06-18T09:45:47Z</time>
      </trkpt>
      <trkpt lat="45.41353" lon="5.92603">
        <ele>1751.88762083</ele>
        <time>2016-06-18T09:45:57Z</time>
      </trkpt>
      <trkpt lat="45.41353" lon="5.92603">
        <ele>1751.88762083</ele>
        <time>2016-06-18T09:46:02Z</time>
      </trkpt>
      <trkpt lat="45.41352" lon="5.92595">
        <ele>1752.773192233</ele>
        <time>2016-06-18T09:46:12Z</time>
      </trkpt>
      <trkpt lat="45.41348" lon="5.92593">
        <ele>1752.773192233</ele>
        <time>2016-06-18T09:46:17Z</time>
      </trkpt>
      <trkpt lat="45.41339" lon="5.9259">
        <ele>1753.53960392</ele>
        <time>2016-06-18T09:46:27Z</time>
      </trkpt>
      <trkpt lat="45.41337" lon="5.92589">
        <ele>1753.53960392</ele>
        <time>2016-06-18T09:46:32Z</time>
      </trkpt>
      <trkpt lat="45.41322" lon="5.92578">
        <ele>1754.766496764</ele>
        <time>2016-06-18T09:46:42Z</time>
      </trkpt>
      <trkpt lat="45.41317" lon="5.92575">
        <ele>1754.766496764</ele>
        <time>2016-06-18T09:46:47Z</time>
      </trkpt>
      <trkpt lat="45.41305" lon="5.92565">
        <ele>1756.557313654</ele>
        <time>2016-06-18T09:46:57Z</time>
      </trkpt>
      <trkpt lat="45.41302" lon="5.92562">
        <ele>1756.557313654</ele>
        <time>2016-06-18T09:47:02Z</time>
      </trkpt>
      <trkpt lat="45.41293" lon="5.92565">
        <ele>1758.862234253</ele>
        <time>2016-06-18T09:47:12Z</time>
      </trkpt>
      <trkpt lat="45.41289" lon="5.92567">
        <ele>1758.862234253</ele>
        <time>2016-06-18T09:47:17Z</time>
      </trkpt>
      <trkpt lat="45.4128" lon="5.9257">
        <ele>1760.769039136</ele>
        <time>2016-06-18T09:47:27Z</time>
      </trkpt>
      <trkpt lat="45.41278" lon="5.92571">
        <ele>1760.769039136</ele>
        <time>2016-06-18T09:47:32Z</time>
      </trkpt>
      <trkpt lat="45.41266" lon="5.92577">
        <ele>1762.442486991</ele>
        <time>2016-06-18T09:47:47Z</time>
      </trkpt>
      <trkpt lat="45.41262" lon="5.92578">
        <ele>1762.442486991</ele>
        <time>2016-06-18T09:47:52Z</time>
      </trkpt>
      <trkpt lat="45.41255" lon="5.92583">
        <ele>1763.891868961</ele>
        <time>2016-06-18T09:48:02Z</time>
      </trkpt>
      <trkpt lat="45.41252" lon="5.92585">
        <ele>1763.891868961</ele>
        <time>2016-06-18T09:48:06Z</time>
      </trkpt>
      <trkpt lat="45.4125" lon="5.92587">
        <ele>1763.891868961</ele>
        <time>2016-06-18T09:48:11Z</time>
      </trkpt>
      <trkpt lat="45.41247" lon="5.92588">
        <ele>1765.414754135</ele>
        <time>2016-06-18T09:48:16Z</time>
      </trkpt>
      <trkpt lat="45.41247" lon="5.9259">
        <ele>1765.414754135</ele>
        <time>2016-06-18T09:48:21Z</time>
      </trkpt>
      <trkpt lat="45.41245" lon="5.92592">
        <ele>1765.414754135</ele>
        <time>2016-06-18T09:48:26Z</time>
      </trkpt>
      <trkpt lat="45.41246" lon="5.92592">
        <ele>1765.414754135</ele>
        <time>2016-06-18T09:48:31Z</time>
      </trkpt>
      <trkpt lat="45.41246" lon="5.92592">
        <ele>1765.414754135</ele>
        <time>2016-06-18T09:48:36Z</time>
      </trkpt>
      <trkpt lat="45.41243" lon="5.92592">
        <ele>1765.414754135</ele>
        <time>2016-06-18T09:48:41Z</time>
      </trkpt>
      <trkpt lat="45.41231" lon="5.92603">
        <ele>1767.719105042</ele>
        <time>2016-06-18T09:48:56Z</time>
      </trkpt>
      <trkpt lat="45.41227" lon="5.92607">
        <ele>1767.719105042</ele>
        <time>2016-06-18T09:49:01Z</time>
      </trkpt>
      <trkpt lat="45.41223" lon="5.92607">
        <ele>1767.719105042</ele>
        <time>2016-06-18T09:49:11Z</time>
      </trkpt>
      <trkpt lat="45.41218" lon="5.92609">
        <ele>1771.314716595</ele>
        <time>2016-06-18T09:49:16Z</time>
      </trkpt>
      <trkpt lat="45.41208" lon="5.92613">
        <ele>1775.229361683</ele>
        <time>2016-06-18T09:49:26Z</time>
      </trkpt>
      <trkpt lat="45.41202" lon="5.92617">
        <ele>1775.229361683</ele>
        <time>2016-06-18T09:49:31Z</time>
      </trkpt>
      <trkpt lat="45.41192" lon="5.92626">
        <ele>1779.137965087</ele>
        <time>2016-06-18T09:49:41Z</time>
      </trkpt>
      <trkpt lat="45.41189" lon="5.9263">
        <ele>1779.137965087</ele>
        <time>2016-06-18T09:49:46Z</time>
      </trkpt>
      <trkpt lat="45.41179" lon="5.92639">
        <ele>1783.027777453</ele>
        <time>2016-06-18T09:49:56Z</time>
      </trkpt>
      <trkpt lat="45.41174" lon="5.92642">
        <ele>1783.027777453</ele>
        <time>2016-06-18T09:50:01Z</time>
      </trkpt>
      <trkpt lat="45.41166" lon="5.92651">
        <ele>1786.743157671</ele>
        <time>2016-06-18T09:50:11Z</time>
      </trkpt>
      <trkpt lat="45.41165" lon="5.92655">
        <ele>1786.743157671</ele>
        <time>2016-06-18T09:50:16Z</time>
      </trkpt>
      <trkpt lat="45.41156" lon="5.92662">
        <ele>1790.861194991</ele>
        <time>2016-06-18T09:50:26Z</time>
      </trkpt>
      <trkpt lat="45.41152" lon="5.92666">
        <ele>1790.861194991</ele>
        <time>2016-06-18T09:50:31Z</time>
      </trkpt>
      <trkpt lat="45.41146" lon="5.92678">
        <ele>1795.195172358</ele>
        <time>2016-06-18T09:50:41Z</time>
      </trkpt>
      <trkpt lat="45.41142" lon="5.92676">
        <ele>1795.195172358</ele>
        <time>2016-06-18T09:50:46Z</time>
      </trkpt>
      <trkpt lat="45.41131" lon="5.92679">
        <ele>1799.42766171</ele>
        <time>2016-06-18T09:50:56Z</time>
      </trkpt>
      <trkpt lat="45.41126" lon="5.92683">
        <ele>1799.42766171</ele>
        <time>2016-06-18T09:51:01Z</time>
      </trkpt>
      <trkpt lat="45.41124" lon="5.92695">
        <ele>1803.265143588</ele>
        <time>2016-06-18T09:51:11Z</time>
      </trkpt>
      <trkpt lat="45.41126" lon="5.92697">
        <ele>1803.265143588</ele>
        <time>2016-06-18T09:51:16Z</time>
      </trkpt>
      <trkpt lat="45.41126" lon="5.92698">
        <ele>1803.265143588</ele>
        <time>2016-06-18T09:51:21Z</time>
      </trkpt>
      <trkpt lat="45.41126" lon="5.92698">
        <ele>1803.265143588</ele>
        <time>2016-06-18T09:51:26Z</time>
      </trkpt>
      <trkpt lat="45.41126" lon="5.92699">
        <ele>1803.265143588</ele>
        <time>2016-06-18T09:51:31Z</time>
      </trkpt>
      <trkpt lat="45.41126" lon="5.92699">
        <ele>1803.265143588</ele>
        <time>2016-06-18T09:51:36Z</time>
      </trkpt>
      <trkpt lat="45.41125" lon="5.92701">
        <ele>1803.265143588</ele>
        <time>2016-06-18T09:51:41Z</time>
      </trkpt>
      <trkpt lat="45.41115" lon="5.92714">
        <ele>1807.157644263</ele>
        <time>2016-06-18T09:51:56Z</time>
      </trkpt>
      <trkpt lat="45.41118" lon="5.92723">
        <ele>1807.157644263</ele>
        <time>2016-06-18T09:52:01Z</time>
      </trkpt>
      <trkpt lat="45.41117" lon="5.92727">
        <ele>1810.369417996</ele>
        <time>2016-06-18T09:52:08Z</time>
      </trkpt>
      <trkpt lat="45.41115" lon="5.9273">
        <ele>1810.369417996</ele>
        <time>2016-06-18T09:52:11Z</time>
      </trkpt>
      <trkpt lat="45.41112" lon="5.92735">
        <ele>1810.369417996</ele>
        <time>2016-06-18T09:52:16Z</time>
      </trkpt>
      <trkpt lat="45.41111" lon="5.92741">
        <ele>1812.941567992</ele>
        <time>2016-06-18T09:52:26Z</time>
      </trkpt>
      <trkpt lat="45.41112" lon="5.92748">
        <ele>1812.941567992</ele>
        <time>2016-06-18T09:52:31Z</time>
      </trkpt>
      <trkpt lat="45.4111" lon="5.92754">
        <ele>1815.346643159</ele>
        <time>2016-06-18T09:52:41Z</time>
      </trkpt>
      <trkpt lat="45.41111" lon="5.92755">
        <ele>1815.346643159</ele>
        <time>2016-06-18T09:52:46Z</time>
      </trkpt>
      <trkpt lat="45.41111" lon="5.92756">
        <ele>1815.346643159</ele>
        <time>2016-06-18T09:52:51Z</time>
      </trkpt>
      <trkpt lat="45.41111" lon="5.92756">
        <ele>1815.346643159</ele>
        <time>2016-06-18T09:52:56Z</time>
      </trkpt>
      <trkpt lat="45.41111" lon="5.92756">
        <ele>1815.346643159</ele>
        <time>2016-06-18T09:53:01Z</time>
      </trkpt>
      <trkpt lat="45.41111" lon="5.92752">
        <ele>1815.346643159</ele>
        <time>2016-06-18T09:53:06Z</time>
      </trkpt>
      <trkpt lat="45.41111" lon="5.9275">
        <ele>1815.346643159</ele>
        <time>2016-06-18T09:53:11Z</time>
      </trkpt>
      <trkpt lat="45.41111" lon="5.9275">
        <ele>1815.346643159</ele>
        <time>2016-06-18T09:53:16Z</time>
      </trkpt>
      <trkpt lat="45.41117" lon="5.92745">
        <ele>1817.014503097</ele>
        <time>2016-06-18T09:53:21Z</time>
      </trkpt>
      <trkpt lat="45.41116" lon="5.9274">
        <ele>1817.014503097</ele>
        <time>2016-06-18T09:53:26Z</time>
      </trkpt>
      <trkpt lat="45.41116" lon="5.92729">
        <ele>1818.716283383</ele>
        <time>2016-06-18T09:53:39Z</time>
      </trkpt>
      <trkpt lat="45.41116" lon="5.92724">
        <ele>1818.716283383</ele>
        <time>2016-06-18T09:53:41Z</time>
      </trkpt>
      <trkpt lat="45.41114" lon="5.9272">
        <ele>1818.716283383</ele>
        <time>2016-06-18T09:53:46Z</time>
      </trkpt>
      <trkpt lat="45.41112" lon="5.92712">
        <ele>1820.734358339</ele>
        <time>2016-06-18T09:53:51Z</time>
      </trkpt>
      <trkpt lat="45.41105" lon="5.92688">
        <ele>1822.753329873</ele>
        <time>2016-06-18T09:54:06Z</time>
      </trkpt>
      <trkpt lat="45.41101" lon="5.92679">
        <ele>1822.753329873</ele>
        <time>2016-06-18T09:54:12Z</time>
      </trkpt>
      <trkpt lat="45.411" lon="5.92665">
        <ele>1824.625367592</ele>
        <time>2016-06-18T09:54:21Z</time>
      </trkpt>
      <trkpt lat="45.41098" lon="5.92657">
        <ele>1824.625367592</ele>
        <time>2016-06-18T09:54:26Z</time>
      </trkpt>
      <trkpt lat="45.41098" lon="5.92657">
        <ele>1824.625367592</ele>
        <time>2016-06-18T09:54:31Z</time>
      </trkpt>
      <trkpt lat="45.41095" lon="5.92654">
        <ele>1826.214190486</ele>
        <time>2016-06-18T09:54:36Z</time>
      </trkpt>
      <trkpt lat="45.41092" lon="5.92631">
        <ele>1828.115144607</ele>
        <time>2016-06-18T09:54:51Z</time>
      </trkpt>
      <trkpt lat="45.41092" lon="5.92623">
        <ele>1828.115144607</ele>
        <time>2016-06-18T09:54:56Z</time>
      </trkpt>
      <trkpt lat="45.4109" lon="5.92606">
        <ele>1829.582218589</ele>
        <time>2016-06-18T09:55:06Z</time>
      </trkpt>
      <trkpt lat="45.41089" lon="5.926">
        <ele>1829.582218589</ele>
        <time>2016-06-18T09:55:11Z</time>
      </trkpt>
      <trkpt lat="45.41094" lon="5.92586">
        <ele>1831.222659453</ele>
        <time>2016-06-18T09:55:21Z</time>
      </trkpt>
      <trkpt lat="45.41095" lon="5.92585">
        <ele>1831.222659453</ele>
        <time>2016-06-18T09:55:26Z</time>
      </trkpt>
      <trkpt lat="45.41096" lon="5.92584">
        <ele>1831.222659453</ele>
        <time>2016-06-18T09:55:31Z</time>
      </trkpt>
      <trkpt lat="45.41096" lon="5.92579">
        <ele>1831.222659453</ele>
        <time>2016-06-18T09:55:36Z</time>
      </trkpt>
      <trkpt lat="45.41096" lon="5.92576">
        <ele>1831.222659453</ele>
        <time>2016-06-18T09:55:41Z</time>
      </trkpt>
      <trkpt lat="45.41096" lon="5.92572">
        <ele>1832.878289793</ele>
        <time>2016-06-18T09:55:46Z</time>
      </trkpt>
      <trkpt lat="45.41096" lon="5.92564">
        <ele>1832.878289793</ele>
        <time>2016-06-18T09:55:52Z</time>
      </trkpt>
      <trkpt lat="45.41097" lon="5.92548">
        <ele>1834.546833029</ele>
        <time>2016-06-18T09:56:01Z</time>
      </trkpt>
      <trkpt lat="45.411" lon="5.9254">
        <ele>1834.546833029</ele>
        <time>2016-06-18T09:56:06Z</time>
      </trkpt>
      <trkpt lat="45.41105" lon="5.92524">
        <ele>1835.938120476</ele>
        <time>2016-06-18T09:56:16Z</time>
      </trkpt>
      <trkpt lat="45.41108" lon="5.92518">
        <ele>1835.938120476</ele>
        <time>2016-06-18T09:56:21Z</time>
      </trkpt>
      <trkpt lat="45.41107" lon="5.92513">
        <ele>1835.938120476</ele>
        <time>2016-06-18T09:56:26Z</time>
      </trkpt>
      <trkpt lat="45.41106" lon="5.92511">
        <ele>1837.360707709</ele>
        <time>2016-06-18T09:56:31Z</time>
      </trkpt>
      <trkpt lat="45.41106" lon="5.92512">
        <ele>1837.360707709</ele>
        <time>2016-06-18T09:56:36Z</time>
      </trkpt>
      <trkpt lat="45.41106" lon="5.92512">
        <ele>1837.360707709</ele>
        <time>2016-06-18T09:56:46Z</time>
      </trkpt>
      <trkpt lat="45.41106" lon="5.92511">
        <ele>1837.360707709</ele>
        <time>2016-06-18T09:56:51Z</time>
      </trkpt>
      <trkpt lat="45.41106" lon="5.92511">
        <ele>1837.360707709</ele>
        <time>2016-06-18T09:57:01Z</time>
      </trkpt>
      <trkpt lat="45.41106" lon="5.92511">
        <ele>1837.360707709</ele>
        <time>2016-06-18T09:57:06Z</time>
      </trkpt>
      <trkpt lat="45.41106" lon="5.92511">
        <ele>1837.360707709</ele>
        <time>2016-06-18T09:57:16Z</time>
      </trkpt>
      <trkpt lat="45.41106" lon="5.92511">
        <ele>1837.360707709</ele>
        <time>2016-06-18T09:57:21Z</time>
      </trkpt>
      <trkpt lat="45.41106" lon="5.92511">
        <ele>1837.360707709</ele>
        <time>2016-06-18T09:57:31Z</time>
      </trkpt>
      <trkpt lat="45.41106" lon="5.92511">
        <ele>1837.360707709</ele>
        <time>2016-06-18T09:57:36Z</time>
      </trkpt>
      <trkpt lat="45.41106" lon="5.92512">
        <ele>1837.360707709</ele>
        <time>2016-06-18T09:57:46Z</time>
      </trkpt>
      <trkpt lat="45.41106" lon="5.92512">
        <ele>1837.360707709</ele>
        <time>2016-06-18T09:57:51Z</time>
      </trkpt>
      <trkpt lat="45.41106" lon="5.92512">
        <ele>1837.360707709</ele>
        <time>2016-06-18T09:57:56Z</time>
      </trkpt>
      <trkpt lat="45.41106" lon="5.92512">
        <ele>1837.360707709</ele>
        <time>2016-06-18T09:58:01Z</time>
      </trkpt>
      <trkpt lat="45.41108" lon="5.92507">
        <ele>1837.360707709</ele>
        <time>2016-06-18T09:58:06Z</time>
      </trkpt>
      <trkpt lat="45.4111" lon="5.92503">
        <ele>1837.360707709</ele>
        <time>2016-06-18T09:58:11Z</time>
      </trkpt>
      <trkpt lat="45.4111" lon="5.92504">
        <ele>1837.360707709</ele>
        <time>2016-06-18T09:58:16Z</time>
      </trkpt>
      <trkpt lat="45.4111" lon="5.92503">
        <ele>1837.360707709</ele>
        <time>2016-06-18T09:58:26Z</time>
      </trkpt>
      <trkpt lat="45.4111" lon="5.92504">
        <ele>1837.360707709</ele>
        <time>2016-06-18T09:58:31Z</time>
      </trkpt>
      <trkpt lat="45.41109" lon="5.92504">
        <ele>1838.524124162</ele>
        <time>2016-06-18T09:58:41Z</time>
      </trkpt>
      <trkpt lat="45.41107" lon="5.92503">
        <ele>1838.524124162</ele>
        <time>2016-06-18T09:58:46Z</time>
      </trkpt>
      <trkpt lat="45.41106" lon="5.92501">
        <ele>1838.524124162</ele>
        <time>2016-06-18T09:58:56Z</time>
      </trkpt>
      <trkpt lat="45.41105" lon="5.925">
        <ele>1838.524124162</ele>
        <time>2016-06-18T09:59:01Z</time>
      </trkpt>
      <trkpt lat="45.41106" lon="5.925">
        <ele>1838.524124162</ele>
        <time>2016-06-18T09:59:11Z</time>
      </trkpt>
      <trkpt lat="45.41106" lon="5.925">
        <ele>1838.524124162</ele>
        <time>2016-06-18T09:59:16Z</time>
      </trkpt>
      <trkpt lat="45.41105" lon="5.92499">
        <ele>1838.524124162</ele>
        <time>2016-06-18T09:59:31Z</time>
      </trkpt>
      <trkpt lat="45.41106" lon="5.92498">
        <ele>1838.524124162</ele>
        <time>2016-06-18T09:59:36Z</time>
      </trkpt>
      <trkpt lat="45.41104" lon="5.92498">
        <ele>1839.448344837</ele>
        <time>2016-06-18T09:59:46Z</time>
      </trkpt>
      <trkpt lat="45.41104" lon="5.92498">
        <ele>1839.448344837</ele>
        <time>2016-06-18T09:59:51Z</time>
      </trkpt>
      <trkpt lat="45.41102" lon="5.92498">
        <ele>1839.448344837</ele>
        <time>2016-06-18T10:00:01Z</time>
      </trkpt>
      <trkpt lat="45.41102" lon="5.92498">
        <ele>1839.448344837</ele>
        <time>2016-06-18T10:00:06Z</time>
      </trkpt>
      <trkpt lat="45.41102" lon="5.92497">
        <ele>1839.448344837</ele>
        <time>2016-06-18T10:00:16Z</time>
      </trkpt>
      <trkpt lat="45.41102" lon="5.92497">
        <ele>1839.448344837</ele>
        <time>2016-06-18T10:00:21Z</time>
      </trkpt>
      <trkpt lat="45.41101" lon="5.92496">
        <ele>1839.448344837</ele>
        <time>2016-06-18T10:00:31Z</time>
      </trkpt>
      <trkpt lat="45.41101" lon="5.92496">
        <ele>1839.448344837</ele>
        <time>2016-06-18T10:00:36Z</time>
      </trkpt>
      <trkpt lat="45.41101" lon="5.92496">
        <ele>1839.448344837</ele>
        <time>2016-06-18T10:00:46Z</time>
      </trkpt>
      <trkpt lat="45.41101" lon="5.92496">
        <ele>1839.448344837</ele>
        <time>2016-06-18T10:00:51Z</time>
      </trkpt>
      <trkpt lat="45.41101" lon="5.92496">
        <ele>1839.448344837</ele>
        <time>2016-06-18T10:01:01Z</time>
      </trkpt>
      <trkpt lat="45.41101" lon="5.92496">
        <ele>1839.448344837</ele>
        <time>2016-06-18T10:01:06Z</time>
      </trkpt>
      <trkpt lat="45.41101" lon="5.92496">
        <ele>1839.448344837</ele>
        <time>2016-06-18T10:01:21Z</time>
      </trkpt>
      <trkpt lat="45.41101" lon="5.92496">
        <ele>1839.448344837</ele>
        <time>2016-06-18T10:01:26Z</time>
      </trkpt>
      <trkpt lat="45.41101" lon="5.92496">
        <ele>1839.448344837</ele>
        <time>2016-06-18T10:01:36Z</time>
      </trkpt>
      <trkpt lat="45.41101" lon="5.92496">
        <ele>1839.448344837</ele>
        <time>2016-06-18T10:01:41Z</time>
      </trkpt>
      <trkpt lat="45.41101" lon="5.92496">
        <ele>1839.448344837</ele>
        <time>2016-06-18T10:01:51Z</time>
      </trkpt>
      <trkpt lat="45.41101" lon="5.92496">
        <ele>1839.448344837</ele>
        <time>2016-06-18T10:01:56Z</time>
      </trkpt>
      <trkpt lat="45.41101" lon="5.92496">
        <ele>1839.448344837</ele>
        <time>2016-06-18T10:02:06Z</time>
      </trkpt>
      <trkpt lat="45.41102" lon="5.92496">
        <ele>1839.448344837</ele>
        <time>2016-06-18T10:02:11Z</time>
      </trkpt>
      <trkpt lat="45.41102" lon="5.92497">
        <ele>1839.448344837</ele>
        <time>2016-06-18T10:02:21Z</time>
      </trkpt>
      <trkpt lat="45.41103" lon="5.92496">
        <ele>1839.448344837</ele>
        <time>2016-06-18T10:02:26Z</time>
      </trkpt>
      <trkpt lat="45.41105" lon="5.92496">
        <ele>1840.008580163</ele>
        <time>2016-06-18T10:02:41Z</time>
      </trkpt>
      <trkpt lat="45.41105" lon="5.92495">
        <ele>1840.008580163</ele>
        <time>2016-06-18T10:02:46Z</time>
      </trkpt>
      <trkpt lat="45.41105" lon="5.92495">
        <ele>1840.008580163</ele>
        <time>2016-06-18T10:02:56Z</time>
      </trkpt>
      <trkpt lat="45.41111" lon="5.92495">
        <ele>1840.008580163</ele>
        <time>2016-06-18T10:03:01Z</time>
      </trkpt>
      <trkpt lat="45.41112" lon="5.92489">
        <ele>1840.378577389</ele>
        <time>2016-06-18T10:03:06Z</time>
      </trkpt>
      <trkpt lat="45.4111" lon="5.92472">
        <ele>1840.719963004</ele>
        <time>2016-06-18T10:03:16Z</time>
      </trkpt>
      <trkpt lat="45.41109" lon="5.92464">
        <ele>1840.719963004</ele>
        <time>2016-06-18T10:03:21Z</time>
      </trkpt>
      <trkpt lat="45.41109" lon="5.92461">
        <ele>1840.719963004</ele>
        <time>2016-06-18T10:03:26Z</time>
      </trkpt>
      <trkpt lat="45.41109" lon="5.92461">
        <ele>1840.719963004</ele>
        <time>2016-06-18T10:03:31Z</time>
      </trkpt>
      <trkpt lat="45.4111" lon="5.92461">
        <ele>1840.719963004</ele>
        <time>2016-06-18T10:03:36Z</time>
      </trkpt>
      <trkpt lat="45.41109" lon="5.92455">
        <ele>1841.038550525</ele>
        <time>2016-06-18T10:03:41Z</time>
      </trkpt>
      <trkpt lat="45.41108" lon="5.92448">
        <ele>1841.038550525</ele>
        <time>2016-06-18T10:03:46Z</time>
      </trkpt>
      <trkpt lat="45.41089" lon="5.92438">
        <ele>1841.051640536</ele>
        <time>2016-06-18T10:04:01Z</time>
      </trkpt>
      <trkpt lat="45.41082" lon="5.92439">
        <ele>1841.051640536</ele>
        <time>2016-06-18T10:04:06Z</time>
      </trkpt>
      <trkpt lat="45.41071" lon="5.92438">
        <ele>1840.93054534</ele>
        <time>2016-06-18T10:04:16Z</time>
      </trkpt>
      <trkpt lat="45.41066" lon="5.92438">
        <ele>1840.93054534</ele>
        <time>2016-06-18T10:04:21Z</time>
      </trkpt>
      <trkpt lat="45.41056" lon="5.92438">
        <ele>1841.122628415</ele>
        <time>2016-06-18T10:04:31Z</time>
      </trkpt>
      <trkpt lat="45.4105" lon="5.92438">
        <ele>1841.122628415</ele>
        <time>2016-06-18T10:04:36Z</time>
      </trkpt>
      <trkpt lat="45.41037" lon="5.92441">
        <ele>1840.888641827</ele>
        <time>2016-06-18T10:04:46Z</time>
      </trkpt>
      <trkpt lat="45.41035" lon="5.92442">
        <ele>1840.888641827</ele>
        <time>2016-06-18T10:04:51Z</time>
      </trkpt>
      <trkpt lat="45.41032" lon="5.92444">
        <ele>1840.888641827</ele>
        <time>2016-06-18T10:05:01Z</time>
      </trkpt>
      <trkpt lat="45.41033" lon="5.92445">
        <ele>1840.888641827</ele>
        <time>2016-06-18T10:05:06Z</time>
      </trkpt>
      <trkpt lat="45.41033" lon="5.92445">
        <ele>1840.888641827</ele>
        <time>2016-06-18T10:05:11Z</time>
      </trkpt>
      <trkpt lat="45.41033" lon="5.92445">
        <ele>1840.888641827</ele>
        <time>2016-06-18T10:05:16Z</time>
      </trkpt>
      <trkpt lat="45.41029" lon="5.92443">
        <ele>1840.697729835</ele>
        <time>2016-06-18T10:05:22Z</time>
      </trkpt>
      <trkpt lat="45.4102" lon="5.92441">
        <ele>1840.552106496</ele>
        <time>2016-06-18T10:05:31Z</time>
      </trkpt>
      <trkpt lat="45.41015" lon="5.92441">
        <ele>1840.552106496</ele>
        <time>2016-06-18T10:05:36Z</time>
      </trkpt>
      <trkpt lat="45.41004" lon="5.92439">
        <ele>1840.886002987</ele>
        <time>2016-06-18T10:05:46Z</time>
      </trkpt>
      <trkpt lat="45.40999" lon="5.92435">
        <ele>1840.886002987</ele>
        <time>2016-06-18T10:05:51Z</time>
      </trkpt>
      <trkpt lat="45.41" lon="5.92434">
        <ele>1840.886002987</ele>
        <time>2016-06-18T10:05:56Z</time>
      </trkpt>
      <trkpt lat="45.41005" lon="5.92425">
        <ele>1840.94747792</ele>
        <time>2016-06-18T10:06:01Z</time>
      </trkpt>
      <trkpt lat="45.41016" lon="5.92415">
        <ele>1840.47287309</ele>
        <time>2016-06-18T10:06:11Z</time>
      </trkpt>
      <trkpt lat="45.41021" lon="5.92408">
        <ele>1840.47287309</ele>
        <time>2016-06-18T10:06:16Z</time>
      </trkpt>
      <trkpt lat="45.41026" lon="5.92392">
        <ele>1840.084006553</ele>
        <time>2016-06-18T10:06:26Z</time>
      </trkpt>
      <trkpt lat="45.41028" lon="5.92382">
        <ele>1840.084006553</ele>
        <time>2016-06-18T10:06:32Z</time>
      </trkpt>
      <trkpt lat="45.4103" lon="5.92375">
        <ele>1839.780259234</ele>
        <time>2016-06-18T10:06:36Z</time>
      </trkpt>
      <trkpt lat="45.4103" lon="5.92368">
        <ele>1839.780259234</ele>
        <time>2016-06-18T10:06:41Z</time>
      </trkpt>
      <trkpt lat="45.4103" lon="5.92367">
        <ele>1839.780259234</ele>
        <time>2016-06-18T10:06:46Z</time>
      </trkpt>
      <trkpt lat="45.41029" lon="5.92366">
        <ele>1839.780259234</ele>
        <time>2016-06-18T10:06:51Z</time>
      </trkpt>
      <trkpt lat="45.41028" lon="5.92356">
        <ele>1839.272511638</ele>
        <time>2016-06-18T10:06:56Z</time>
      </trkpt>
      <trkpt lat="45.41022" lon="5.92339">
        <ele>1839.158027229</ele>
        <time>2016-06-18T10:07:07Z</time>
      </trkpt>
      <trkpt lat="45.41019" lon="5.92333">
        <ele>1839.158027229</ele>
        <time>2016-06-18T10:07:11Z</time>
      </trkpt>
      <trkpt lat="45.4101" lon="5.92322">
        <ele>1838.836098428</ele>
        <time>2016-06-18T10:07:21Z</time>
      </trkpt>
      <trkpt lat="45.41005" lon="5.92317">
        <ele>1838.836098428</ele>
        <time>2016-06-18T10:07:26Z</time>
      </trkpt>
      <trkpt lat="45.40988" lon="5.92306">
        <ele>1838.182948521</ele>
        <time>2016-06-18T10:07:41Z</time>
      </trkpt>
      <trkpt lat="45.40989" lon="5.92307">
        <ele>1838.182948521</ele>
        <time>2016-06-18T10:07:46Z</time>
      </trkpt>
      <trkpt lat="45.40991" lon="5.9231">
        <ele>1838.182948521</ele>
        <time>2016-06-18T10:07:56Z</time>
      </trkpt>
      <trkpt lat="45.40989" lon="5.9231">
        <ele>1838.182948521</ele>
        <time>2016-06-18T10:08:01Z</time>
      </trkpt>
      <trkpt lat="45.40989" lon="5.92311">
        <ele>1838.182948521</ele>
        <time>2016-06-18T10:08:11Z</time>
      </trkpt>
      <trkpt lat="45.40989" lon="5.92312">
        <ele>1838.182948521</ele>
        <time>2016-06-18T10:08:16Z</time>
      </trkpt>
      <trkpt lat="45.40988" lon="5.92313">
        <ele>1836.652367578</ele>
        <time>2016-06-18T10:08:27Z</time>
      </trkpt>
      <trkpt lat="45.40987" lon="5.92314">
        <ele>1836.652367578</ele>
        <time>2016-06-18T10:08:31Z</time>
      </trkpt>
      <trkpt lat="45.40989" lon="5.92316">
        <ele>1836.652367578</ele>
        <time>2016-06-18T10:08:48Z</time>
      </trkpt>
      <trkpt lat="45.40989" lon="5.92317">
        <ele>1836.652367578</ele>
        <time>2016-06-18T10:08:52Z</time>
      </trkpt>
      <trkpt lat="45.40989" lon="5.92317">
        <ele>1836.652367578</ele>
        <time>2016-06-18T10:09:02Z</time>
      </trkpt>
      <trkpt lat="45.40989" lon="5.92317">
        <ele>1836.652367578</ele>
        <time>2016-06-18T10:09:07Z</time>
      </trkpt>
      <trkpt lat="45.40989" lon="5.92317">
        <ele>1836.652367578</ele>
        <time>2016-06-18T10:09:18Z</time>
      </trkpt>
      <trkpt lat="45.40989" lon="5.92317">
        <ele>1836.652367578</ele>
        <time>2016-06-18T10:09:22Z</time>
      </trkpt>
      <trkpt lat="45.40989" lon="5.92317">
        <ele>1836.652367578</ele>
        <time>2016-06-18T10:09:32Z</time>
      </trkpt>
      <trkpt lat="45.40989" lon="5.92317">
        <ele>1836.652367578</ele>
        <time>2016-06-18T10:09:37Z</time>
      </trkpt>
      <trkpt lat="45.4099" lon="5.92327">
        <ele>1835.469934621</ele>
        <time>2016-06-18T10:09:52Z</time>
      </trkpt>
      <trkpt lat="45.4099" lon="5.92328">
        <ele>1835.469934621</ele>
        <time>2016-06-18T10:09:56Z</time>
      </trkpt>
      <trkpt lat="45.40987" lon="5.9233">
        <ele>1835.469934621</ele>
        <time>2016-06-18T10:10:07Z</time>
      </trkpt>
      <trkpt lat="45.40988" lon="5.9233">
        <ele>1835.469934621</ele>
        <time>2016-06-18T10:10:12Z</time>
      </trkpt>
      <trkpt lat="45.40987" lon="5.9233">
        <ele>1835.469934621</ele>
        <time>2016-06-18T10:10:22Z</time>
      </trkpt>
      <trkpt lat="45.40988" lon="5.92328">
        <ele>1835.469934621</ele>
        <time>2016-06-18T10:10:27Z</time>
      </trkpt>
      <trkpt lat="45.40987" lon="5.92328">
        <ele>1835.469934621</ele>
        <time>2016-06-18T10:10:37Z</time>
      </trkpt>
      <trkpt lat="45.40987" lon="5.92328">
        <ele>1835.469934621</ele>
        <time>2016-06-18T10:10:42Z</time>
      </trkpt>
      <trkpt lat="45.40987" lon="5.92327">
        <ele>1835.469934621</ele>
        <time>2016-06-18T10:10:52Z</time>
      </trkpt>
      <trkpt lat="45.40985" lon="5.92331">
        <ele>1832.887854689</ele>
        <time>2016-06-18T10:10:56Z</time>
      </trkpt>
      <trkpt lat="45.40984" lon="5.92337">
        <ele>1832.887854689</ele>
        <time>2016-06-18T10:11:07Z</time>
      </trkpt>
      <trkpt lat="45.40984" lon="5.92337">
        <ele>1832.887854689</ele>
        <time>2016-06-18T10:11:11Z</time>
      </trkpt>
      <trkpt lat="45.40984" lon="5.92337">
        <ele>1832.887854689</ele>
        <time>2016-06-18T10:11:22Z</time>
      </trkpt>
      <trkpt lat="45.40981" lon="5.92338">
        <ele>1832.887854689</ele>
        <time>2016-06-18T10:11:27Z</time>
      </trkpt>
      <trkpt lat="45.40981" lon="5.92342">
        <ele>1830.893272882</ele>
        <time>2016-06-18T10:11:37Z</time>
      </trkpt>
      <trkpt lat="45.40981" lon="5.92346">
        <ele>1830.893272882</ele>
        <time>2016-06-18T10:11:42Z</time>
      </trkpt>
      <trkpt lat="45.40978" lon="5.92353">
        <ele>1830.893272882</ele>
        <time>2016-06-18T10:11:57Z</time>
      </trkpt>
      <trkpt lat="45.40978" lon="5.92355">
        <ele>1828.155092319</ele>
        <time>2016-06-18T10:12:02Z</time>
      </trkpt>
      <trkpt lat="45.40981" lon="5.92357">
        <ele>1828.155092319</ele>
        <time>2016-06-18T10:12:12Z</time>
      </trkpt>
      <trkpt lat="45.40981" lon="5.92359">
        <ele>1828.155092319</ele>
        <time>2016-06-18T10:12:16Z</time>
      </trkpt>
      <trkpt lat="45.4098" lon="5.9236">
        <ele>1828.155092319</ele>
        <time>2016-06-18T10:12:28Z</time>
      </trkpt>
      <trkpt lat="45.4098" lon="5.9236">
        <ele>1828.155092319</ele>
        <time>2016-06-18T10:12:31Z</time>
      </trkpt>
      <trkpt lat="45.4098" lon="5.9236">
        <ele>1828.155092319</ele>
        <time>2016-06-18T10:12:36Z</time>
      </trkpt>
      <trkpt lat="45.4098" lon="5.9236">
        <ele>1828.155092319</ele>
        <time>2016-06-18T10:12:41Z</time>
      </trkpt>
      <trkpt lat="45.4098" lon="5.92361">
        <ele>1828.155092319</ele>
        <time>2016-06-18T10:12:46Z</time>
      </trkpt>
      <trkpt lat="45.4098" lon="5.92361">
        <ele>1828.155092319</ele>
        <time>2016-06-18T10:12:51Z</time>
      </trkpt>
      <trkpt lat="45.4098" lon="5.92361">
        <ele>1828.155092319</ele>
        <time>2016-06-18T10:12:57Z</time>
      </trkpt>
      <trkpt lat="45.4098" lon="5.92362">
        <ele>1828.155092319</ele>
        <time>2016-06-18T10:13:06Z</time>
      </trkpt>
      <trkpt lat="45.40984" lon="5.92365">
        <ele>1824.306558561</ele>
        <time>2016-06-18T10:13:13Z</time>
      </trkpt>
      <trkpt lat="45.40978" lon="5.92371">
        <ele>1824.306558561</ele>
        <time>2016-06-18T10:13:27Z</time>
      </trkpt>
      <trkpt lat="45.40977" lon="5.92373">
        <ele>1824.306558561</ele>
        <time>2016-06-18T10:13:31Z</time>
      </trkpt>
      <trkpt lat="45.40977" lon="5.92372">
        <ele>1820.019538615</ele>
        <time>2016-06-18T10:13:37Z</time>
      </trkpt>
      <trkpt lat="45.40976" lon="5.92372">
        <ele>1820.019538615</ele>
        <time>2016-06-18T10:13:42Z</time>
      </trkpt>
      <trkpt lat="45.4098" lon="5.92368">
        <ele>1820.019538615</ele>
        <time>2016-06-18T10:13:47Z</time>
      </trkpt>
      <trkpt lat="45.40975" lon="5.9237">
        <ele>1813.89997965</ele>
        <time>2016-06-18T10:13:57Z</time>
      </trkpt>
      <trkpt lat="45.4097" lon="5.92367">
        <ele>1813.89997965</ele>
        <time>2016-06-18T10:14:02Z</time>
      </trkpt>
      <trkpt lat="45.40962" lon="5.9236">
        <ele>1807.687442249</ele>
        <time>2016-06-18T10:14:12Z</time>
      </trkpt>
      <trkpt lat="45.4096" lon="5.92357">
        <ele>1807.687442249</ele>
        <time>2016-06-18T10:14:17Z</time>
      </trkpt>
      <trkpt lat="45.40959" lon="5.92346">
        <ele>1803.281885227</ele>
        <time>2016-06-18T10:14:27Z</time>
      </trkpt>
      <trkpt lat="45.40959" lon="5.92344">
        <ele>1803.281885227</ele>
        <time>2016-06-18T10:14:31Z</time>
      </trkpt>
      <trkpt lat="45.40959" lon="5.92343">
        <ele>1803.281885227</ele>
        <time>2016-06-18T10:14:36Z</time>
      </trkpt>
      <trkpt lat="45.40959" lon="5.92343">
        <ele>1803.281885227</ele>
        <time>2016-06-18T10:14:46Z</time>
      </trkpt>
      <trkpt lat="45.40959" lon="5.92343">
        <ele>1803.281885227</ele>
        <time>2016-06-18T10:14:51Z</time>
      </trkpt>
      <trkpt lat="45.40962" lon="5.92328">
        <ele>1799.123745708</ele>
        <time>2016-06-18T10:15:06Z</time>
      </trkpt>
      <trkpt lat="45.40962" lon="5.92324">
        <ele>1799.123745708</ele>
        <time>2016-06-18T10:15:11Z</time>
      </trkpt>
      <trkpt lat="45.40961" lon="5.92328">
        <ele>1799.123745708</ele>
        <time>2016-06-18T10:15:21Z</time>
      </trkpt>
      <trkpt lat="45.40961" lon="5.9233">
        <ele>1799.123745708</ele>
        <time>2016-06-18T10:15:26Z</time>
      </trkpt>
      <trkpt lat="45.40961" lon="5.92331">
        <ele>1799.123745708</ele>
        <time>2016-06-18T10:15:36Z</time>
      </trkpt>
      <trkpt lat="45.40961" lon="5.92331">
        <ele>1799.123745708</ele>
        <time>2016-06-18T10:15:41Z</time>
      </trkpt>
      <trkpt lat="45.4096" lon="5.92332">
        <ele>1799.123745708</ele>
        <time>2016-06-18T10:15:51Z</time>
      </trkpt>
      <trkpt lat="45.4096" lon="5.92332">
        <ele>1796.07276245</ele>
        <time>2016-06-18T10:15:56Z</time>
      </trkpt>
      <trkpt lat="45.4096" lon="5.92332">
        <ele>1796.07276245</ele>
        <time>2016-06-18T10:16:06Z</time>
      </trkpt>
      <trkpt lat="45.4096" lon="5.92332">
        <ele>1796.07276245</ele>
        <time>2016-06-18T10:16:11Z</time>
      </trkpt>
      <trkpt lat="45.4096" lon="5.92332">
        <ele>1796.07276245</ele>
        <time>2016-06-18T10:16:21Z</time>
      </trkpt>
      <trkpt lat="45.4096" lon="5.92332">
        <ele>1796.07276245</ele>
        <time>2016-06-18T10:16:26Z</time>
      </trkpt>
      <trkpt lat="45.4096" lon="5.92332">
        <ele>1796.07276245</ele>
        <time>2016-06-18T10:16:36Z</time>
      </trkpt>
      <trkpt lat="45.4096" lon="5.92332">
        <ele>1796.07276245</ele>
        <time>2016-06-18T10:16:41Z</time>
      </trkpt>
      <trkpt lat="45.4096" lon="5.92332">
        <ele>1796.07276245</ele>
        <time>2016-06-18T10:16:46Z</time>
      </trkpt>
      <trkpt lat="45.40958" lon="5.92341">
        <ele>1796.07276245</ele>
        <time>2016-06-18T10:16:52Z</time>
      </trkpt>
      <trkpt lat="45.40957" lon="5.92346">
        <ele>1792.472160638</ele>
        <time>2016-06-18T10:16:56Z</time>
      </trkpt>
      <trkpt lat="45.40955" lon="5.9235">
        <ele>1792.472160638</ele>
        <time>2016-06-18T10:17:06Z</time>
      </trkpt>
      <trkpt lat="45.40955" lon="5.9235">
        <ele>1792.472160638</ele>
        <time>2016-06-18T10:17:12Z</time>
      </trkpt>
      <trkpt lat="45.40955" lon="5.9235">
        <ele>1792.472160638</ele>
        <time>2016-06-18T10:17:21Z</time>
      </trkpt>
      <trkpt lat="45.40955" lon="5.9235">
        <ele>1792.472160638</ele>
        <time>2016-06-18T10:17:26Z</time>
      </trkpt>
      <trkpt lat="45.4095" lon="5.9236">
        <ele>1789.093822379</ele>
        <time>2016-06-18T10:17:37Z</time>
      </trkpt>
      <trkpt lat="45.40946" lon="5.92363">
        <ele>1789.093822379</ele>
        <time>2016-06-18T10:17:42Z</time>
      </trkpt>
      <trkpt lat="45.40944" lon="5.92361">
        <ele>1789.093822379</ele>
        <time>2016-06-18T10:17:51Z</time>
      </trkpt>
      <trkpt lat="45.40943" lon="5.92361">
        <ele>1789.093822379</ele>
        <time>2016-06-18T10:17:57Z</time>
      </trkpt>
      <trkpt lat="45.40934" lon="5.92357">
        <ele>1784.778484219</ele>
        <time>2016-06-18T10:18:06Z</time>
      </trkpt>
      <trkpt lat="45.40927" lon="5.92355">
        <ele>1784.778484219</ele>
        <time>2016-06-18T10:18:11Z</time>
      </trkpt>
      <trkpt lat="45.40919" lon="5.92354">
        <ele>1780.760069962</ele>
        <time>2016-06-18T10:18:22Z</time>
      </trkpt>
      <trkpt lat="45.40918" lon="5.92355">
        <ele>1780.760069962</ele>
        <time>2016-06-18T10:18:26Z</time>
      </trkpt>
      <trkpt lat="45.40916" lon="5.92354">
        <ele>1780.760069962</ele>
        <time>2016-06-18T10:18:37Z</time>
      </trkpt>
      <trkpt lat="45.40916" lon="5.92355">
        <ele>1780.760069962</ele>
        <time>2016-06-18T10:18:42Z</time>
      </trkpt>
      <trkpt lat="45.40897" lon="5.92351">
        <ele>1777.171866648</ele>
        <time>2016-06-18T10:18:52Z</time>
      </trkpt>
      <trkpt lat="45.40895" lon="5.92349">
        <ele>1777.171866648</ele>
        <time>2016-06-18T10:18:57Z</time>
      </trkpt>
      <trkpt lat="45.40893" lon="5.92344">
        <ele>1777.171866648</ele>
        <time>2016-06-18T10:19:09Z</time>
      </trkpt>
      <trkpt lat="45.40892" lon="5.92344">
        <ele>1777.171866648</ele>
        <time>2016-06-18T10:19:11Z</time>
      </trkpt>
      <trkpt lat="45.40892" lon="5.92344">
        <ele>1777.171866648</ele>
        <time>2016-06-18T10:19:16Z</time>
      </trkpt>
      <trkpt lat="45.40892" lon="5.92344">
        <ele>1777.171866648</ele>
        <time>2016-06-18T10:19:21Z</time>
      </trkpt>
      <trkpt lat="45.40892" lon="5.92344">
        <ele>1777.171866648</ele>
        <time>2016-06-18T10:19:26Z</time>
      </trkpt>
      <trkpt lat="45.40892" lon="5.92344">
        <ele>1777.171866648</ele>
        <time>2016-06-18T10:19:31Z</time>
      </trkpt>
      <trkpt lat="45.40892" lon="5.92344">
        <ele>1777.171866648</ele>
        <time>2016-06-18T10:19:36Z</time>
      </trkpt>
      <trkpt lat="45.40891" lon="5.92344">
        <ele>1777.171866648</ele>
        <time>2016-06-18T10:19:41Z</time>
      </trkpt>
      <trkpt lat="45.40891" lon="5.92344">
        <ele>1777.171866648</ele>
        <time>2016-06-18T10:19:46Z</time>
      </trkpt>
      <trkpt lat="45.40891" lon="5.92344">
        <ele>1777.171866648</ele>
        <time>2016-06-18T10:19:52Z</time>
      </trkpt>
      <trkpt lat="45.40891" lon="5.92345">
        <ele>1774.568113653</ele>
        <time>2016-06-18T10:20:06Z</time>
      </trkpt>
      <trkpt lat="45.40889" lon="5.92349">
        <ele>1774.568113653</ele>
        <time>2016-06-18T10:20:11Z</time>
      </trkpt>
      <trkpt lat="45.40888" lon="5.9235">
        <ele>1774.568113653</ele>
        <time>2016-06-18T10:20:21Z</time>
      </trkpt>
      <trkpt lat="45.40888" lon="5.92349">
        <ele>1774.568113653</ele>
        <time>2016-06-18T10:20:26Z</time>
      </trkpt>
      <trkpt lat="45.40888" lon="5.92349">
        <ele>1774.568113653</ele>
        <time>2016-06-18T10:20:32Z</time>
      </trkpt>
      <trkpt lat="45.40888" lon="5.92349">
        <ele>1774.568113653</ele>
        <time>2016-06-18T10:20:37Z</time>
      </trkpt>
      <trkpt lat="45.40888" lon="5.92348">
        <ele>1774.568113653</ele>
        <time>2016-06-18T10:20:52Z</time>
      </trkpt>
      <trkpt lat="45.40888" lon="5.92348">
        <ele>1774.568113653</ele>
        <time>2016-06-18T10:20:57Z</time>
      </trkpt>
      <trkpt lat="45.40888" lon="5.92348">
        <ele>1774.568113653</ele>
        <time>2016-06-18T10:21:07Z</time>
      </trkpt>
      <trkpt lat="45.40888" lon="5.92348">
        <ele>1774.568113653</ele>
        <time>2016-06-18T10:21:11Z</time>
      </trkpt>
      <trkpt lat="45.40888" lon="5.9235">
        <ele>1774.568113653</ele>
        <time>2016-06-18T10:21:21Z</time>
      </trkpt>
      <trkpt lat="45.40888" lon="5.92348">
        <ele>1774.568113653</ele>
        <time>2016-06-18T10:21:26Z</time>
      </trkpt>
      <trkpt lat="45.40887" lon="5.92352">
        <ele>1772.306304701</ele>
        <time>2016-06-18T10:21:37Z</time>
      </trkpt>
      <trkpt lat="45.40886" lon="5.92353">
        <ele>1772.306304701</ele>
        <time>2016-06-18T10:21:41Z</time>
      </trkpt>
      <trkpt lat="45.40885" lon="5.92354">
        <ele>1772.306304701</ele>
        <time>2016-06-18T10:21:52Z</time>
      </trkpt>
      <trkpt lat="45.40886" lon="5.92354">
        <ele>1772.306304701</ele>
        <time>2016-06-18T10:21:57Z</time>
      </trkpt>
      <trkpt lat="45.40886" lon="5.92356">
        <ele>1772.306304701</ele>
        <time>2016-06-18T10:22:07Z</time>
      </trkpt>
      <trkpt lat="45.40886" lon="5.92356">
        <ele>1772.306304701</ele>
        <time>2016-06-18T10:22:12Z</time>
      </trkpt>
      <trkpt lat="45.40887" lon="5.92358">
        <ele>1772.306304701</ele>
        <time>2016-06-18T10:22:21Z</time>
      </trkpt>
      <trkpt lat="45.40887" lon="5.92357">
        <ele>1772.306304701</ele>
        <time>2016-06-18T10:22:26Z</time>
      </trkpt>
      <trkpt lat="45.40887" lon="5.92358">
        <ele>1772.306304701</ele>
        <time>2016-06-18T10:22:37Z</time>
      </trkpt>
      <trkpt lat="45.40887" lon="5.92358">
        <ele>1772.306304701</ele>
        <time>2016-06-18T10:22:41Z</time>
      </trkpt>
      <trkpt lat="45.40887" lon="5.92358">
        <ele>1772.306304701</ele>
        <time>2016-06-18T10:22:47Z</time>
      </trkpt>
      <trkpt lat="45.40887" lon="5.92358">
        <ele>1772.306304701</ele>
        <time>2016-06-18T10:22:57Z</time>
      </trkpt>
      <trkpt lat="45.40887" lon="5.92358">
        <ele>1772.306304701</ele>
        <time>2016-06-18T10:23:01Z</time>
      </trkpt>
      <trkpt lat="45.40887" lon="5.92358">
        <ele>1772.306304701</ele>
        <time>2016-06-18T10:23:11Z</time>
      </trkpt>
      <trkpt lat="45.40887" lon="5.92358">
        <ele>1772.306304701</ele>
        <time>2016-06-18T10:23:16Z</time>
      </trkpt>
      <trkpt lat="45.4089" lon="5.92359">
        <ele>1769.933910074</ele>
        <time>2016-06-18T10:23:26Z</time>
      </trkpt>
      <trkpt lat="45.40894" lon="5.92361">
        <ele>1769.933910074</ele>
        <time>2016-06-18T10:23:31Z</time>
      </trkpt>
      <trkpt lat="45.40899" lon="5.92361">
        <ele>1769.933910074</ele>
        <time>2016-06-18T10:23:41Z</time>
      </trkpt>
      <trkpt lat="45.40903" lon="5.92362">
        <ele>1767.896257702</ele>
        <time>2016-06-18T10:23:46Z</time>
      </trkpt>
      <trkpt lat="45.40915" lon="5.92368">
        <ele>1766.316453065</ele>
        <time>2016-06-18T10:23:56Z</time>
      </trkpt>
      <trkpt lat="45.40915" lon="5.92369">
        <ele>1766.316453065</ele>
        <time>2016-06-18T10:24:01Z</time>
      </trkpt>
      <trkpt lat="45.40916" lon="5.92369">
        <ele>1766.316453065</ele>
        <time>2016-06-18T10:24:16Z</time>
      </trkpt>
      <trkpt lat="45.40916" lon="5.92369">
        <ele>1766.316453065</ele>
        <time>2016-06-18T10:24:21Z</time>
      </trkpt>
      <trkpt lat="45.40917" lon="5.92369">
        <ele>1766.316453065</ele>
        <time>2016-06-18T10:24:31Z</time>
      </trkpt>
      <trkpt lat="45.40917" lon="5.92369">
        <ele>1766.316453065</ele>
        <time>2016-06-18T10:24:36Z</time>
      </trkpt>
      <trkpt lat="45.4093" lon="5.92378">
        <ele>1766.027500625</ele>
        <time>2016-06-18T10:24:46Z</time>
      </trkpt>
      <trkpt lat="45.40932" lon="5.92378">
        <ele>1766.027500625</ele>
        <time>2016-06-18T10:24:51Z</time>
      </trkpt>
      <trkpt lat="45.40934" lon="5.92378">
        <ele>1766.027500625</ele>
        <time>2016-06-18T10:25:01Z</time>
      </trkpt>
      <trkpt lat="45.40937" lon="5.92378">
        <ele>1766.027500625</ele>
        <time>2016-06-18T10:25:06Z</time>
      </trkpt>
      <trkpt lat="45.40945" lon="5.92386">
        <ele>1767.509064272</ele>
        <time>2016-06-18T10:25:16Z</time>
      </trkpt>
      <trkpt lat="45.4095" lon="5.92387">
        <ele>1767.509064272</ele>
        <time>2016-06-18T10:25:21Z</time>
      </trkpt>
      <trkpt lat="45.40957" lon="5.92381">
        <ele>1768.894551104</ele>
        <time>2016-06-18T10:25:31Z</time>
      </trkpt>
      <trkpt lat="45.40959" lon="5.92383">
        <ele>1768.894551104</ele>
        <time>2016-06-18T10:25:36Z</time>
      </trkpt>
      <trkpt lat="45.4096" lon="5.92383">
        <ele>1768.894551104</ele>
        <time>2016-06-18T10:25:46Z</time>
      </trkpt>
      <trkpt lat="45.4096" lon="5.92384">
        <ele>1768.894551104</ele>
        <time>2016-06-18T10:25:51Z</time>
      </trkpt>
      <trkpt lat="45.40968" lon="5.92382">
        <ele>1770.9044068</ele>
        <time>2016-06-18T10:26:01Z</time>
      </trkpt>
      <trkpt lat="45.40968" lon="5.9238">
        <ele>1770.9044068</ele>
        <time>2016-06-18T10:26:06Z</time>
      </trkpt>
      <trkpt lat="45.4097" lon="5.92375">
        <ele>1770.9044068</ele>
        <time>2016-06-18T10:26:16Z</time>
      </trkpt>
      <trkpt lat="45.4097" lon="5.92375">
        <ele>1770.9044068</ele>
        <time>2016-06-18T10:26:21Z</time>
      </trkpt>
      <trkpt lat="45.40978" lon="5.92376">
        <ele>1772.042533178</ele>
        <time>2016-06-18T10:26:31Z</time>
      </trkpt>
      <trkpt lat="45.4098" lon="5.92375">
        <ele>1772.042533178</ele>
        <time>2016-06-18T10:26:36Z</time>
      </trkpt>
      <trkpt lat="45.4099" lon="5.92368">
        <ele>1772.077904419</ele>
        <time>2016-06-18T10:26:46Z</time>
      </trkpt>
      <trkpt lat="45.4099" lon="5.92366">
        <ele>1772.077904419</ele>
        <time>2016-06-18T10:26:51Z</time>
      </trkpt>
      <trkpt lat="45.40988" lon="5.92355">
        <ele>1772.528761032</ele>
        <time>2016-06-18T10:27:08Z</time>
      </trkpt>
      <trkpt lat="45.40987" lon="5.92348">
        <ele>1772.528761032</ele>
        <time>2016-06-18T10:27:11Z</time>
      </trkpt>
      <trkpt lat="45.40983" lon="5.92348">
        <ele>1772.528761032</ele>
        <time>2016-06-18T10:27:21Z</time>
      </trkpt>
      <trkpt lat="45.40989" lon="5.92351">
        <ele>1773.215322229</ele>
        <time>2016-06-18T10:27:27Z</time>
      </trkpt>
      <trkpt lat="45.40997" lon="5.92351">
        <ele>1773.215322229</ele>
        <time>2016-06-18T10:27:37Z</time>
      </trkpt>
      <trkpt lat="45.40997" lon="5.92351">
        <ele>1773.215322229</ele>
        <time>2016-06-18T10:27:43Z</time>
      </trkpt>
      <trkpt lat="45.40996" lon="5.92351">
        <ele>1773.826161769</ele>
        <time>2016-06-18T10:27:52Z</time>
      </trkpt>
      <trkpt lat="45.40996" lon="5.92345">
        <ele>1773.826161769</ele>
        <time>2016-06-18T10:27:56Z</time>
      </trkpt>
      <trkpt lat="45.40994" lon="5.92345">
        <ele>1773.826161769</ele>
        <time>2016-06-18T10:28:11Z</time>
      </trkpt>
      <trkpt lat="45.40983" lon="5.92336">
        <ele>1776.811001968</ele>
        <time>2016-06-18T10:28:26Z</time>
      </trkpt>
      <trkpt lat="45.40984" lon="5.92338">
        <ele>1776.811001968</ele>
        <time>2016-06-18T10:28:42Z</time>
      </trkpt>
      <trkpt lat="45.40984" lon="5.92339">
        <ele>1776.811001968</ele>
        <time>2016-06-18T10:28:46Z</time>
      </trkpt>
      <trkpt lat="45.40984" lon="5.92333">
        <ele>1776.811001968</ele>
        <time>2016-06-18T10:28:52Z</time>
      </trkpt>
      <trkpt lat="45.40985" lon="5.92336">
        <ele>1781.262482522</ele>
        <time>2016-06-18T10:28:56Z</time>
      </trkpt>
      <trkpt lat="45.40986" lon="5.92338">
        <ele>1781.262482522</ele>
        <time>2016-06-18T10:29:06Z</time>
      </trkpt>
      <trkpt lat="45.40986" lon="5.92338">
        <ele>1781.262482522</ele>
        <time>2016-06-18T10:29:11Z</time>
      </trkpt>
      <trkpt lat="45.40987" lon="5.92339">
        <ele>1781.262482522</ele>
        <time>2016-06-18T10:29:16Z</time>
      </trkpt>
      <trkpt lat="45.40987" lon="5.92339">
        <ele>1781.262482522</ele>
        <time>2016-06-18T10:29:21Z</time>
      </trkpt>
      <trkpt lat="45.40987" lon="5.92339">
        <ele>1781.262482522</ele>
        <time>2016-06-18T10:29:26Z</time>
      </trkpt>
      <trkpt lat="45.40989" lon="5.92346">
        <ele>1781.262482522</ele>
        <time>2016-06-18T10:29:36Z</time>
      </trkpt>
      <trkpt lat="45.40988" lon="5.92347">
        <ele>1788.497469137</ele>
        <time>2016-06-18T10:29:41Z</time>
      </trkpt>
      <trkpt lat="45.40985" lon="5.92346">
        <ele>1788.497469137</ele>
        <time>2016-06-18T10:29:51Z</time>
      </trkpt>
      <trkpt lat="45.40985" lon="5.92343">
        <ele>1788.497469137</ele>
        <time>2016-06-18T10:29:56Z</time>
      </trkpt>
      <trkpt lat="45.40986" lon="5.92342">
        <ele>1788.497469137</ele>
        <time>2016-06-18T10:30:06Z</time>
      </trkpt>
      <trkpt lat="45.40985" lon="5.9234">
        <ele>1788.497469137</ele>
        <time>2016-06-18T10:30:11Z</time>
      </trkpt>
      <trkpt lat="45.40986" lon="5.92341">
        <ele>1795.260903482</ele>
        <time>2016-06-18T10:30:21Z</time>
      </trkpt>
      <trkpt lat="45.40989" lon="5.92337">
        <ele>1795.260903482</ele>
        <time>2016-06-18T10:30:26Z</time>
      </trkpt>
      <trkpt lat="45.4099" lon="5.92333">
        <ele>1795.260903482</ele>
        <time>2016-06-18T10:30:37Z</time>
      </trkpt>
      <trkpt lat="45.40991" lon="5.92332">
        <ele>1795.260903482</ele>
        <time>2016-06-18T10:30:41Z</time>
      </trkpt>
      <trkpt lat="45.40991" lon="5.92332">
        <ele>1795.260903482</ele>
        <time>2016-06-18T10:30:46Z</time>
      </trkpt>
      <trkpt lat="45.40991" lon="5.92332">
        <ele>1795.260903482</ele>
        <time>2016-06-18T10:30:57Z</time>
      </trkpt>
      <trkpt lat="45.40991" lon="5.92332">
        <ele>1795.260903482</ele>
        <time>2016-06-18T10:31:01Z</time>
      </trkpt>
      <trkpt lat="45.40991" lon="5.92332">
        <ele>1795.260903482</ele>
        <time>2016-06-18T10:31:11Z</time>
      </trkpt>
      <trkpt lat="45.40991" lon="5.92332">
        <ele>1795.260903482</ele>
        <time>2016-06-18T10:31:17Z</time>
      </trkpt>
      <trkpt lat="45.40994" lon="5.92325">
        <ele>1799.979395219</ele>
        <time>2016-06-18T10:31:26Z</time>
      </trkpt>
      <trkpt lat="45.40993" lon="5.92322">
        <ele>1799.979395219</ele>
        <time>2016-06-18T10:31:31Z</time>
      </trkpt>
      <trkpt lat="45.40992" lon="5.92317">
        <ele>1799.979395219</ele>
        <time>2016-06-18T10:31:41Z</time>
      </trkpt>
      <trkpt lat="45.4099" lon="5.9231">
        <ele>1804.227374959</ele>
        <time>2016-06-18T10:31:46Z</time>
      </trkpt>
      <trkpt lat="45.40981" lon="5.92302">
        <ele>1809.032817686</ele>
        <time>2016-06-18T10:32:01Z</time>
      </trkpt>
      <trkpt lat="45.4098" lon="5.92302">
        <ele>1809.032817686</ele>
        <time>2016-06-18T10:32:06Z</time>
      </trkpt>
      <trkpt lat="45.4098" lon="5.92302">
        <ele>1809.032817686</ele>
        <time>2016-06-18T10:32:11Z</time>
      </trkpt>
      <trkpt lat="45.40976" lon="5.92302">
        <ele>1809.032817686</ele>
        <time>2016-06-18T10:32:16Z</time>
      </trkpt>
      <trkpt lat="45.40966" lon="5.92305">
        <ele>1813.617536614</ele>
        <time>2016-06-18T10:32:26Z</time>
      </trkpt>
      <trkpt lat="45.40962" lon="5.92305">
        <ele>1813.617536614</ele>
        <time>2016-06-18T10:32:31Z</time>
      </trkpt>
      <trkpt lat="45.40952" lon="5.92304">
        <ele>1818.126076143</ele>
        <time>2016-06-18T10:32:41Z</time>
      </trkpt>
      <trkpt lat="45.4095" lon="5.92308">
        <ele>1818.126076143</ele>
        <time>2016-06-18T10:32:48Z</time>
      </trkpt>
      <trkpt lat="45.40933" lon="5.9231">
        <ele>1821.97232526</ele>
        <time>2016-06-18T10:32:57Z</time>
      </trkpt>
      <trkpt lat="45.40929" lon="5.92311">
        <ele>1821.97232526</ele>
        <time>2016-06-18T10:33:01Z</time>
      </trkpt>
      <trkpt lat="45.40927" lon="5.92311">
        <ele>1821.97232526</ele>
        <time>2016-06-18T10:33:06Z</time>
      </trkpt>
      <trkpt lat="45.40927" lon="5.92311">
        <ele>1821.97232526</ele>
        <time>2016-06-18T10:33:11Z</time>
      </trkpt>
      <trkpt lat="45.40927" lon="5.92311">
        <ele>1821.97232526</ele>
        <time>2016-06-18T10:33:16Z</time>
      </trkpt>
      <trkpt lat="45.40927" lon="5.92311">
        <ele>1821.97232526</ele>
        <time>2016-06-18T10:33:21Z</time>
      </trkpt>
      <trkpt lat="45.40927" lon="5.92311">
        <ele>1821.97232526</ele>
        <time>2016-06-18T10:33:31Z</time>
      </trkpt>
      <trkpt lat="45.40927" lon="5.92311">
        <ele>1821.97232526</ele>
        <time>2016-06-18T10:33:36Z</time>
      </trkpt>
      <trkpt lat="45.40927" lon="5.92311">
        <ele>1821.97232526</ele>
        <time>2016-06-18T10:33:46Z</time>
      </trkpt>
      <trkpt lat="45.40927" lon="5.92311">
        <ele>1821.97232526</ele>
        <time>2016-06-18T10:33:51Z</time>
      </trkpt>
      <trkpt lat="45.40927" lon="5.92311">
        <ele>1821.97232526</ele>
        <time>2016-06-18T10:34:01Z</time>
      </trkpt>
      <trkpt lat="45.40927" lon="5.92311">
        <ele>1821.97232526</ele>
        <time>2016-06-18T10:34:06Z</time>
      </trkpt>
      <trkpt lat="45.40927" lon="5.92311">
        <ele>1821.97232526</ele>
        <time>2016-06-18T10:34:11Z</time>
      </trkpt>
      <trkpt lat="45.40927" lon="5.92311">
        <ele>1821.97232526</ele>
        <time>2016-06-18T10:34:16Z</time>
      </trkpt>
      <trkpt lat="45.40927" lon="5.92311">
        <ele>1821.97232526</ele>
        <time>2016-06-18T10:34:21Z</time>
      </trkpt>
      <trkpt lat="45.40927" lon="5.9231">
        <ele>1821.97232526</ele>
        <time>2016-06-18T10:34:26Z</time>
      </trkpt>
      <trkpt lat="45.40927" lon="5.92311">
        <ele>1821.97232526</ele>
        <time>2016-06-18T10:34:31Z</time>
      </trkpt>
      <trkpt lat="45.40927" lon="5.92312">
        <ele>1821.97232526</ele>
        <time>2016-06-18T10:34:36Z</time>
      </trkpt>
      <trkpt lat="45.40927" lon="5.92312">
        <ele>1821.97232526</ele>
        <time>2016-06-18T10:34:41Z</time>
      </trkpt>
      <trkpt lat="45.40926" lon="5.92311">
        <ele>1821.97232526</ele>
        <time>2016-06-18T10:34:46Z</time>
      </trkpt>
      <trkpt lat="45.40928" lon="5.92302">
        <ele>1825.480078968</ele>
        <time>2016-06-18T10:34:51Z</time>
      </trkpt>
      <trkpt lat="45.40931" lon="5.92289">
        <ele>1828.374192074</ele>
        <time>2016-06-18T10:35:02Z</time>
      </trkpt>
      <trkpt lat="45.4093" lon="5.92286">
        <ele>1828.374192074</ele>
        <time>2016-06-18T10:35:06Z</time>
      </trkpt>
      <trkpt lat="45.40926" lon="5.92276">
        <ele>1830.690024685</ele>
        <time>2016-06-18T10:35:16Z</time>
      </trkpt>
      <trkpt lat="45.40927" lon="5.92271">
        <ele>1830.690024685</ele>
        <time>2016-06-18T10:35:21Z</time>
      </trkpt>
      <trkpt lat="45.40931" lon="5.92261">
        <ele>1832.606425097</ele>
        <time>2016-06-18T10:35:38Z</time>
      </trkpt>
      <trkpt lat="45.4093" lon="5.92261">
        <ele>1832.606425097</ele>
        <time>2016-06-18T10:35:42Z</time>
      </trkpt>
      <trkpt lat="45.40929" lon="5.9226">
        <ele>1832.606425097</ele>
        <time>2016-06-18T10:35:51Z</time>
      </trkpt>
      <trkpt lat="45.40929" lon="5.92255">
        <ele>1832.606425097</ele>
        <time>2016-06-18T10:35:56Z</time>
      </trkpt>
      <trkpt lat="45.40919" lon="5.92239">
        <ele>1833.137682724</ele>
        <time>2016-06-18T10:36:08Z</time>
      </trkpt>
      <trkpt lat="45.40917" lon="5.92238">
        <ele>1833.137682724</ele>
        <time>2016-06-18T10:36:11Z</time>
      </trkpt>
      <trkpt lat="45.40904" lon="5.92227">
        <ele>1833.392276605</ele>
        <time>2016-06-18T10:36:28Z</time>
      </trkpt>
      <trkpt lat="45.40904" lon="5.92224">
        <ele>1833.392276605</ele>
        <time>2016-06-18T10:36:32Z</time>
      </trkpt>
      <trkpt lat="45.40896" lon="5.92216">
        <ele>1832.380797766</ele>
        <time>2016-06-18T10:36:43Z</time>
      </trkpt>
      <trkpt lat="45.40894" lon="5.92216">
        <ele>1832.380797766</ele>
        <time>2016-06-18T10:36:46Z</time>
      </trkpt>
      <trkpt lat="45.40893" lon="5.92216">
        <ele>1832.380797766</ele>
        <time>2016-06-18T10:36:51Z</time>
      </trkpt>
      <trkpt lat="45.40889" lon="5.92214">
        <ele>1832.380797766</ele>
        <time>2016-06-18T10:36:56Z</time>
      </trkpt>
      <trkpt lat="45.40874" lon="5.92206">
        <ele>1830.919701342</ele>
        <time>2016-06-18T10:37:07Z</time>
      </trkpt>
      <trkpt lat="45.40868" lon="5.922">
        <ele>1830.919701342</ele>
        <time>2016-06-18T10:37:11Z</time>
      </trkpt>
      <trkpt lat="45.40852" lon="5.92186">
        <ele>1829.190551157</ele>
        <time>2016-06-18T10:37:26Z</time>
      </trkpt>
      <trkpt lat="45.40846" lon="5.92184">
        <ele>1829.190551157</ele>
        <time>2016-06-18T10:37:31Z</time>
      </trkpt>
      <trkpt lat="45.40838" lon="5.92175">
        <ele>1827.794896423</ele>
        <time>2016-06-18T10:37:41Z</time>
      </trkpt>
      <trkpt lat="45.40834" lon="5.92166">
        <ele>1827.794896423</ele>
        <time>2016-06-18T10:37:46Z</time>
      </trkpt>
      <trkpt lat="45.40829" lon="5.92159">
        <ele>1826.424699928</ele>
        <time>2016-06-18T10:37:56Z</time>
      </trkpt>
      <trkpt lat="45.40827" lon="5.92156">
        <ele>1826.424699928</ele>
        <time>2016-06-18T10:38:01Z</time>
      </trkpt>
      <trkpt lat="45.40829" lon="5.92155">
        <ele>1826.424699928</ele>
        <time>2016-06-18T10:38:11Z</time>
      </trkpt>
      <trkpt lat="45.40829" lon="5.92155">
        <ele>1826.424699928</ele>
        <time>2016-06-18T10:38:17Z</time>
      </trkpt>
      <trkpt lat="45.4083" lon="5.9214">
        <ele>1824.938767297</ele>
        <time>2016-06-18T10:38:27Z</time>
      </trkpt>
      <trkpt lat="45.40831" lon="5.92134">
        <ele>1824.938767297</ele>
        <time>2016-06-18T10:38:32Z</time>
      </trkpt>
      <trkpt lat="45.40829" lon="5.92123">
        <ele>1823.206746592</ele>
        <time>2016-06-18T10:38:42Z</time>
      </trkpt>
      <trkpt lat="45.40828" lon="5.92119">
        <ele>1823.206746592</ele>
        <time>2016-06-18T10:38:50Z</time>
      </trkpt>
      <trkpt lat="45.40827" lon="5.92105">
        <ele>1820.532223787</ele>
        <time>2016-06-18T10:39:01Z</time>
      </trkpt>
      <trkpt lat="45.40819" lon="5.92086">
        <ele>1817.569674493</ele>
        <time>2016-06-18T10:39:17Z</time>
      </trkpt>
      <trkpt lat="45.40816" lon="5.92081">
        <ele>1817.569674493</ele>
        <time>2016-06-18T10:39:21Z</time>
      </trkpt>
      <trkpt lat="45.40811" lon="5.92073">
        <ele>1814.205804734</ele>
        <time>2016-06-18T10:39:31Z</time>
      </trkpt>
      <trkpt lat="45.40808" lon="5.92068">
        <ele>1814.205804734</ele>
        <time>2016-06-18T10:39:36Z</time>
      </trkpt>
      <trkpt lat="45.40805" lon="5.92059">
        <ele>1810.625013996</ele>
        <time>2016-06-18T10:39:43Z</time>
      </trkpt>
      <trkpt lat="45.40804" lon="5.92056">
        <ele>1810.625013996</ele>
        <time>2016-06-18T10:39:46Z</time>
      </trkpt>
      <trkpt lat="45.40803" lon="5.92056">
        <ele>1810.625013996</ele>
        <time>2016-06-18T10:39:51Z</time>
      </trkpt>
      <trkpt lat="45.40802" lon="5.92057">
        <ele>1810.625013996</ele>
        <time>2016-06-18T10:39:56Z</time>
      </trkpt>
      <trkpt lat="45.40802" lon="5.92058">
        <ele>1810.625013996</ele>
        <time>2016-06-18T10:40:01Z</time>
      </trkpt>
      <trkpt lat="45.40802" lon="5.92058">
        <ele>1810.625013996</ele>
        <time>2016-06-18T10:40:06Z</time>
      </trkpt>
      <trkpt lat="45.40802" lon="5.92058">
        <ele>1810.625013996</ele>
        <time>2016-06-18T10:40:11Z</time>
      </trkpt>
      <trkpt lat="45.40802" lon="5.92058">
        <ele>1810.625013996</ele>
        <time>2016-06-18T10:40:16Z</time>
      </trkpt>
      <trkpt lat="45.40802" lon="5.92058">
        <ele>1810.625013996</ele>
        <time>2016-06-18T10:40:21Z</time>
      </trkpt>
      <trkpt lat="45.40802" lon="5.92058">
        <ele>1810.625013996</ele>
        <time>2016-06-18T10:40:26Z</time>
      </trkpt>
      <trkpt lat="45.40802" lon="5.92058">
        <ele>1810.625013996</ele>
        <time>2016-06-18T10:40:31Z</time>
      </trkpt>
      <trkpt lat="45.40802" lon="5.92058">
        <ele>1810.625013996</ele>
        <time>2016-06-18T10:40:36Z</time>
      </trkpt>
      <trkpt lat="45.40802" lon="5.92058">
        <ele>1810.625013996</ele>
        <time>2016-06-18T10:40:41Z</time>
      </trkpt>
      <trkpt lat="45.40802" lon="5.92058">
        <ele>1810.625013996</ele>
        <time>2016-06-18T10:40:46Z</time>
      </trkpt>
      <trkpt lat="45.40802" lon="5.92058">
        <ele>1810.625013996</ele>
        <time>2016-06-18T10:40:51Z</time>
      </trkpt>
      <trkpt lat="45.40802" lon="5.92058">
        <ele>1810.625013996</ele>
        <time>2016-06-18T10:41:01Z</time>
      </trkpt>
      <trkpt lat="45.40802" lon="5.92058">
        <ele>1810.625013996</ele>
        <time>2016-06-18T10:41:08Z</time>
      </trkpt>
      <trkpt lat="45.40798" lon="5.92053">
        <ele>1806.566419506</ele>
        <time>2016-06-18T10:41:17Z</time>
      </trkpt>
      <trkpt lat="45.40793" lon="5.92047">
        <ele>1806.566419506</ele>
        <time>2016-06-18T10:41:21Z</time>
      </trkpt>
      <trkpt lat="45.40795" lon="5.9205">
        <ele>1802.942488006</ele>
        <time>2016-06-18T10:41:36Z</time>
      </trkpt>
      <trkpt lat="45.40803" lon="5.92063">
        <ele>1800.165029281</ele>
        <time>2016-06-18T10:41:53Z</time>
      </trkpt>
      <trkpt lat="45.40805" lon="5.92066">
        <ele>1800.165029281</ele>
        <time>2016-06-18T10:41:56Z</time>
      </trkpt>
      <trkpt lat="45.40811" lon="5.92076">
        <ele>1797.604347574</ele>
        <time>2016-06-18T10:42:06Z</time>
      </trkpt>
      <trkpt lat="45.40812" lon="5.92084">
        <ele>1797.604347574</ele>
        <time>2016-06-18T10:42:12Z</time>
      </trkpt>
      <trkpt lat="45.40814" lon="5.92093">
        <ele>1795.829163272</ele>
        <time>2016-06-18T10:42:22Z</time>
      </trkpt>
      <trkpt lat="45.40814" lon="5.92097">
        <ele>1795.829163272</ele>
        <time>2016-06-18T10:42:26Z</time>
      </trkpt>
      <trkpt lat="45.40817" lon="5.92107">
        <ele>1794.211189181</ele>
        <time>2016-06-18T10:42:41Z</time>
      </trkpt>
      <trkpt lat="45.40821" lon="5.92119">
        <ele>1793.176483302</ele>
        <time>2016-06-18T10:42:56Z</time>
      </trkpt>
      <trkpt lat="45.40823" lon="5.92123">
        <ele>1793.176483302</ele>
        <time>2016-06-18T10:43:01Z</time>
      </trkpt>
      <trkpt lat="45.40828" lon="5.92131">
        <ele>1792.973909492</ele>
        <time>2016-06-18T10:43:11Z</time>
      </trkpt>
      <trkpt lat="45.40827" lon="5.92134">
        <ele>1792.973909492</ele>
        <time>2016-06-18T10:43:16Z</time>
      </trkpt>
      <trkpt lat="45.40827" lon="5.92141">
        <ele>1792.973909492</ele>
        <time>2016-06-18T10:43:26Z</time>
      </trkpt>
      <trkpt lat="45.40827" lon="5.92144">
        <ele>1793.399235851</ele>
        <time>2016-06-18T10:43:32Z</time>
      </trkpt>
      <trkpt lat="45.40826" lon="5.92154">
        <ele>1793.399235851</ele>
        <time>2016-06-18T10:43:41Z</time>
      </trkpt>
      <trkpt lat="45.40827" lon="5.92161">
        <ele>1793.973109697</ele>
        <time>2016-06-18T10:43:46Z</time>
      </trkpt>
      <trkpt lat="45.40831" lon="5.92171">
        <ele>1793.973109697</ele>
        <time>2016-06-18T10:43:56Z</time>
      </trkpt>
      <trkpt lat="45.40837" lon="5.92176">
        <ele>1794.683179156</ele>
        <time>2016-06-18T10:44:02Z</time>
      </trkpt>
      <trkpt lat="45.40848" lon="5.92178">
        <ele>1795.373390769</ele>
        <time>2016-06-18T10:44:11Z</time>
      </trkpt>
      <trkpt lat="45.40853" lon="5.92178">
        <ele>1795.373390769</ele>
        <time>2016-06-18T10:44:16Z</time>
      </trkpt>
      <trkpt lat="45.40867" lon="5.92182">
        <ele>1796.331442598</ele>
        <time>2016-06-18T10:44:26Z</time>
      </trkpt>
      <trkpt lat="45.40874" lon="5.92183">
        <ele>1796.331442598</ele>
        <time>2016-06-18T10:44:31Z</time>
      </trkpt>
      <trkpt lat="45.40887" lon="5.92186">
        <ele>1797.246615613</ele>
        <time>2016-06-18T10:44:42Z</time>
      </trkpt>
      <trkpt lat="45.40892" lon="5.92188">
        <ele>1797.246615613</ele>
        <time>2016-06-18T10:44:47Z</time>
      </trkpt>
      <trkpt lat="45.40895" lon="5.92185">
        <ele>1797.246615613</ele>
        <time>2016-06-18T10:44:51Z</time>
      </trkpt>
      <trkpt lat="45.40899" lon="5.92185">
        <ele>1797.97517439</ele>
        <time>2016-06-18T10:44:56Z</time>
      </trkpt>
      <trkpt lat="45.40904" lon="5.9218">
        <ele>1797.97517439</ele>
        <time>2016-06-18T10:45:02Z</time>
      </trkpt>
      <trkpt lat="45.40913" lon="5.92176">
        <ele>1799.104962348</ele>
        <time>2016-06-18T10:45:11Z</time>
      </trkpt>
      <trkpt lat="45.40919" lon="5.92175">
        <ele>1799.104962348</ele>
        <time>2016-06-18T10:45:17Z</time>
      </trkpt>
      <trkpt lat="45.40932" lon="5.92174">
        <ele>1799.882467811</ele>
        <time>2016-06-18T10:45:27Z</time>
      </trkpt>
      <trkpt lat="45.40938" lon="5.92176">
        <ele>1799.882467811</ele>
        <time>2016-06-18T10:45:31Z</time>
      </trkpt>
      <trkpt lat="45.40951" lon="5.92179">
        <ele>1800.907486305</ele>
        <time>2016-06-18T10:45:46Z</time>
      </trkpt>
      <trkpt lat="45.40954" lon="5.92182">
        <ele>1800.907486305</ele>
        <time>2016-06-18T10:45:51Z</time>
      </trkpt>
      <trkpt lat="45.40962" lon="5.92187">
        <ele>1802.014480266</ele>
        <time>2016-06-18T10:46:02Z</time>
      </trkpt>
      <trkpt lat="45.40964" lon="5.92185">
        <ele>1802.014480266</ele>
        <time>2016-06-18T10:46:06Z</time>
      </trkpt>
      <trkpt lat="45.40965" lon="5.92188">
        <ele>1802.014480266</ele>
        <time>2016-06-18T10:46:11Z</time>
      </trkpt>
      <trkpt lat="45.40965" lon="5.92188">
        <ele>1802.014480266</ele>
        <time>2016-06-18T10:46:20Z</time>
      </trkpt>
      <trkpt lat="45.40969" lon="5.92188">
        <ele>1802.905720046</ele>
        <time>2016-06-18T10:46:27Z</time>
      </trkpt>
      <trkpt lat="45.40969" lon="5.92189">
        <ele>1802.905720046</ele>
        <time>2016-06-18T10:46:31Z</time>
      </trkpt>
      <trkpt lat="45.4097" lon="5.92189">
        <ele>1802.905720046</ele>
        <time>2016-06-18T10:46:36Z</time>
      </trkpt>
      <trkpt lat="45.40973" lon="5.9219">
        <ele>1802.905720046</ele>
        <time>2016-06-18T10:46:42Z</time>
      </trkpt>
      <trkpt lat="45.40974" lon="5.92198">
        <ele>1803.305950331</ele>
        <time>2016-06-18T10:46:48Z</time>
      </trkpt>
      <trkpt lat="45.40977" lon="5.922">
        <ele>1803.305950331</ele>
        <time>2016-06-18T10:46:51Z</time>
      </trkpt>
      <trkpt lat="45.4098" lon="5.92201">
        <ele>1803.305950331</ele>
        <time>2016-06-18T10:47:03Z</time>
      </trkpt>
      <trkpt lat="45.40981" lon="5.92201">
        <ele>1803.305950331</ele>
        <time>2016-06-18T10:47:18Z</time>
      </trkpt>
      <trkpt lat="45.40981" lon="5.92201">
        <ele>1803.305950331</ele>
        <time>2016-06-18T10:47:22Z</time>
      </trkpt>
      <trkpt lat="45.40981" lon="5.92201">
        <ele>1803.305950331</ele>
        <time>2016-06-18T10:47:31Z</time>
      </trkpt>
      <trkpt lat="45.40981" lon="5.92201">
        <ele>1803.305950331</ele>
        <time>2016-06-18T10:47:37Z</time>
      </trkpt>
      <trkpt lat="45.40982" lon="5.92202">
        <ele>1803.305950331</ele>
        <time>2016-06-18T10:47:47Z</time>
      </trkpt>
      <trkpt lat="45.40982" lon="5.92202">
        <ele>1803.305950331</ele>
        <time>2016-06-18T10:47:51Z</time>
      </trkpt>
      <trkpt lat="45.40981" lon="5.92202">
        <ele>1803.305950331</ele>
        <time>2016-06-18T10:48:02Z</time>
      </trkpt>
      <trkpt lat="45.40981" lon="5.92202">
        <ele>1803.305950331</ele>
        <time>2016-06-18T10:48:07Z</time>
      </trkpt>
      <trkpt lat="45.40984" lon="5.92209">
        <ele>1803.826186537</ele>
        <time>2016-06-18T10:48:21Z</time>
      </trkpt>
      <trkpt lat="45.40978" lon="5.92218">
        <ele>1803.591122201</ele>
        <time>2016-06-18T10:48:27Z</time>
      </trkpt>
      <trkpt lat="45.40982" lon="5.92219">
        <ele>1803.591122201</ele>
        <time>2016-06-18T10:48:37Z</time>
      </trkpt>
      <trkpt lat="45.40983" lon="5.92219">
        <ele>1803.591122201</ele>
        <time>2016-06-18T10:48:43Z</time>
      </trkpt>
      <trkpt lat="45.40987" lon="5.92217">
        <ele>1804.097663019</ele>
        <time>2016-06-18T10:48:51Z</time>
      </trkpt>
      <trkpt lat="45.40992" lon="5.92217">
        <ele>1804.097663019</ele>
        <time>2016-06-18T10:48:58Z</time>
      </trkpt>
      <trkpt lat="45.40996" lon="5.92212">
        <ele>1804.713134027</ele>
        <time>2016-06-18T10:49:07Z</time>
      </trkpt>
      <trkpt lat="45.40995" lon="5.9221">
        <ele>1804.713134027</ele>
        <time>2016-06-18T10:49:11Z</time>
      </trkpt>
      <trkpt lat="45.40994" lon="5.9221">
        <ele>1804.713134027</ele>
        <time>2016-06-18T10:49:22Z</time>
      </trkpt>
      <trkpt lat="45.40991" lon="5.92211">
        <ele>1804.713134027</ele>
        <time>2016-06-18T10:49:27Z</time>
      </trkpt>
      <trkpt lat="45.40992" lon="5.92209">
        <ele>1804.713134027</ele>
        <time>2016-06-18T10:49:31Z</time>
      </trkpt>
      <trkpt lat="45.40993" lon="5.92207">
        <ele>1804.851050501</ele>
        <time>2016-06-18T10:49:41Z</time>
      </trkpt>
      <trkpt lat="45.40992" lon="5.92205">
        <ele>1804.851050501</ele>
        <time>2016-06-18T10:49:47Z</time>
      </trkpt>
      <trkpt lat="45.40992" lon="5.92205">
        <ele>1804.851050501</ele>
        <time>2016-06-18T10:49:57Z</time>
      </trkpt>
      <trkpt lat="45.40992" lon="5.92205">
        <ele>1804.851050501</ele>
        <time>2016-06-18T10:50:02Z</time>
      </trkpt>
      <trkpt lat="45.40992" lon="5.92205">
        <ele>1804.851050501</ele>
        <time>2016-06-18T10:50:16Z</time>
      </trkpt>
      <trkpt lat="45.40992" lon="5.92205">
        <ele>1804.851050501</ele>
        <time>2016-06-18T10:50:27Z</time>
      </trkpt>
      <trkpt lat="45.40992" lon="5.92205">
        <ele>1804.851050501</ele>
        <time>2016-06-18T10:50:31Z</time>
      </trkpt>
      <trkpt lat="45.40992" lon="5.92205">
        <ele>1804.851050501</ele>
        <time>2016-06-18T10:50:47Z</time>
      </trkpt>
      <trkpt lat="45.40988" lon="5.92207">
        <ele>1804.851050501</ele>
        <time>2016-06-18T10:50:51Z</time>
      </trkpt>
      <trkpt lat="45.40985" lon="5.92186">
        <ele>1803.392924474</ele>
        <time>2016-06-18T10:51:02Z</time>
      </trkpt>
      <trkpt lat="45.40987" lon="5.92177">
        <ele>1803.392924474</ele>
        <time>2016-06-18T10:51:07Z</time>
      </trkpt>
      <trkpt lat="45.40984" lon="5.92176">
        <ele>1801.756814412</ele>
        <time>2016-06-18T10:51:17Z</time>
      </trkpt>
      <trkpt lat="45.40979" lon="5.92181">
        <ele>1801.756814412</ele>
        <time>2016-06-18T10:51:22Z</time>
      </trkpt>
      <trkpt lat="45.40977" lon="5.92181">
        <ele>1801.756814412</ele>
        <time>2016-06-18T10:51:36Z</time>
      </trkpt>
      <trkpt lat="45.40977" lon="5.92181">
        <ele>1800.629506421</ele>
        <time>2016-06-18T10:51:47Z</time>
      </trkpt>
      <trkpt lat="45.40978" lon="5.9218">
        <ele>1799.50219843</ele>
        <time>2016-06-18T10:53:11Z</time>
      </trkpt>
      <trkpt lat="45.40969" lon="5.92171">
        <ele>1798.37489044</ele>
        <time>2016-06-18T10:53:27Z</time>
      </trkpt>
      <trkpt lat="45.40963" lon="5.92174">
        <ele>1798.37489044</ele>
        <time>2016-06-18T10:53:31Z</time>
      </trkpt>
      <trkpt lat="45.4096" lon="5.92162">
        <ele>1793.81693569</ele>
        <time>2016-06-18T10:53:36Z</time>
      </trkpt>
      <trkpt lat="45.40963" lon="5.92141">
        <ele>1790.775809493</ele>
        <time>2016-06-18T10:53:46Z</time>
      </trkpt>
      <trkpt lat="45.40963" lon="5.92139">
        <ele>1790.775809493</ele>
        <time>2016-06-18T10:53:51Z</time>
      </trkpt>
      <trkpt lat="45.40965" lon="5.92139">
        <ele>1790.775809493</ele>
        <time>2016-06-18T10:54:01Z</time>
      </trkpt>
      <trkpt lat="45.40966" lon="5.9214">
        <ele>1790.775809493</ele>
        <time>2016-06-18T10:54:06Z</time>
      </trkpt>
      <trkpt lat="45.40966" lon="5.92122">
        <ele>1788.715908778</ele>
        <time>2016-06-18T10:54:16Z</time>
      </trkpt>
      <trkpt lat="45.40964" lon="5.92114">
        <ele>1788.715908778</ele>
        <time>2016-06-18T10:54:21Z</time>
      </trkpt>
      <trkpt lat="45.40965" lon="5.92114">
        <ele>1788.715908778</ele>
        <time>2016-06-18T10:54:31Z</time>
      </trkpt>
      <trkpt lat="45.40965" lon="5.92114">
        <ele>1788.715908778</ele>
        <time>2016-06-18T10:54:36Z</time>
      </trkpt>
      <trkpt lat="45.40965" lon="5.92114">
        <ele>1788.715908778</ele>
        <time>2016-06-18T10:54:46Z</time>
      </trkpt>
      <trkpt lat="45.40965" lon="5.92113">
        <ele>1788.715908778</ele>
        <time>2016-06-18T10:54:51Z</time>
      </trkpt>
      <trkpt lat="45.40965" lon="5.92113">
        <ele>1788.715908778</ele>
        <time>2016-06-18T10:55:07Z</time>
      </trkpt>
      <trkpt lat="45.40965" lon="5.92113">
        <ele>1788.715908778</ele>
        <time>2016-06-18T10:55:11Z</time>
      </trkpt>
      <trkpt lat="45.40965" lon="5.92113">
        <ele>1788.715908778</ele>
        <time>2016-06-18T10:55:21Z</time>
      </trkpt>
      <trkpt lat="45.40965" lon="5.92113">
        <ele>1788.715908778</ele>
        <time>2016-06-18T10:55:26Z</time>
      </trkpt>
      <trkpt lat="45.40966" lon="5.92106">
        <ele>1786.705811825</ele>
        <time>2016-06-18T10:55:36Z</time>
      </trkpt>
      <trkpt lat="45.40965" lon="5.92109">
        <ele>1786.705811825</ele>
        <time>2016-06-18T10:55:41Z</time>
      </trkpt>
      <trkpt lat="45.40966" lon="5.92115">
        <ele>1786.705811825</ele>
        <time>2016-06-18T10:55:52Z</time>
      </trkpt>
      <trkpt lat="45.40966" lon="5.92114">
        <ele>1786.705811825</ele>
        <time>2016-06-18T10:55:56Z</time>
      </trkpt>
      <trkpt lat="45.40966" lon="5.92114">
        <ele>1786.705811825</ele>
        <time>2016-06-18T10:56:07Z</time>
      </trkpt>
      <trkpt lat="45.40966" lon="5.92114">
        <ele>1786.705811825</ele>
        <time>2016-06-18T10:56:12Z</time>
      </trkpt>
      <trkpt lat="45.40966" lon="5.92114">
        <ele>1786.705811825</ele>
        <time>2016-06-18T10:56:22Z</time>
      </trkpt>
      <trkpt lat="45.40966" lon="5.92114">
        <ele>1786.705811825</ele>
        <time>2016-06-18T10:56:27Z</time>
      </trkpt>
      <trkpt lat="45.40971" lon="5.92077">
        <ele>1783.924989688</ele>
        <time>2016-06-18T10:56:36Z</time>
      </trkpt>
      <trkpt lat="45.4096" lon="5.92083">
        <ele>1781.144167551</ele>
        <time>2016-06-18T10:56:42Z</time>
      </trkpt>
      <trkpt lat="45.4095" lon="5.92088">
        <ele>1775.621357754</ele>
        <time>2016-06-18T10:56:52Z</time>
      </trkpt>
      <trkpt lat="45.40947" lon="5.92088">
        <ele>1775.621357754</ele>
        <time>2016-06-18T10:56:56Z</time>
      </trkpt>
      <trkpt lat="45.40945" lon="5.92094">
        <ele>1775.621357754</ele>
        <time>2016-06-18T10:57:12Z</time>
      </trkpt>
      <trkpt lat="45.40946" lon="5.92094">
        <ele>1775.621357754</ele>
        <time>2016-06-18T10:57:16Z</time>
      </trkpt>
      <trkpt lat="45.4094" lon="5.92101">
        <ele>1768.275759287</ele>
        <time>2016-06-18T10:57:27Z</time>
      </trkpt>
      <trkpt lat="45.40941" lon="5.92097">
        <ele>1768.275759287</ele>
        <time>2016-06-18T10:57:32Z</time>
      </trkpt>
      <trkpt lat="45.40939" lon="5.92087">
        <ele>1760.701991819</ele>
        <time>2016-06-18T10:57:43Z</time>
      </trkpt>
      <trkpt lat="45.40939" lon="5.92087">
        <ele>1760.701991819</ele>
        <time>2016-06-18T10:57:47Z</time>
      </trkpt>
      <trkpt lat="45.40936" lon="5.9208">
        <ele>1760.701991819</ele>
        <time>2016-06-18T10:58:02Z</time>
      </trkpt>
      <trkpt lat="45.40936" lon="5.92055">
        <ele>1752.792730488</ele>
        <time>2016-06-18T10:58:16Z</time>
      </trkpt>
      <trkpt lat="45.40935" lon="5.92055">
        <ele>1752.792730488</ele>
        <time>2016-06-18T10:58:21Z</time>
      </trkpt>
      <trkpt lat="45.40935" lon="5.92054">
        <ele>1752.792730488</ele>
        <time>2016-06-18T10:58:26Z</time>
      </trkpt>
      <trkpt lat="45.40935" lon="5.92055">
        <ele>1752.792730488</ele>
        <time>2016-06-18T10:58:31Z</time>
      </trkpt>
      <trkpt lat="45.40935" lon="5.92054">
        <ele>1752.792730488</ele>
        <time>2016-06-18T10:58:36Z</time>
      </trkpt>
      <trkpt lat="45.40935" lon="5.92054">
        <ele>1752.792730488</ele>
        <time>2016-06-18T10:58:41Z</time>
      </trkpt>
      <trkpt lat="45.40936" lon="5.92053">
        <ele>1752.792730488</ele>
        <time>2016-06-18T10:58:46Z</time>
      </trkpt>
      <trkpt lat="45.40936" lon="5.92039">
        <ele>1745.746214182</ele>
        <time>2016-06-18T10:59:01Z</time>
      </trkpt>
      <trkpt lat="45.40936" lon="5.92033">
        <ele>1745.746214182</ele>
        <time>2016-06-18T10:59:07Z</time>
      </trkpt>
      <trkpt lat="45.40932" lon="5.92034">
        <ele>1745.746214182</ele>
        <time>2016-06-18T10:59:16Z</time>
      </trkpt>
      <trkpt lat="45.40931" lon="5.92033">
        <ele>1738.652382679</ele>
        <time>2016-06-18T10:59:22Z</time>
      </trkpt>
      <trkpt lat="45.4093" lon="5.92034">
        <ele>1738.652382679</ele>
        <time>2016-06-18T10:59:31Z</time>
      </trkpt>
      <trkpt lat="45.4093" lon="5.92033">
        <ele>1738.652382679</ele>
        <time>2016-06-18T10:59:36Z</time>
      </trkpt>
      <trkpt lat="45.4093" lon="5.92034">
        <ele>1738.652382679</ele>
        <time>2016-06-18T10:59:42Z</time>
      </trkpt>
      <trkpt lat="45.40925" lon="5.92029">
        <ele>1731.820716087</ele>
        <time>2016-06-18T10:59:51Z</time>
      </trkpt>
      <trkpt lat="45.40925" lon="5.92028">
        <ele>1731.820716087</ele>
        <time>2016-06-18T10:59:56Z</time>
      </trkpt>
      <trkpt lat="45.40925" lon="5.92029">
        <ele>1731.820716087</ele>
        <time>2016-06-18T11:00:09Z</time>
      </trkpt>
      <trkpt lat="45.40925" lon="5.92029">
        <ele>1731.820716087</ele>
        <time>2016-06-18T11:00:11Z</time>
      </trkpt>
      <trkpt lat="45.40925" lon="5.92029">
        <ele>1731.820716087</ele>
        <time>2016-06-18T11:00:22Z</time>
      </trkpt>
      <trkpt lat="45.40925" lon="5.92029">
        <ele>1731.820716087</ele>
        <time>2016-06-18T11:00:27Z</time>
      </trkpt>
      <trkpt lat="45.40938" lon="5.92049">
        <ele>1725.825085866</ele>
        <time>2016-06-18T11:00:42Z</time>
      </trkpt>
      <trkpt lat="45.4094" lon="5.92045">
        <ele>1725.825085866</ele>
        <time>2016-06-18T11:00:47Z</time>
      </trkpt>
      <trkpt lat="45.4094" lon="5.92048">
        <ele>1725.825085866</ele>
        <time>2016-06-18T11:00:56Z</time>
      </trkpt>
      <trkpt lat="45.40941" lon="5.92052">
        <ele>1725.825085866</ele>
        <time>2016-06-18T11:01:02Z</time>
      </trkpt>
      <trkpt lat="45.40944" lon="5.92056">
        <ele>1720.185701859</ele>
        <time>2016-06-18T11:01:12Z</time>
      </trkpt>
      <trkpt lat="45.40946" lon="5.92056">
        <ele>1720.185701859</ele>
        <time>2016-06-18T11:01:16Z</time>
      </trkpt>
      <trkpt lat="45.4096" lon="5.92068">
        <ele>1715.033068097</ele>
        <time>2016-06-18T11:01:27Z</time>
      </trkpt>
      <trkpt lat="45.4096" lon="5.92074">
        <ele>1715.033068097</ele>
        <time>2016-06-18T11:01:32Z</time>
      </trkpt>
      <trkpt lat="45.40976" lon="5.92065">
        <ele>1710.918666857</ele>
        <time>2016-06-18T11:01:42Z</time>
      </trkpt>
      <trkpt lat="45.40975" lon="5.92064">
        <ele>1710.918666857</ele>
        <time>2016-06-18T11:01:47Z</time>
      </trkpt>
      <trkpt lat="45.40978" lon="5.92067">
        <ele>1710.918666857</ele>
        <time>2016-06-18T11:01:56Z</time>
      </trkpt>
      <trkpt lat="45.40977" lon="5.9207">
        <ele>1710.918666857</ele>
        <time>2016-06-18T11:02:01Z</time>
      </trkpt>
      <trkpt lat="45.40982" lon="5.9207">
        <ele>1706.044372435</ele>
        <time>2016-06-18T11:02:12Z</time>
      </trkpt>
      <trkpt lat="45.40983" lon="5.92072">
        <ele>1706.044372435</ele>
        <time>2016-06-18T11:02:16Z</time>
      </trkpt>
      <trkpt lat="45.40983" lon="5.92073">
        <ele>1706.044372435</ele>
        <time>2016-06-18T11:02:27Z</time>
      </trkpt>
      <trkpt lat="45.40987" lon="5.92072">
        <ele>1706.044372435</ele>
        <time>2016-06-18T11:02:32Z</time>
      </trkpt>
      <trkpt lat="45.40991" lon="5.92074">
        <ele>1701.48398941</ele>
        <time>2016-06-18T11:02:36Z</time>
      </trkpt>
      <trkpt lat="45.40996" lon="5.92073">
        <ele>1701.48398941</ele>
        <time>2016-06-18T11:02:46Z</time>
      </trkpt>
      <trkpt lat="45.40997" lon="5.92073">
        <ele>1701.48398941</ele>
        <time>2016-06-18T11:02:51Z</time>
      </trkpt>
      <trkpt lat="45.40997" lon="5.92073">
        <ele>1701.48398941</ele>
        <time>2016-06-18T11:02:56Z</time>
      </trkpt>
      <trkpt lat="45.41007" lon="5.92074">
        <ele>1697.510607984</ele>
        <time>2016-06-18T11:03:07Z</time>
      </trkpt>
      <trkpt lat="45.41006" lon="5.92075">
        <ele>1697.510607984</ele>
        <time>2016-06-18T11:03:12Z</time>
      </trkpt>
      <trkpt lat="45.41016" lon="5.92079">
        <ele>1693.078220489</ele>
        <time>2016-06-18T11:03:27Z</time>
      </trkpt>
      <trkpt lat="45.41021" lon="5.92076">
        <ele>1693.078220489</ele>
        <time>2016-06-18T11:03:43Z</time>
      </trkpt>
      <trkpt lat="45.41022" lon="5.92077">
        <ele>1693.078220489</ele>
        <time>2016-06-18T11:03:47Z</time>
      </trkpt>
      <trkpt lat="45.41027" lon="5.92077">
        <ele>1688.803787582</ele>
        <time>2016-06-18T11:03:56Z</time>
      </trkpt>
      <trkpt lat="45.4103" lon="5.92075">
        <ele>1688.803787582</ele>
        <time>2016-06-18T11:04:01Z</time>
      </trkpt>
      <trkpt lat="45.41033" lon="5.92072">
        <ele>1688.803787582</ele>
        <time>2016-06-18T11:04:12Z</time>
      </trkpt>
      <trkpt lat="45.41036" lon="5.92068">
        <ele>1684.681689303</ele>
        <time>2016-06-18T11:04:16Z</time>
      </trkpt>
      <trkpt lat="45.41039" lon="5.92066">
        <ele>1684.681689303</ele>
        <time>2016-06-18T11:04:27Z</time>
      </trkpt>
      <trkpt lat="45.41039" lon="5.92066">
        <ele>1684.681689303</ele>
        <time>2016-06-18T11:04:32Z</time>
      </trkpt>
      <trkpt lat="45.4104" lon="5.92063">
        <ele>1684.681689303</ele>
        <time>2016-06-18T11:04:41Z</time>
      </trkpt>
      <trkpt lat="45.4104" lon="5.92062">
        <ele>1684.681689303</ele>
        <time>2016-06-18T11:04:47Z</time>
      </trkpt>
      <trkpt lat="45.41041" lon="5.92063">
        <ele>1684.681689303</ele>
        <time>2016-06-18T11:04:56Z</time>
      </trkpt>
      <trkpt lat="45.41045" lon="5.92058">
        <ele>1680.129485274</ele>
        <time>2016-06-18T11:05:01Z</time>
      </trkpt>
      <trkpt lat="45.41051" lon="5.92045">
        <ele>1676.193599844</ele>
        <time>2016-06-18T11:05:12Z</time>
      </trkpt>
      <trkpt lat="45.41054" lon="5.92046">
        <ele>1676.193599844</ele>
        <time>2016-06-18T11:05:16Z</time>
      </trkpt>
      <trkpt lat="45.41054" lon="5.92036">
        <ele>1671.968074162</ele>
        <time>2016-06-18T11:05:27Z</time>
      </trkpt>
      <trkpt lat="45.41052" lon="5.92033">
        <ele>1671.968074162</ele>
        <time>2016-06-18T11:05:32Z</time>
      </trkpt>
      <trkpt lat="45.41057" lon="5.92031">
        <ele>1671.968074162</ele>
        <time>2016-06-18T11:05:36Z</time>
      </trkpt>
      <trkpt lat="45.4106" lon="5.92031">
        <ele>1667.334540319</ele>
        <time>2016-06-18T11:05:48Z</time>
      </trkpt>
      <trkpt lat="45.41066" lon="5.92027">
        <ele>1667.334540319</ele>
        <time>2016-06-18T11:05:52Z</time>
      </trkpt>
      <trkpt lat="45.41069" lon="5.92018">
        <ele>1662.616485372</ele>
        <time>2016-06-18T11:06:01Z</time>
      </trkpt>
      <trkpt lat="45.41071" lon="5.92018">
        <ele>1662.616485372</ele>
        <time>2016-06-18T11:06:07Z</time>
      </trkpt>
      <trkpt lat="45.41074" lon="5.92013">
        <ele>1662.616485372</ele>
        <time>2016-06-18T11:06:16Z</time>
      </trkpt>
      <trkpt lat="45.41073" lon="5.92014">
        <ele>1662.616485372</ele>
        <time>2016-06-18T11:06:21Z</time>
      </trkpt>
      <trkpt lat="45.41074" lon="5.92012">
        <ele>1658.257673522</ele>
        <time>2016-06-18T11:06:26Z</time>
      </trkpt>
      <trkpt lat="45.41074" lon="5.92012">
        <ele>1658.257673522</ele>
        <time>2016-06-18T11:06:31Z</time>
      </trkpt>
      <trkpt lat="45.41074" lon="5.92012">
        <ele>1658.257673522</ele>
        <time>2016-06-18T11:06:36Z</time>
      </trkpt>
      <trkpt lat="45.41075" lon="5.92012">
        <ele>1658.257673522</ele>
        <time>2016-06-18T11:06:42Z</time>
      </trkpt>
      <trkpt lat="45.41082" lon="5.92002">
        <ele>1654.091519853</ele>
        <time>2016-06-18T11:06:52Z</time>
      </trkpt>
      <trkpt lat="45.41087" lon="5.92002">
        <ele>1654.091519853</ele>
        <time>2016-06-18T11:06:56Z</time>
      </trkpt>
      <trkpt lat="45.41088" lon="5.9199">
        <ele>1649.530514406</ele>
        <time>2016-06-18T11:07:10Z</time>
      </trkpt>
      <trkpt lat="45.41088" lon="5.9199">
        <ele>1649.530514406</ele>
        <time>2016-06-18T11:07:11Z</time>
      </trkpt>
      <trkpt lat="45.41092" lon="5.91989">
        <ele>1649.530514406</ele>
        <time>2016-06-18T11:07:27Z</time>
      </trkpt>
      <trkpt lat="45.41092" lon="5.91988">
        <ele>1649.530514406</ele>
        <time>2016-06-18T11:07:31Z</time>
      </trkpt>
      <trkpt lat="45.41092" lon="5.91988">
        <ele>1649.530514406</ele>
        <time>2016-06-18T11:07:36Z</time>
      </trkpt>
      <trkpt lat="45.41092" lon="5.91988">
        <ele>1649.530514406</ele>
        <time>2016-06-18T11:07:42Z</time>
      </trkpt>
      <trkpt lat="45.41092" lon="5.91988">
        <ele>1649.530514406</ele>
        <time>2016-06-18T11:07:47Z</time>
      </trkpt>
      <trkpt lat="45.41087" lon="5.91988">
        <ele>1645.472247549</ele>
        <time>2016-06-18T11:07:56Z</time>
      </trkpt>
      <trkpt lat="45.41082" lon="5.91987">
        <ele>1645.472247549</ele>
        <time>2016-06-18T11:08:01Z</time>
      </trkpt>
      <trkpt lat="45.41072" lon="5.91987">
        <ele>1642.170254248</ele>
        <time>2016-06-18T11:08:11Z</time>
      </trkpt>
      <trkpt lat="45.41069" lon="5.91989">
        <ele>1642.170254248</ele>
        <time>2016-06-18T11:08:16Z</time>
      </trkpt>
      <trkpt lat="45.4106" lon="5.9198">
        <ele>1639.136518577</ele>
        <time>2016-06-18T11:08:26Z</time>
      </trkpt>
      <trkpt lat="45.4106" lon="5.91984">
        <ele>1639.136518577</ele>
        <time>2016-06-18T11:08:31Z</time>
      </trkpt>
      <trkpt lat="45.41055" lon="5.91984">
        <ele>1639.136518577</ele>
        <time>2016-06-18T11:08:41Z</time>
      </trkpt>
      <trkpt lat="45.41052" lon="5.91982">
        <ele>1636.926669046</ele>
        <time>2016-06-18T11:08:46Z</time>
      </trkpt>
      <trkpt lat="45.41047" lon="5.91971">
        <ele>1635.188331599</ele>
        <time>2016-06-18T11:08:56Z</time>
      </trkpt>
      <trkpt lat="45.41045" lon="5.91966">
        <ele>1635.188331599</ele>
        <time>2016-06-18T11:09:01Z</time>
      </trkpt>
      <trkpt lat="45.41033" lon="5.91963">
        <ele>1633.305289059</ele>
        <time>2016-06-18T11:09:16Z</time>
      </trkpt>
      <trkpt lat="45.4103" lon="5.91963">
        <ele>1633.305289059</ele>
        <time>2016-06-18T11:09:21Z</time>
      </trkpt>
      <trkpt lat="45.4103" lon="5.91962">
        <ele>1633.305289059</ele>
        <time>2016-06-18T11:09:26Z</time>
      </trkpt>
      <trkpt lat="45.4103" lon="5.91962">
        <ele>1633.305289059</ele>
        <time>2016-06-18T11:09:31Z</time>
      </trkpt>
      <trkpt lat="45.41025" lon="5.9196">
        <ele>1633.305289059</ele>
        <time>2016-06-18T11:09:36Z</time>
      </trkpt>
      <trkpt lat="45.41021" lon="5.91952">
        <ele>1632.003841775</ele>
        <time>2016-06-18T11:09:49Z</time>
      </trkpt>
      <trkpt lat="45.41016" lon="5.91948">
        <ele>1632.003841775</ele>
        <time>2016-06-18T11:09:52Z</time>
      </trkpt>
      <trkpt lat="45.41013" lon="5.91939">
        <ele>1631.090511067</ele>
        <time>2016-06-18T11:09:56Z</time>
      </trkpt>
      <trkpt lat="45.41005" lon="5.91939">
        <ele>1631.090511067</ele>
        <time>2016-06-18T11:10:07Z</time>
      </trkpt>
      <trkpt lat="45.41003" lon="5.91941">
        <ele>1630.384845001</ele>
        <time>2016-06-18T11:10:12Z</time>
      </trkpt>
      <trkpt lat="45.41" lon="5.91936">
        <ele>1630.384845001</ele>
        <time>2016-06-18T11:10:24Z</time>
      </trkpt>
      <trkpt lat="45.40994" lon="5.91933">
        <ele>1629.718997409</ele>
        <time>2016-06-18T11:10:27Z</time>
      </trkpt>
      <trkpt lat="45.40993" lon="5.91923">
        <ele>1629.718997409</ele>
        <time>2016-06-18T11:10:36Z</time>
      </trkpt>
      <trkpt lat="45.40993" lon="5.91923">
        <ele>1629.718997409</ele>
        <time>2016-06-18T11:10:44Z</time>
      </trkpt>
      <trkpt lat="45.40986" lon="5.91913">
        <ele>1629.513747911</ele>
        <time>2016-06-18T11:10:52Z</time>
      </trkpt>
      <trkpt lat="45.40992" lon="5.9191">
        <ele>1629.513747911</ele>
        <time>2016-06-18T11:10:56Z</time>
      </trkpt>
      <trkpt lat="45.40992" lon="5.91909">
        <ele>1629.513747911</ele>
        <time>2016-06-18T11:11:01Z</time>
      </trkpt>
      <trkpt lat="45.40992" lon="5.91909">
        <ele>1629.513747911</ele>
        <time>2016-06-18T11:11:06Z</time>
      </trkpt>
      <trkpt lat="45.40991" lon="5.91908">
        <ele>1629.513747911</ele>
        <time>2016-06-18T11:11:12Z</time>
      </trkpt>
      <trkpt lat="45.40991" lon="5.91907">
        <ele>1629.513747911</ele>
        <time>2016-06-18T11:11:21Z</time>
      </trkpt>
      <trkpt lat="45.40991" lon="5.91907">
        <ele>1629.513747911</ele>
        <time>2016-06-18T11:11:27Z</time>
      </trkpt>
      <trkpt lat="45.40985" lon="5.91886">
        <ele>1629.148888236</ele>
        <time>2016-06-18T11:11:37Z</time>
      </trkpt>
      <trkpt lat="45.40987" lon="5.91881">
        <ele>1629.148888236</ele>
        <time>2016-06-18T11:11:41Z</time>
      </trkpt>
      <trkpt lat="45.40995" lon="5.91876">
        <ele>1627.473792185</ele>
        <time>2016-06-18T11:11:57Z</time>
      </trkpt>
      <trkpt lat="45.40996" lon="5.91872">
        <ele>1627.473792185</ele>
        <time>2016-06-18T11:12:01Z</time>
      </trkpt>
      <trkpt lat="45.40997" lon="5.91866">
        <ele>1627.473792185</ele>
        <time>2016-06-18T11:12:13Z</time>
      </trkpt>
      <trkpt lat="45.41003" lon="5.91868">
        <ele>1625.731853951</ele>
        <time>2016-06-18T11:12:16Z</time>
      </trkpt>
      <trkpt lat="45.41004" lon="5.91864">
        <ele>1625.731853951</ele>
        <time>2016-06-18T11:12:27Z</time>
      </trkpt>
      <trkpt lat="45.41006" lon="5.91855">
        <ele>1624.210710017</ele>
        <time>2016-06-18T11:12:32Z</time>
      </trkpt>
      <trkpt lat="45.41007" lon="5.91849">
        <ele>1624.210710017</ele>
        <time>2016-06-18T11:12:47Z</time>
      </trkpt>
      <trkpt lat="45.41008" lon="5.91849">
        <ele>1624.210710017</ele>
        <time>2016-06-18T11:13:01Z</time>
      </trkpt>
      <trkpt lat="45.41011" lon="5.9185">
        <ele>1624.210710017</ele>
        <time>2016-06-18T11:13:07Z</time>
      </trkpt>
      <trkpt lat="45.41021" lon="5.91846">
        <ele>1621.014652924</ele>
        <time>2016-06-18T11:13:17Z</time>
      </trkpt>
      <trkpt lat="45.41027" lon="5.91849">
        <ele>1621.014652924</ele>
        <time>2016-06-18T11:13:21Z</time>
      </trkpt>
      <trkpt lat="45.41036" lon="5.91843">
        <ele>1618.283013198</ele>
        <time>2016-06-18T11:13:32Z</time>
      </trkpt>
      <trkpt lat="45.41042" lon="5.91842">
        <ele>1618.283013198</ele>
        <time>2016-06-18T11:13:37Z</time>
      </trkpt>
      <trkpt lat="45.41041" lon="5.91845">
        <ele>1618.283013198</ele>
        <time>2016-06-18T11:13:47Z</time>
      </trkpt>
      <trkpt lat="45.41042" lon="5.91843">
        <ele>1615.690970905</ele>
        <time>2016-06-18T11:13:52Z</time>
      </trkpt>
      <trkpt lat="45.41043" lon="5.9184">
        <ele>1615.690970905</ele>
        <time>2016-06-18T11:14:01Z</time>
      </trkpt>
      <trkpt lat="45.41043" lon="5.91839">
        <ele>1615.690970905</ele>
        <time>2016-06-18T11:14:06Z</time>
      </trkpt>
      <trkpt lat="45.41043" lon="5.91839">
        <ele>1615.690970905</ele>
        <time>2016-06-18T11:14:17Z</time>
      </trkpt>
      <trkpt lat="45.41043" lon="5.91838">
        <ele>1615.690970905</ele>
        <time>2016-06-18T11:14:21Z</time>
      </trkpt>
      <trkpt lat="45.41026" lon="5.91847">
        <ele>1612.504928222</ele>
        <time>2016-06-18T11:14:32Z</time>
      </trkpt>
      <trkpt lat="45.41024" lon="5.91847">
        <ele>1612.504928222</ele>
        <time>2016-06-18T11:14:36Z</time>
      </trkpt>
      <trkpt lat="45.41019" lon="5.91848">
        <ele>1612.504928222</ele>
        <time>2016-06-18T11:14:41Z</time>
      </trkpt>
      <trkpt lat="45.41015" lon="5.91838">
        <ele>1610.785043129</ele>
        <time>2016-06-18T11:14:52Z</time>
      </trkpt>
      <trkpt lat="45.41015" lon="5.91832">
        <ele>1610.785043129</ele>
        <time>2016-06-18T11:14:57Z</time>
      </trkpt>
      <trkpt lat="45.41008" lon="5.91827">
        <ele>1610.130336184</ele>
        <time>2016-06-18T11:15:06Z</time>
      </trkpt>
      <trkpt lat="45.41006" lon="5.91817">
        <ele>1610.130336184</ele>
        <time>2016-06-18T11:15:12Z</time>
      </trkpt>
      <trkpt lat="45.41009" lon="5.9181">
        <ele>1610.1663964</ele>
        <time>2016-06-18T11:15:21Z</time>
      </trkpt>
      <trkpt lat="45.41011" lon="5.91812">
        <ele>1610.1663964</ele>
        <time>2016-06-18T11:15:26Z</time>
      </trkpt>
      <trkpt lat="45.41007" lon="5.91812">
        <ele>1610.1663964</ele>
        <time>2016-06-18T11:15:37Z</time>
      </trkpt>
      <trkpt lat="45.41007" lon="5.91811">
        <ele>1610.1663964</ele>
        <time>2016-06-18T11:15:41Z</time>
      </trkpt>
      <trkpt lat="45.40993" lon="5.918">
        <ele>1609.679824868</ele>
        <time>2016-06-18T11:15:52Z</time>
      </trkpt>
      <trkpt lat="45.40991" lon="5.91797">
        <ele>1609.679824868</ele>
        <time>2016-06-18T11:15:57Z</time>
      </trkpt>
      <trkpt lat="45.4099" lon="5.91798">
        <ele>1609.679824868</ele>
        <time>2016-06-18T11:16:01Z</time>
      </trkpt>
      <trkpt lat="45.40985" lon="5.91797">
        <ele>1609.679824868</ele>
        <time>2016-06-18T11:16:06Z</time>
      </trkpt>
      <trkpt lat="45.40985" lon="5.91798">
        <ele>1608.556729896</ele>
        <time>2016-06-18T11:16:11Z</time>
      </trkpt>
      <trkpt lat="45.40989" lon="5.91796">
        <ele>1608.556729896</ele>
        <time>2016-06-18T11:16:17Z</time>
      </trkpt>
      <trkpt lat="45.40991" lon="5.91798">
        <ele>1608.556729896</ele>
        <time>2016-06-18T11:16:27Z</time>
      </trkpt>
      <trkpt lat="45.40981" lon="5.91797">
        <ele>1607.41406886</ele>
        <time>2016-06-18T11:16:32Z</time>
      </trkpt>
      <trkpt lat="45.40969" lon="5.91787">
        <ele>1606.967797178</ele>
        <time>2016-06-18T11:16:41Z</time>
      </trkpt>
      <trkpt lat="45.40968" lon="5.91786">
        <ele>1606.967797178</ele>
        <time>2016-06-18T11:16:47Z</time>
      </trkpt>
      <trkpt lat="45.40968" lon="5.91774">
        <ele>1605.573705683</ele>
        <time>2016-06-18T11:16:57Z</time>
      </trkpt>
      <trkpt lat="45.40962" lon="5.91771">
        <ele>1605.573705683</ele>
        <time>2016-06-18T11:17:01Z</time>
      </trkpt>
      <trkpt lat="45.40954" lon="5.91763">
        <ele>1604.161084048</ele>
        <time>2016-06-18T11:17:12Z</time>
      </trkpt>
      <trkpt lat="45.40955" lon="5.91762">
        <ele>1604.161084048</ele>
        <time>2016-06-18T11:17:17Z</time>
      </trkpt>
      <trkpt lat="45.40953" lon="5.91751">
        <ele>1602.438290984</ele>
        <time>2016-06-18T11:17:26Z</time>
      </trkpt>
      <trkpt lat="45.40955" lon="5.91745">
        <ele>1602.438290984</ele>
        <time>2016-06-18T11:17:32Z</time>
      </trkpt>
      <trkpt lat="45.40952" lon="5.91728">
        <ele>1600.568485614</ele>
        <time>2016-06-18T11:17:48Z</time>
      </trkpt>
      <trkpt lat="45.40939" lon="5.91721">
        <ele>1598.847537049</ele>
        <time>2016-06-18T11:18:01Z</time>
      </trkpt>
      <trkpt lat="45.40936" lon="5.91722">
        <ele>1598.847537049</ele>
        <time>2016-06-18T11:18:07Z</time>
      </trkpt>
      <trkpt lat="45.40936" lon="5.91722">
        <ele>1598.847537049</ele>
        <time>2016-06-18T11:18:17Z</time>
      </trkpt>
      <trkpt lat="45.40934" lon="5.91723">
        <ele>1598.847537049</ele>
        <time>2016-06-18T11:18:21Z</time>
      </trkpt>
      <trkpt lat="45.4093" lon="5.91724">
        <ele>1597.981667208</ele>
        <time>2016-06-18T11:18:32Z</time>
      </trkpt>
      <trkpt lat="45.40929" lon="5.91724">
        <ele>1597.981667208</ele>
        <time>2016-06-18T11:18:37Z</time>
      </trkpt>
      <trkpt lat="45.40928" lon="5.91724">
        <ele>1597.981667208</ele>
        <time>2016-06-18T11:18:46Z</time>
      </trkpt>
      <trkpt lat="45.40926" lon="5.91724">
        <ele>1597.981667208</ele>
        <time>2016-06-18T11:18:52Z</time>
      </trkpt>
      <trkpt lat="45.40927" lon="5.91712">
        <ele>1597.181879889</ele>
        <time>2016-06-18T11:19:02Z</time>
      </trkpt>
      <trkpt lat="45.40929" lon="5.91707">
        <ele>1597.181879889</ele>
        <time>2016-06-18T11:19:06Z</time>
      </trkpt>
      <trkpt lat="45.40926" lon="5.91704">
        <ele>1597.181879889</ele>
        <time>2016-06-18T11:19:17Z</time>
      </trkpt>
      <trkpt lat="45.40927" lon="5.91698">
        <ele>1596.87001496</ele>
        <time>2016-06-18T11:19:22Z</time>
      </trkpt>
      <trkpt lat="45.40922" lon="5.91697">
        <ele>1596.87001496</ele>
        <time>2016-06-18T11:19:26Z</time>
      </trkpt>
      <trkpt lat="45.40913" lon="5.91686">
        <ele>1595.274062601</ele>
        <time>2016-06-18T11:19:37Z</time>
      </trkpt>
      <trkpt lat="45.40912" lon="5.91686">
        <ele>1595.274062601</ele>
        <time>2016-06-18T11:19:41Z</time>
      </trkpt>
      <trkpt lat="45.40912" lon="5.91684">
        <ele>1595.274062601</ele>
        <time>2016-06-18T11:19:46Z</time>
      </trkpt>
      <trkpt lat="45.40911" lon="5.91677">
        <ele>1595.274062601</ele>
        <time>2016-06-18T11:19:51Z</time>
      </trkpt>
      <trkpt lat="45.40908" lon="5.91671">
        <ele>1593.782297077</ele>
        <time>2016-06-18T11:20:02Z</time>
      </trkpt>
      <trkpt lat="45.40904" lon="5.9167">
        <ele>1593.782297077</ele>
        <time>2016-06-18T11:20:06Z</time>
      </trkpt>
      <trkpt lat="45.409" lon="5.91667">
        <ele>1593.782297077</ele>
        <time>2016-06-18T11:20:18Z</time>
      </trkpt>
      <trkpt lat="45.40898" lon="5.91665">
        <ele>1591.086891764</ele>
        <time>2016-06-18T11:20:21Z</time>
      </trkpt>
      <trkpt lat="45.409" lon="5.91662">
        <ele>1591.086891764</ele>
        <time>2016-06-18T11:20:26Z</time>
      </trkpt>
      <trkpt lat="45.40904" lon="5.9165">
        <ele>1588.573638295</ele>
        <time>2016-06-18T11:20:37Z</time>
      </trkpt>
      <trkpt lat="45.40905" lon="5.9165">
        <ele>1588.573638295</ele>
        <time>2016-06-18T11:20:42Z</time>
      </trkpt>
      <trkpt lat="45.40905" lon="5.91649">
        <ele>1588.573638295</ele>
        <time>2016-06-18T11:20:52Z</time>
      </trkpt>
      <trkpt lat="45.40915" lon="5.91645">
        <ele>1586.22917666</ele>
        <time>2016-06-18T11:20:57Z</time>
      </trkpt>
      <trkpt lat="45.40916" lon="5.91634">
        <ele>1586.22917666</ele>
        <time>2016-06-18T11:21:06Z</time>
      </trkpt>
      <trkpt lat="45.40923" lon="5.91633">
        <ele>1583.464357987</ele>
        <time>2016-06-18T11:21:12Z</time>
      </trkpt>
      <trkpt lat="45.40922" lon="5.91626">
        <ele>1583.464357987</ele>
        <time>2016-06-18T11:21:22Z</time>
      </trkpt>
      <trkpt lat="45.4092" lon="5.91626">
        <ele>1583.464357987</ele>
        <time>2016-06-18T11:21:26Z</time>
      </trkpt>
      <trkpt lat="45.40917" lon="5.91608">
        <ele>1580.455181993</ele>
        <time>2016-06-18T11:21:37Z</time>
      </trkpt>
      <trkpt lat="45.4091" lon="5.9161">
        <ele>1580.455181993</ele>
        <time>2016-06-18T11:21:41Z</time>
      </trkpt>
      <trkpt lat="45.40909" lon="5.9161">
        <ele>1580.455181993</ele>
        <time>2016-06-18T11:21:46Z</time>
      </trkpt>
      <trkpt lat="45.40907" lon="5.91602">
        <ele>1577.077304163</ele>
        <time>2016-06-18T11:21:52Z</time>
      </trkpt>
      <trkpt lat="45.40906" lon="5.91582">
        <ele>1573.504877508</ele>
        <time>2016-06-18T11:22:02Z</time>
      </trkpt>
      <trkpt lat="45.40901" lon="5.91581">
        <ele>1573.504877508</ele>
        <time>2016-06-18T11:22:06Z</time>
      </trkpt>
      <trkpt lat="45.40893" lon="5.91574">
        <ele>1569.61167523</ele>
        <time>2016-06-18T11:22:16Z</time>
      </trkpt>
      <trkpt lat="45.40891" lon="5.91567">
        <ele>1569.61167523</ele>
        <time>2016-06-18T11:22:22Z</time>
      </trkpt>
      <trkpt lat="45.40886" lon="5.91551">
        <ele>1565.858160221</ele>
        <time>2016-06-18T11:22:32Z</time>
      </trkpt>
      <trkpt lat="45.40882" lon="5.91543">
        <ele>1565.858160221</ele>
        <time>2016-06-18T11:22:37Z</time>
      </trkpt>
      <trkpt lat="45.40875" lon="5.91533">
        <ele>1562.526522773</ele>
        <time>2016-06-18T11:22:46Z</time>
      </trkpt>
      <trkpt lat="45.40877" lon="5.91533">
        <ele>1562.526522773</ele>
        <time>2016-06-18T11:22:52Z</time>
      </trkpt>
      <trkpt lat="45.40867" lon="5.91523">
        <ele>1558.435967146</ele>
        <time>2016-06-18T11:23:02Z</time>
      </trkpt>
      <trkpt lat="45.40862" lon="5.91522">
        <ele>1558.435967146</ele>
        <time>2016-06-18T11:23:06Z</time>
      </trkpt>
      <trkpt lat="45.40854" lon="5.91506">
        <ele>1554.079811956</ele>
        <time>2016-06-18T11:23:17Z</time>
      </trkpt>
      <trkpt lat="45.4085" lon="5.91501">
        <ele>1554.079811956</ele>
        <time>2016-06-18T11:23:22Z</time>
      </trkpt>
      <trkpt lat="45.40847" lon="5.91491">
        <ele>1549.915887946</ele>
        <time>2016-06-18T11:23:26Z</time>
      </trkpt>
      <trkpt lat="45.40849" lon="5.91475">
        <ele>1545.070842823</ele>
        <time>2016-06-18T11:23:37Z</time>
      </trkpt>
      <trkpt lat="45.40846" lon="5.91465">
        <ele>1545.070842823</ele>
        <time>2016-06-18T11:23:42Z</time>
      </trkpt>
      <trkpt lat="45.40834" lon="5.91451">
        <ele>1539.602027627</ele>
        <time>2016-06-18T11:23:52Z</time>
      </trkpt>
      <trkpt lat="45.40829" lon="5.91446">
        <ele>1539.602027627</ele>
        <time>2016-06-18T11:23:57Z</time>
      </trkpt>
      <trkpt lat="45.40824" lon="5.91432">
        <ele>1533.996613469</ele>
        <time>2016-06-18T11:24:06Z</time>
      </trkpt>
      <trkpt lat="45.40822" lon="5.91424">
        <ele>1533.996613469</ele>
        <time>2016-06-18T11:24:12Z</time>
      </trkpt>
      <trkpt lat="45.40816" lon="5.91411">
        <ele>1528.994519568</ele>
        <time>2016-06-18T11:24:22Z</time>
      </trkpt>
      <trkpt lat="45.40814" lon="5.91405">
        <ele>1528.994519568</ele>
        <time>2016-06-18T11:24:26Z</time>
      </trkpt>
      <trkpt lat="45.40801" lon="5.91389">
        <ele>1524.126639684</ele>
        <time>2016-06-18T11:24:37Z</time>
      </trkpt>
      <trkpt lat="45.40799" lon="5.91383">
        <ele>1524.126639684</ele>
        <time>2016-06-18T11:24:41Z</time>
      </trkpt>
      <trkpt lat="45.40803" lon="5.91362">
        <ele>1519.390178028</ele>
        <time>2016-06-18T11:24:53Z</time>
      </trkpt>
      <trkpt lat="45.40791" lon="5.91359">
        <ele>1515.358500511</ele>
        <time>2016-06-18T11:24:56Z</time>
      </trkpt>
      <trkpt lat="45.40786" lon="5.91347">
        <ele>1511.263747285</ele>
        <time>2016-06-18T11:25:06Z</time>
      </trkpt>
      <trkpt lat="45.40782" lon="5.91338">
        <ele>1511.263747285</ele>
        <time>2016-06-18T11:25:12Z</time>
      </trkpt>
      <trkpt lat="45.40771" lon="5.91333">
        <ele>1506.682728035</ele>
        <time>2016-06-18T11:25:22Z</time>
      </trkpt>
      <trkpt lat="45.40766" lon="5.9133">
        <ele>1506.682728035</ele>
        <time>2016-06-18T11:25:26Z</time>
      </trkpt>
      <trkpt lat="45.40759" lon="5.91311">
        <ele>1502.66567475</ele>
        <time>2016-06-18T11:25:37Z</time>
      </trkpt>
      <trkpt lat="45.4077" lon="5.91297">
        <ele>1499.319278111</ele>
        <time>2016-06-18T11:25:42Z</time>
      </trkpt>
      <trkpt lat="45.40764" lon="5.9129">
        <ele>1499.319278111</ele>
        <time>2016-06-18T11:25:46Z</time>
      </trkpt>
      <trkpt lat="45.40757" lon="5.91284">
        <ele>1496.452145283</ele>
        <time>2016-06-18T11:25:52Z</time>
      </trkpt>
      <trkpt lat="45.40757" lon="5.91278">
        <ele>1496.452145283</ele>
        <time>2016-06-18T11:25:57Z</time>
      </trkpt>
      <trkpt lat="45.40752" lon="5.91275">
        <ele>1493.597237196</ele>
        <time>2016-06-18T11:26:02Z</time>
      </trkpt>
      <trkpt lat="45.40737" lon="5.91265">
        <ele>1490.32165575</ele>
        <time>2016-06-18T11:26:12Z</time>
      </trkpt>
      <trkpt lat="45.40741" lon="5.91254">
        <ele>1490.32165575</ele>
        <time>2016-06-18T11:26:17Z</time>
      </trkpt>
      <trkpt lat="45.40731" lon="5.91241">
        <ele>1487.810581563</ele>
        <time>2016-06-18T11:26:26Z</time>
      </trkpt>
      <trkpt lat="45.40729" lon="5.91232">
        <ele>1487.810581563</ele>
        <time>2016-06-18T11:26:32Z</time>
      </trkpt>
      <trkpt lat="45.40724" lon="5.91219">
        <ele>1485.574649941</ele>
        <time>2016-06-18T11:26:42Z</time>
      </trkpt>
      <trkpt lat="45.4072" lon="5.91213">
        <ele>1485.574649941</ele>
        <time>2016-06-18T11:26:46Z</time>
      </trkpt>
      <trkpt lat="45.40713" lon="5.91192">
        <ele>1483.159567604</ele>
        <time>2016-06-18T11:26:58Z</time>
      </trkpt>
      <trkpt lat="45.40704" lon="5.9119">
        <ele>1480.721266201</ele>
        <time>2016-06-18T11:27:02Z</time>
      </trkpt>
      <trkpt lat="45.40688" lon="5.91181">
        <ele>1478.548316493</ele>
        <time>2016-06-18T11:27:12Z</time>
      </trkpt>
      <trkpt lat="45.40695" lon="5.91161">
        <ele>1477.195499358</ele>
        <time>2016-06-18T11:27:17Z</time>
      </trkpt>
      <trkpt lat="45.40684" lon="5.91143">
        <ele>1474.86870469</ele>
        <time>2016-06-18T11:27:31Z</time>
      </trkpt>
      <trkpt lat="45.40678" lon="5.91119">
        <ele>1472.502304149</ele>
        <time>2016-06-18T11:27:46Z</time>
      </trkpt>
      <trkpt lat="45.40667" lon="5.91111">
        <ele>1470.241551756</ele>
        <time>2016-06-18T11:27:52Z</time>
      </trkpt>
      <trkpt lat="45.4066" lon="5.91097">
        <ele>1468.220710544</ele>
        <time>2016-06-18T11:28:02Z</time>
      </trkpt>
      <trkpt lat="45.40658" lon="5.91092">
        <ele>1468.220710544</ele>
        <time>2016-06-18T11:28:06Z</time>
      </trkpt>
      <trkpt lat="45.40645" lon="5.91082">
        <ele>1465.987046872</ele>
        <time>2016-06-18T11:28:17Z</time>
      </trkpt>
      <trkpt lat="45.40643" lon="5.91077">
        <ele>1465.987046872</ele>
        <time>2016-06-18T11:28:22Z</time>
      </trkpt>
      <trkpt lat="45.40637" lon="5.91076">
        <ele>1464.418675261</ele>
        <time>2016-06-18T11:28:32Z</time>
      </trkpt>
      <trkpt lat="45.40635" lon="5.91078">
        <ele>1464.418675261</ele>
        <time>2016-06-18T11:28:37Z</time>
      </trkpt>
      <trkpt lat="45.4063" lon="5.91082">
        <ele>1464.418675261</ele>
        <time>2016-06-18T11:28:46Z</time>
      </trkpt>
      <trkpt lat="45.40623" lon="5.91066">
        <ele>1462.742117757</ele>
        <time>2016-06-18T11:29:01Z</time>
      </trkpt>
      <trkpt lat="45.40617" lon="5.91057">
        <ele>1462.742117757</ele>
        <time>2016-06-18T11:29:06Z</time>
      </trkpt>
      <trkpt lat="45.40612" lon="5.91028">
        <ele>1459.808695719</ele>
        <time>2016-06-18T11:29:22Z</time>
      </trkpt>
      <trkpt lat="45.40614" lon="5.91018">
        <ele>1459.808695719</ele>
        <time>2016-06-18T11:29:26Z</time>
      </trkpt>
      <trkpt lat="45.40591" lon="5.91013">
        <ele>1457.58398958</ele>
        <time>2016-06-18T11:29:36Z</time>
      </trkpt>
      <trkpt lat="45.40576" lon="5.91016">
        <ele>1455.437334776</ele>
        <time>2016-06-18T11:29:41Z</time>
      </trkpt>
      <trkpt lat="45.4057" lon="5.9101">
        <ele>1455.437334776</ele>
        <time>2016-06-18T11:29:46Z</time>
      </trkpt>
      <trkpt lat="45.40566" lon="5.90975">
        <ele>1453.216537101</ele>
        <time>2016-06-18T11:30:02Z</time>
      </trkpt>
      <trkpt lat="45.40571" lon="5.90966">
        <ele>1453.216537101</ele>
        <time>2016-06-18T11:30:06Z</time>
      </trkpt>
      <trkpt lat="45.40559" lon="5.90936">
        <ele>1451.501378271</ele>
        <time>2016-06-18T11:30:22Z</time>
      </trkpt>
      <trkpt lat="45.4055" lon="5.90935">
        <ele>1449.818890651</ele>
        <time>2016-06-18T11:30:26Z</time>
      </trkpt>
      <trkpt lat="45.40535" lon="5.9092">
        <ele>1448.739581984</ele>
        <time>2016-06-18T11:30:38Z</time>
      </trkpt>
      <trkpt lat="45.40524" lon="5.90918">
        <ele>1447.925745499</ele>
        <time>2016-06-18T11:30:42Z</time>
      </trkpt>
      <trkpt lat="45.40518" lon="5.90905">
        <ele>1446.919689997</ele>
        <time>2016-06-18T11:30:52Z</time>
      </trkpt>
      <trkpt lat="45.40517" lon="5.90887">
        <ele>1446.450849788</ele>
        <time>2016-06-18T11:30:57Z</time>
      </trkpt>
      <trkpt lat="45.40509" lon="5.90875">
        <ele>1445.752543537</ele>
        <time>2016-06-18T11:31:06Z</time>
      </trkpt>
      <trkpt lat="45.40505" lon="5.90866">
        <ele>1445.752543537</ele>
        <time>2016-06-18T11:31:11Z</time>
      </trkpt>
      <trkpt lat="45.4049" lon="5.90856">
        <ele>1444.979818638</ele>
        <time>2016-06-18T11:31:22Z</time>
      </trkpt>
      <trkpt lat="45.40486" lon="5.90849">
        <ele>1444.979818638</ele>
        <time>2016-06-18T11:31:26Z</time>
      </trkpt>
      <trkpt lat="45.4047" lon="5.90837">
        <ele>1444.853095641</ele>
        <time>2016-06-18T11:31:37Z</time>
      </trkpt>
      <trkpt lat="45.40471" lon="5.90829">
        <ele>1444.853095641</ele>
        <time>2016-06-18T11:31:42Z</time>
      </trkpt>
      <trkpt lat="45.40463" lon="5.90811">
        <ele>1444.741181307</ele>
        <time>2016-06-18T11:31:51Z</time>
      </trkpt>
      <trkpt lat="45.40458" lon="5.90806">
        <ele>1444.741181307</ele>
        <time>2016-06-18T11:31:57Z</time>
      </trkpt>
      <trkpt lat="45.40456" lon="5.90785">
        <ele>1444.347561242</ele>
        <time>2016-06-18T11:32:06Z</time>
      </trkpt>
      <trkpt lat="45.4045" lon="5.9078">
        <ele>1444.347561242</ele>
        <time>2016-06-18T11:32:14Z</time>
      </trkpt>
      <trkpt lat="45.40437" lon="5.90765">
        <ele>1443.254321701</ele>
        <time>2016-06-18T11:32:22Z</time>
      </trkpt>
      <trkpt lat="45.4044" lon="5.90754">
        <ele>1443.254321701</ele>
        <time>2016-06-18T11:32:26Z</time>
      </trkpt>
      <trkpt lat="45.40443" lon="5.90724">
        <ele>1442.373359015</ele>
        <time>2016-06-18T11:32:42Z</time>
      </trkpt>
      <trkpt lat="45.40439" lon="5.9072">
        <ele>1442.373359015</ele>
        <time>2016-06-18T11:32:46Z</time>
      </trkpt>
      <trkpt lat="45.40434" lon="5.90708">
        <ele>1440.819803476</ele>
        <time>2016-06-18T11:32:57Z</time>
      </trkpt>
      <trkpt lat="45.40433" lon="5.90708">
        <ele>1440.819803476</ele>
        <time>2016-06-18T11:33:02Z</time>
      </trkpt>
      <trkpt lat="45.40425" lon="5.90703">
        <ele>1440.819803476</ele>
        <time>2016-06-18T11:33:12Z</time>
      </trkpt>
      <trkpt lat="45.40421" lon="5.907">
        <ele>1438.928714393</ele>
        <time>2016-06-18T11:33:17Z</time>
      </trkpt>
      <trkpt lat="45.40422" lon="5.90696">
        <ele>1438.928714393</ele>
        <time>2016-06-18T11:33:26Z</time>
      </trkpt>
      <trkpt lat="45.40422" lon="5.90695">
        <ele>1438.928714393</ele>
        <time>2016-06-18T11:33:32Z</time>
      </trkpt>
      <trkpt lat="45.40414" lon="5.90686">
        <ele>1437.011632708</ele>
        <time>2016-06-18T11:33:42Z</time>
      </trkpt>
      <trkpt lat="45.40417" lon="5.90683">
        <ele>1437.011632708</ele>
        <time>2016-06-18T11:33:46Z</time>
      </trkpt>
      <trkpt lat="45.40419" lon="5.90672">
        <ele>1434.49276178</ele>
        <time>2016-06-18T11:33:58Z</time>
      </trkpt>
      <trkpt lat="45.40416" lon="5.90661">
        <ele>1434.49276178</ele>
        <time>2016-06-18T11:34:02Z</time>
      </trkpt>
      <trkpt lat="45.40418" lon="5.90645">
        <ele>1431.705091164</ele>
        <time>2016-06-18T11:34:13Z</time>
      </trkpt>
      <trkpt lat="45.40416" lon="5.90638">
        <ele>1431.705091164</ele>
        <time>2016-06-18T11:34:16Z</time>
      </trkpt>
      <trkpt lat="45.40415" lon="5.90638">
        <ele>1431.705091164</ele>
        <time>2016-06-18T11:34:26Z</time>
      </trkpt>
      <trkpt lat="45.40406" lon="5.90637">
        <ele>1428.669803179</ele>
        <time>2016-06-18T11:34:32Z</time>
      </trkpt>
      <trkpt lat="45.40401" lon="5.90627">
        <ele>1428.669803179</ele>
        <time>2016-06-18T11:34:43Z</time>
      </trkpt>
      <trkpt lat="45.404" lon="5.90622">
        <ele>1425.119105049</ele>
        <time>2016-06-18T11:34:46Z</time>
      </trkpt>
      <trkpt lat="45.40399" lon="5.906">
        <ele>1421.671082142</ele>
        <time>2016-06-18T11:35:01Z</time>
      </trkpt>
      <trkpt lat="45.40397" lon="5.90593">
        <ele>1421.671082142</ele>
        <time>2016-06-18T11:35:06Z</time>
      </trkpt>
      <trkpt lat="45.40398" lon="5.90592">
        <ele>1421.671082142</ele>
        <time>2016-06-18T11:35:16Z</time>
      </trkpt>
      <trkpt lat="45.40398" lon="5.90591">
        <ele>1421.671082142</ele>
        <time>2016-06-18T11:35:21Z</time>
      </trkpt>
      <trkpt lat="45.40394" lon="5.90588">
        <ele>1418.177648883</ele>
        <time>2016-06-18T11:35:31Z</time>
      </trkpt>
      <trkpt lat="45.40394" lon="5.90588">
        <ele>1418.177648883</ele>
        <time>2016-06-18T11:35:36Z</time>
      </trkpt>
      <trkpt lat="45.40383" lon="5.90564">
        <ele>1414.934119946</ele>
        <time>2016-06-18T11:35:46Z</time>
      </trkpt>
      <trkpt lat="45.4038" lon="5.9056">
        <ele>1414.934119946</ele>
        <time>2016-06-18T11:35:51Z</time>
      </trkpt>
      <trkpt lat="45.40369" lon="5.90543">
        <ele>1411.204682141</ele>
        <time>2016-06-18T11:36:01Z</time>
      </trkpt>
      <trkpt lat="45.40365" lon="5.90543">
        <ele>1411.204682141</ele>
        <time>2016-06-18T11:36:06Z</time>
      </trkpt>
      <trkpt lat="45.40364" lon="5.90544">
        <ele>1411.204682141</ele>
        <time>2016-06-18T11:36:16Z</time>
      </trkpt>
      <trkpt lat="45.40364" lon="5.90544">
        <ele>1411.204682141</ele>
        <time>2016-06-18T11:36:21Z</time>
      </trkpt>
      <trkpt lat="45.40358" lon="5.90532">
        <ele>1407.029522766</ele>
        <time>2016-06-18T11:36:31Z</time>
      </trkpt>
      <trkpt lat="45.40351" lon="5.90534">
        <ele>1407.029522766</ele>
        <time>2016-06-18T11:36:36Z</time>
      </trkpt>
      <trkpt lat="45.4035" lon="5.90528">
        <ele>1401.870694221</ele>
        <time>2016-06-18T11:36:46Z</time>
      </trkpt>
      <trkpt lat="45.40346" lon="5.90524">
        <ele>1401.870694221</ele>
        <time>2016-06-18T11:36:51Z</time>
      </trkpt>
      <trkpt lat="45.40341" lon="5.90518">
        <ele>1396.097183987</ele>
        <time>2016-06-18T11:37:01Z</time>
      </trkpt>
      <trkpt lat="45.4034" lon="5.90519">
        <ele>1396.097183987</ele>
        <time>2016-06-18T11:37:06Z</time>
      </trkpt>
      <trkpt lat="45.40335" lon="5.90513">
        <ele>1396.097183987</ele>
        <time>2016-06-18T11:37:21Z</time>
      </trkpt>
      <trkpt lat="45.40339" lon="5.90516">
        <ele>1389.620231802</ele>
        <time>2016-06-18T11:37:26Z</time>
      </trkpt>
      <trkpt lat="45.40343" lon="5.90507">
        <ele>1389.620231802</ele>
        <time>2016-06-18T11:37:36Z</time>
      </trkpt>
      <trkpt lat="45.40344" lon="5.9051">
        <ele>1382.935955237</ele>
        <time>2016-06-18T11:37:41Z</time>
      </trkpt>
      <trkpt lat="45.40347" lon="5.90511">
        <ele>1382.935955237</ele>
        <time>2016-06-18T11:37:51Z</time>
      </trkpt>
      <trkpt lat="45.40347" lon="5.90511">
        <ele>1382.935955237</ele>
        <time>2016-06-18T11:37:56Z</time>
      </trkpt>
      <trkpt lat="45.40358" lon="5.90508">
        <ele>1375.495739524</ele>
        <time>2016-06-18T11:38:06Z</time>
      </trkpt>
      <trkpt lat="45.40362" lon="5.90505">
        <ele>1375.495739524</ele>
        <time>2016-06-18T11:38:11Z</time>
      </trkpt>
      <trkpt lat="45.40361" lon="5.90498">
        <ele>1367.657934641</ele>
        <time>2016-06-18T11:38:21Z</time>
      </trkpt>
      <trkpt lat="45.40361" lon="5.90498">
        <ele>1367.657934641</ele>
        <time>2016-06-18T11:38:26Z</time>
      </trkpt>
      <trkpt lat="45.40362" lon="5.90497">
        <ele>1367.657934641</ele>
        <time>2016-06-18T11:38:36Z</time>
      </trkpt>
      <trkpt lat="45.40366" lon="5.9049">
        <ele>1367.657934641</ele>
        <time>2016-06-18T11:38:41Z</time>
      </trkpt>
      <trkpt lat="45.40362" lon="5.90466">
        <ele>1360.476081761</ele>
        <time>2016-06-18T11:38:51Z</time>
      </trkpt>
      <trkpt lat="45.40361" lon="5.90453">
        <ele>1360.476081761</ele>
        <time>2016-06-18T11:38:56Z</time>
      </trkpt>
      <trkpt lat="45.40364" lon="5.9047">
        <ele>1353.771414279</ele>
        <time>2016-06-18T11:39:06Z</time>
      </trkpt>
      <trkpt lat="45.40367" lon="5.90469">
        <ele>1353.771414279</ele>
        <time>2016-06-18T11:39:11Z</time>
      </trkpt>
      <trkpt lat="45.40369" lon="5.90467">
        <ele>1353.771414279</ele>
        <time>2016-06-18T11:39:21Z</time>
      </trkpt>
      <trkpt lat="45.40368" lon="5.90467">
        <ele>1353.771414279</ele>
        <time>2016-06-18T11:39:26Z</time>
      </trkpt>
      <trkpt lat="45.40368" lon="5.90466">
        <ele>1353.771414279</ele>
        <time>2016-06-18T11:39:41Z</time>
      </trkpt>
      <trkpt lat="45.40365" lon="5.90462">
        <ele>1347.232635391</ele>
        <time>2016-06-18T11:39:46Z</time>
      </trkpt>
      <trkpt lat="45.40366" lon="5.90427">
        <ele>1340.138281642</ele>
        <time>2016-06-18T11:39:56Z</time>
      </trkpt>
      <trkpt lat="45.40363" lon="5.90424">
        <ele>1340.138281642</ele>
        <time>2016-06-18T11:40:01Z</time>
      </trkpt>
      <trkpt lat="45.40362" lon="5.90417">
        <ele>1340.138281642</ele>
        <time>2016-06-18T11:40:11Z</time>
      </trkpt>
      <trkpt lat="45.40362" lon="5.90417">
        <ele>1340.138281642</ele>
        <time>2016-06-18T11:40:16Z</time>
      </trkpt>
      <trkpt lat="45.40353" lon="5.90397">
        <ele>1331.96530114</ele>
        <time>2016-06-18T11:40:26Z</time>
      </trkpt>
      <trkpt lat="45.40346" lon="5.90397">
        <ele>1331.96530114</ele>
        <time>2016-06-18T11:40:31Z</time>
      </trkpt>
      <trkpt lat="45.40348" lon="5.9037">
        <ele>1323.240591511</ele>
        <time>2016-06-18T11:40:41Z</time>
      </trkpt>
      <trkpt lat="45.40344" lon="5.90376">
        <ele>1323.240591511</ele>
        <time>2016-06-18T11:40:46Z</time>
      </trkpt>
      <trkpt lat="45.40346" lon="5.90374">
        <ele>1323.240591511</ele>
        <time>2016-06-18T11:40:56Z</time>
      </trkpt>
      <trkpt lat="45.4035" lon="5.90372">
        <ele>1315.462372222</ele>
        <time>2016-06-18T11:41:01Z</time>
      </trkpt>
      <trkpt lat="45.40351" lon="5.90371">
        <ele>1315.462372222</ele>
        <time>2016-06-18T11:41:11Z</time>
      </trkpt>
      <trkpt lat="45.40357" lon="5.90352">
        <ele>1307.854162353</ele>
        <time>2016-06-18T11:41:16Z</time>
      </trkpt>
      <trkpt lat="45.40364" lon="5.90342">
        <ele>1299.983927673</ele>
        <time>2016-06-18T11:41:26Z</time>
      </trkpt>
      <trkpt lat="45.40364" lon="5.90338">
        <ele>1299.983927673</ele>
        <time>2016-06-18T11:41:31Z</time>
      </trkpt>
      <trkpt lat="45.40362" lon="5.90332">
        <ele>1299.983927673</ele>
        <time>2016-06-18T11:41:41Z</time>
      </trkpt>
      <trkpt lat="45.40363" lon="5.90331">
        <ele>1299.983927673</ele>
        <time>2016-06-18T11:41:46Z</time>
      </trkpt>
      <trkpt lat="45.40359" lon="5.90315">
        <ele>1291.884084993</ele>
        <time>2016-06-18T11:42:01Z</time>
      </trkpt>
      <trkpt lat="45.40358" lon="5.9031">
        <ele>1291.884084993</ele>
        <time>2016-06-18T11:42:06Z</time>
      </trkpt>
      <trkpt lat="45.40357" lon="5.90295">
        <ele>1283.584946204</ele>
        <time>2016-06-18T11:42:16Z</time>
      </trkpt>
      <trkpt lat="45.40356" lon="5.90284">
        <ele>1283.584946204</ele>
        <time>2016-06-18T11:42:21Z</time>
      </trkpt>
      <trkpt lat="45.40343" lon="5.90277">
        <ele>1275.114775431</ele>
        <time>2016-06-18T11:42:31Z</time>
      </trkpt>
      <trkpt lat="45.40341" lon="5.90281">
        <ele>1275.114775431</ele>
        <time>2016-06-18T11:42:36Z</time>
      </trkpt>
      <trkpt lat="45.40336" lon="5.90293">
        <ele>1265.202845386</ele>
        <time>2016-06-18T11:42:46Z</time>
      </trkpt>
      <trkpt lat="45.40329" lon="5.90288">
        <ele>1265.202845386</ele>
        <time>2016-06-18T11:42:51Z</time>
      </trkpt>
      <trkpt lat="45.40326" lon="5.90269">
        <ele>1256.422303062</ele>
        <time>2016-06-18T11:43:01Z</time>
      </trkpt>
      <trkpt lat="45.40334" lon="5.90269">
        <ele>1256.422303062</ele>
        <time>2016-06-18T11:43:07Z</time>
      </trkpt>
      <trkpt lat="45.40338" lon="5.90259">
        <ele>1239.480660675</ele>
        <time>2016-06-18T11:43:17Z</time>
      </trkpt>
      <trkpt lat="45.40337" lon="5.90251">
        <ele>1239.480660675</ele>
        <time>2016-06-18T11:43:21Z</time>
      </trkpt>
      <trkpt lat="45.40327" lon="5.90236">
        <ele>1231.730501422</ele>
        <time>2016-06-18T11:43:32Z</time>
      </trkpt>
      <trkpt lat="45.4033" lon="5.90227">
        <ele>1231.730501422</ele>
        <time>2016-06-18T11:43:37Z</time>
      </trkpt>
      <trkpt lat="45.40324" lon="5.90217">
        <ele>1224.724541393</ele>
        <time>2016-06-18T11:43:46Z</time>
      </trkpt>
      <trkpt lat="45.40317" lon="5.90218">
        <ele>1224.724541393</ele>
        <time>2016-06-18T11:43:52Z</time>
      </trkpt>
      <trkpt lat="45.40323" lon="5.90217">
        <ele>1218.847795178</ele>
        <time>2016-06-18T11:44:02Z</time>
      </trkpt>
      <trkpt lat="45.40319" lon="5.90215">
        <ele>1218.847795178</ele>
        <time>2016-06-18T11:44:06Z</time>
      </trkpt>
      <trkpt lat="45.40322" lon="5.90213">
        <ele>1218.847795178</ele>
        <time>2016-06-18T11:44:17Z</time>
      </trkpt>
      <trkpt lat="45.40322" lon="5.90213">
        <ele>1218.847795178</ele>
        <time>2016-06-18T11:44:22Z</time>
      </trkpt>
      <trkpt lat="45.40322" lon="5.90213">
        <ele>1218.847795178</ele>
        <time>2016-06-18T11:44:26Z</time>
      </trkpt>
      <trkpt lat="45.40322" lon="5.90193">
        <ele>1213.300458154</ele>
        <time>2016-06-18T11:44:38Z</time>
      </trkpt>
      <trkpt lat="45.40325" lon="5.90181">
        <ele>1213.300458154</ele>
        <time>2016-06-18T11:44:41Z</time>
      </trkpt>
      <trkpt lat="45.40329" lon="5.90156">
        <ele>1207.772430712</ele>
        <time>2016-06-18T11:44:51Z</time>
      </trkpt>
      <trkpt lat="45.40329" lon="5.90152">
        <ele>1207.772430712</ele>
        <time>2016-06-18T11:44:57Z</time>
      </trkpt>
      <trkpt lat="45.40345" lon="5.90146">
        <ele>1202.264128896</ele>
        <time>2016-06-18T11:45:06Z</time>
      </trkpt>
      <trkpt lat="45.40346" lon="5.90149">
        <ele>1202.264128896</ele>
        <time>2016-06-18T11:45:12Z</time>
      </trkpt>
      <trkpt lat="45.40343" lon="5.90137">
        <ele>1196.199031923</ele>
        <time>2016-06-18T11:45:22Z</time>
      </trkpt>
      <trkpt lat="45.40342" lon="5.90133">
        <ele>1196.199031923</ele>
        <time>2016-06-18T11:45:26Z</time>
      </trkpt>
      <trkpt lat="45.40342" lon="5.90127">
        <ele>1196.199031923</ele>
        <time>2016-06-18T11:45:31Z</time>
      </trkpt>
      <trkpt lat="45.40338" lon="5.9012">
        <ele>1190.629374315</ele>
        <time>2016-06-18T11:45:42Z</time>
      </trkpt>
      <trkpt lat="45.40344" lon="5.90112">
        <ele>1190.629374315</ele>
        <time>2016-06-18T11:45:46Z</time>
      </trkpt>
      <trkpt lat="45.4034" lon="5.90093">
        <ele>1185.375459686</ele>
        <time>2016-06-18T11:45:57Z</time>
      </trkpt>
      <trkpt lat="45.40343" lon="5.90087">
        <ele>1185.375459686</ele>
        <time>2016-06-18T11:46:02Z</time>
      </trkpt>
      <trkpt lat="45.40342" lon="5.9008">
        <ele>1180.125464643</ele>
        <time>2016-06-18T11:46:11Z</time>
      </trkpt>
      <trkpt lat="45.40339" lon="5.9007">
        <ele>1180.125464643</ele>
        <time>2016-06-18T11:46:17Z</time>
      </trkpt>
      <trkpt lat="45.40338" lon="5.90053">
        <ele>1175.598934813</ele>
        <time>2016-06-18T11:46:26Z</time>
      </trkpt>
      <trkpt lat="45.40338" lon="5.90047">
        <ele>1175.598934813</ele>
        <time>2016-06-18T11:46:31Z</time>
      </trkpt>
      <trkpt lat="45.40356" lon="5.9004">
        <ele>1171.019139816</ele>
        <time>2016-06-18T11:46:42Z</time>
      </trkpt>
      <trkpt lat="45.40346" lon="5.90022">
        <ele>1167.251531409</ele>
        <time>2016-06-18T11:46:46Z</time>
      </trkpt>
      <trkpt lat="45.40347" lon="5.90009">
        <ele>1164.086712057</ele>
        <time>2016-06-18T11:46:58Z</time>
      </trkpt>
      <trkpt lat="45.40343" lon="5.90005">
        <ele>1164.086712057</ele>
        <time>2016-06-18T11:47:02Z</time>
      </trkpt>
      <trkpt lat="45.40344" lon="5.89986">
        <ele>1161.761126053</ele>
        <time>2016-06-18T11:47:11Z</time>
      </trkpt>
      <trkpt lat="45.40345" lon="5.8998">
        <ele>1161.761126053</ele>
        <time>2016-06-18T11:47:17Z</time>
      </trkpt>
      <trkpt lat="45.40359" lon="5.89968">
        <ele>1159.050235207</ele>
        <time>2016-06-18T11:47:31Z</time>
      </trkpt>
      <trkpt lat="45.40364" lon="5.89946">
        <ele>1156.405648249</ele>
        <time>2016-06-18T11:47:42Z</time>
      </trkpt>
      <trkpt lat="45.40367" lon="5.89941">
        <ele>1156.405648249</ele>
        <time>2016-06-18T11:47:46Z</time>
      </trkpt>
      <trkpt lat="45.40378" lon="5.89924">
        <ele>1153.81320504</ele>
        <time>2016-06-18T11:47:51Z</time>
      </trkpt>
      <trkpt lat="45.40381" lon="5.89913">
        <ele>1153.81320504</ele>
        <time>2016-06-18T11:48:02Z</time>
      </trkpt>
      <trkpt lat="45.40378" lon="5.89905">
        <ele>1150.683153559</ele>
        <time>2016-06-18T11:48:06Z</time>
      </trkpt>
      <trkpt lat="45.40381" lon="5.89891">
        <ele>1147.767562397</ele>
        <time>2016-06-18T11:48:11Z</time>
      </trkpt>
      <trkpt lat="45.40384" lon="5.89883">
        <ele>1147.767562397</ele>
        <time>2016-06-18T11:48:16Z</time>
      </trkpt>
      <trkpt lat="45.40391" lon="5.8986">
        <ele>1145.18622442</ele>
        <time>2016-06-18T11:48:26Z</time>
      </trkpt>
      <trkpt lat="45.40387" lon="5.89852">
        <ele>1145.18622442</ele>
        <time>2016-06-18T11:48:31Z</time>
      </trkpt>
      <trkpt lat="45.40404" lon="5.8982">
        <ele>1142.184569908</ele>
        <time>2016-06-18T11:48:46Z</time>
      </trkpt>
      <trkpt lat="45.40403" lon="5.89804">
        <ele>1139.649926864</ele>
        <time>2016-06-18T11:48:51Z</time>
      </trkpt>
      <trkpt lat="45.40408" lon="5.8976">
        <ele>1137.394440708</ele>
        <time>2016-06-18T11:49:01Z</time>
      </trkpt>
      <trkpt lat="45.40409" lon="5.89757">
        <ele>1137.394440708</ele>
        <time>2016-06-18T11:49:06Z</time>
      </trkpt>
      <trkpt lat="45.40421" lon="5.89745">
        <ele>1135.675717829</ele>
        <time>2016-06-18T11:49:12Z</time>
      </trkpt>
      <trkpt lat="45.40422" lon="5.89732">
        <ele>1135.675717829</ele>
        <time>2016-06-18T11:49:17Z</time>
      </trkpt>
      <trkpt lat="45.40421" lon="5.89722">
        <ele>1134.586958273</ele>
        <time>2016-06-18T11:49:21Z</time>
      </trkpt>
      <trkpt lat="45.40429" lon="5.89696">
        <ele>1132.915905409</ele>
        <time>2016-06-18T11:49:32Z</time>
      </trkpt>
      <trkpt lat="45.40439" lon="5.89665">
        <ele>1130.982279426</ele>
        <time>2016-06-18T11:49:46Z</time>
      </trkpt>
      <trkpt lat="45.40443" lon="5.89661">
        <ele>1130.982279426</ele>
        <time>2016-06-18T11:49:51Z</time>
      </trkpt>
      <trkpt lat="45.40446" lon="5.89637">
        <ele>1128.650917138</ele>
        <time>2016-06-18T11:50:01Z</time>
      </trkpt>
      <trkpt lat="45.40451" lon="5.89621">
        <ele>1127.527252712</ele>
        <time>2016-06-18T11:50:06Z</time>
      </trkpt>
      <trkpt lat="45.40457" lon="5.89606">
        <ele>1162.097151876</ele>
        <time>2016-06-18T11:50:17Z</time>
      </trkpt>
      <trkpt lat="45.40455" lon="5.89596">
        <ele>1162.097151876</ele>
        <time>2016-06-18T11:50:21Z</time>
      </trkpt>
      <trkpt lat="45.40478" lon="5.89592">
        <ele>1162.615023427</ele>
        <time>2016-06-18T11:50:35Z</time>
      </trkpt>
      <trkpt lat="45.40485" lon="5.89584">
        <ele>1161.397416093</ele>
        <time>2016-06-18T11:50:36Z</time>
      </trkpt>
      <trkpt lat="45.40488" lon="5.89574">
        <ele>1161.397416093</ele>
        <time>2016-06-18T11:50:46Z</time>
      </trkpt>
      <trkpt lat="45.40498" lon="5.89564">
        <ele>1158.849515823</ele>
        <time>2016-06-18T11:50:51Z</time>
      </trkpt>
      <trkpt lat="45.40516" lon="5.89559">
        <ele>1156.936252886</ele>
        <time>2016-06-18T11:51:01Z</time>
      </trkpt>
      <trkpt lat="45.40516" lon="5.89555">
        <ele>1156.936252886</ele>
        <time>2016-06-18T11:51:06Z</time>
      </trkpt>
      <trkpt lat="45.40531" lon="5.89522">
        <ele>1155.171195894</ele>
        <time>2016-06-18T11:51:21Z</time>
      </trkpt>
      <trkpt lat="45.40538" lon="5.8952">
        <ele>1155.171195894</ele>
        <time>2016-06-18T11:51:26Z</time>
      </trkpt>
      <trkpt lat="45.40551" lon="5.89514">
        <ele>1152.815528873</ele>
        <time>2016-06-18T11:51:36Z</time>
      </trkpt>
      <trkpt lat="45.40563" lon="5.8951">
        <ele>1150.916200442</ele>
        <time>2016-06-18T11:51:41Z</time>
      </trkpt>
      <trkpt lat="45.40583" lon="5.89506">
        <ele>1149.289563526</ele>
        <time>2016-06-18T11:51:51Z</time>
      </trkpt>
      <trkpt lat="45.40585" lon="5.89515">
        <ele>1149.289563526</ele>
        <time>2016-06-18T11:51:56Z</time>
      </trkpt>
      <trkpt lat="45.406" lon="5.8952">
        <ele>1147.765160438</ele>
        <time>2016-06-18T11:52:06Z</time>
      </trkpt>
      <trkpt lat="45.40603" lon="5.89517">
        <ele>1147.765160438</ele>
        <time>2016-06-18T11:52:11Z</time>
      </trkpt>
      <trkpt lat="45.4062" lon="5.89514">
        <ele>1145.752880355</ele>
        <time>2016-06-18T11:52:21Z</time>
      </trkpt>
      <trkpt lat="45.40634" lon="5.89524">
        <ele>1144.004759137</ele>
        <time>2016-06-18T11:52:26Z</time>
      </trkpt>
      <trkpt lat="45.4064" lon="5.89534">
        <ele>1142.352591841</ele>
        <time>2016-06-18T11:52:36Z</time>
      </trkpt>
      <trkpt lat="45.40642" lon="5.8954">
        <ele>1142.352591841</ele>
        <time>2016-06-18T11:52:41Z</time>
      </trkpt>
      <trkpt lat="45.40648" lon="5.89544">
        <ele>1140.496543306</ele>
        <time>2016-06-18T11:53:06Z</time>
      </trkpt>
      <trkpt lat="45.40651" lon="5.89544">
        <ele>1140.496543306</ele>
        <time>2016-06-18T11:53:11Z</time>
      </trkpt>
      <trkpt lat="45.40669" lon="5.89543">
        <ele>1137.871528727</ele>
        <time>2016-06-18T11:53:21Z</time>
      </trkpt>
      <trkpt lat="45.40697" lon="5.89536">
        <ele>1135.253487337</ele>
        <time>2016-06-18T11:53:26Z</time>
      </trkpt>
      <trkpt lat="45.40742" lon="5.89556">
        <ele>1158.725284113</ele>
        <time>2016-06-18T11:53:36Z</time>
      </trkpt>
      <trkpt lat="45.4076" lon="5.89564">
        <ele>1168.683838012</ele>
        <time>2016-06-18T11:53:41Z</time>
      </trkpt>
      <trkpt lat="45.40761" lon="5.89549">
        <ele>1167.81599856</ele>
        <time>2016-06-18T11:53:51Z</time>
      </trkpt>
      <trkpt lat="45.40766" lon="5.89547">
        <ele>1167.81599856</ele>
        <time>2016-06-18T11:53:56Z</time>
      </trkpt>
      <trkpt lat="45.40786" lon="5.89542">
        <ele>1165.127114136</ele>
        <time>2016-06-18T11:54:06Z</time>
      </trkpt>
      <trkpt lat="45.40797" lon="5.89541">
        <ele>1161.184632354</ele>
        <time>2016-06-18T11:54:11Z</time>
      </trkpt>
      <trkpt lat="45.40809" lon="5.89533">
        <ele>1156.806549146</ele>
        <time>2016-06-18T11:54:21Z</time>
      </trkpt>
      <trkpt lat="45.40815" lon="5.89528">
        <ele>1156.806549146</ele>
        <time>2016-06-18T11:54:26Z</time>
      </trkpt>
      <trkpt lat="45.40837" lon="5.89503">
        <ele>1152.464215804</ele>
        <time>2016-06-18T11:54:41Z</time>
      </trkpt>
      <trkpt lat="45.40848" lon="5.895">
        <ele>1147.874095167</ele>
        <time>2016-06-18T11:54:46Z</time>
      </trkpt>
      <trkpt lat="45.40836" lon="5.89479">
        <ele>1143.639181759</ele>
        <time>2016-06-18T11:54:56Z</time>
      </trkpt>
      <trkpt lat="45.40848" lon="5.89466">
        <ele>1140.173359899</ele>
        <time>2016-06-18T11:55:01Z</time>
      </trkpt>
      <trkpt lat="45.40844" lon="5.8945">
        <ele>1137.569980921</ele>
        <time>2016-06-18T11:55:11Z</time>
      </trkpt>
      <trkpt lat="45.40845" lon="5.89444">
        <ele>1137.569980921</ele>
        <time>2016-06-18T11:55:16Z</time>
      </trkpt>
      <trkpt lat="45.40843" lon="5.89433">
        <ele>1135.336888904</ele>
        <time>2016-06-18T11:55:21Z</time>
      </trkpt>
      <trkpt lat="45.40844" lon="5.89423">
        <ele>1135.336888904</ele>
        <time>2016-06-18T11:55:26Z</time>
      </trkpt>
      <trkpt lat="45.40844" lon="5.89416">
        <ele>1133.593672684</ele>
        <time>2016-06-18T11:55:31Z</time>
      </trkpt>
      <trkpt lat="45.40843" lon="5.89406">
        <ele>1133.593672684</ele>
        <time>2016-06-18T11:55:36Z</time>
      </trkpt>
      <trkpt lat="45.40844" lon="5.89397">
        <ele>1132.449925194</ele>
        <time>2016-06-18T11:55:41Z</time>
      </trkpt>
      <trkpt lat="45.40846" lon="5.89389">
        <ele>1132.449925194</ele>
        <time>2016-06-18T11:55:46Z</time>
      </trkpt>
      <trkpt lat="45.40852" lon="5.89365">
        <ele>1131.28509726</ele>
        <time>2016-06-18T11:55:56Z</time>
      </trkpt>
      <trkpt lat="45.40854" lon="5.89359">
        <ele>1131.28509726</ele>
        <time>2016-06-18T11:56:01Z</time>
      </trkpt>
      <trkpt lat="45.40856" lon="5.8934">
        <ele>1129.092081106</ele>
        <time>2016-06-18T11:56:11Z</time>
      </trkpt>
      <trkpt lat="45.40863" lon="5.89336">
        <ele>1129.092081106</ele>
        <time>2016-06-18T11:56:16Z</time>
      </trkpt>
      <trkpt lat="45.40873" lon="5.89321">
        <ele>1125.373082065</ele>
        <time>2016-06-18T11:56:26Z</time>
      </trkpt>
      <trkpt lat="45.40874" lon="5.89311">
        <ele>1125.373082065</ele>
        <time>2016-06-18T11:56:31Z</time>
      </trkpt>
      <trkpt lat="45.40881" lon="5.893">
        <ele>1121.688804758</ele>
        <time>2016-06-18T11:56:41Z</time>
      </trkpt>
      <trkpt lat="45.40888" lon="5.89296">
        <ele>1121.688804758</ele>
        <time>2016-06-18T11:56:46Z</time>
      </trkpt>
      <trkpt lat="45.40902" lon="5.89271">
        <ele>1118.908836016</ele>
        <time>2016-06-18T11:57:01Z</time>
      </trkpt>
      <trkpt lat="45.40911" lon="5.89266">
        <ele>1116.971730264</ele>
        <time>2016-06-18T11:57:06Z</time>
      </trkpt>
      <trkpt lat="45.4092" lon="5.89261">
        <ele>1115.818223909</ele>
        <time>2016-06-18T11:57:16Z</time>
      </trkpt>
      <trkpt lat="45.40925" lon="5.8926">
        <ele>1115.818223909</ele>
        <time>2016-06-18T11:57:21Z</time>
      </trkpt>
      <trkpt lat="45.40927" lon="5.89254">
        <ele>1115.823564661</ele>
        <time>2016-06-18T11:57:31Z</time>
      </trkpt>
      <trkpt lat="45.40929" lon="5.89254">
        <ele>1115.823564661</ele>
        <time>2016-06-18T11:57:36Z</time>
      </trkpt>
      <trkpt lat="45.40947" lon="5.89241">
        <ele>1115.602868648</ele>
        <time>2016-06-18T11:57:46Z</time>
      </trkpt>
      <trkpt lat="45.40978" lon="5.89199">
        <ele>1115.170639045</ele>
        <time>2016-06-18T11:58:06Z</time>
      </trkpt>
      <trkpt lat="45.40984" lon="5.89202">
        <ele>1115.170639045</ele>
        <time>2016-06-18T11:58:11Z</time>
      </trkpt>
      <trkpt lat="45.40995" lon="5.89186">
        <ele>1113.676261283</ele>
        <time>2016-06-18T11:58:21Z</time>
      </trkpt>
      <trkpt lat="45.41004" lon="5.89183">
        <ele>1111.919830313</ele>
        <time>2016-06-18T11:58:26Z</time>
      </trkpt>
      <trkpt lat="45.41012" lon="5.89179">
        <ele>1111.919830313</ele>
        <time>2016-06-18T11:58:36Z</time>
      </trkpt>
      <trkpt lat="45.41013" lon="5.89173">
        <ele>1110.931643617</ele>
        <time>2016-06-18T11:58:41Z</time>
      </trkpt>
      <trkpt lat="45.41022" lon="5.89162">
        <ele>1109.502506106</ele>
        <time>2016-06-18T11:58:51Z</time>
      </trkpt>
      <trkpt lat="45.41026" lon="5.89156">
        <ele>1109.502506106</ele>
        <time>2016-06-18T11:58:56Z</time>
      </trkpt>
      <trkpt lat="45.41026" lon="5.89138">
        <ele>1109.539633504</ele>
        <time>2016-06-18T11:59:06Z</time>
      </trkpt>
      <trkpt lat="45.41029" lon="5.89127">
        <ele>1109.539633504</ele>
        <time>2016-06-18T11:59:11Z</time>
      </trkpt>
      <trkpt lat="45.41043" lon="5.89094">
        <ele>1109.92381493</ele>
        <time>2016-06-18T11:59:26Z</time>
      </trkpt>
      <trkpt lat="45.41049" lon="5.89083">
        <ele>1110.049432522</ele>
        <time>2016-06-18T11:59:31Z</time>
      </trkpt>
      <trkpt lat="45.41046" lon="5.8906">
        <ele>1109.932548792</ele>
        <time>2016-06-18T11:59:41Z</time>
      </trkpt>
      <trkpt lat="45.41041" lon="5.89052">
        <ele>1109.932548792</ele>
        <time>2016-06-18T11:59:46Z</time>
      </trkpt>
      <trkpt lat="45.41042" lon="5.89032">
        <ele>1109.444643658</ele>
        <time>2016-06-18T11:59:56Z</time>
      </trkpt>
      <trkpt lat="45.41041" lon="5.89019">
        <ele>1109.044156508</ele>
        <time>2016-06-18T12:00:01Z</time>
      </trkpt>
      <trkpt lat="45.41045" lon="5.88997">
        <ele>1108.002750142</ele>
        <time>2016-06-18T12:00:11Z</time>
      </trkpt>
      <trkpt lat="45.41047" lon="5.88987">
        <ele>1108.002750142</ele>
        <time>2016-06-18T12:00:16Z</time>
      </trkpt>
      <trkpt lat="45.41052" lon="5.8897">
        <ele>1107.664980477</ele>
        <time>2016-06-18T12:00:26Z</time>
      </trkpt>
      <trkpt lat="45.41055" lon="5.88973">
        <ele>1107.664980477</ele>
        <time>2016-06-18T12:00:31Z</time>
      </trkpt>
      <trkpt lat="45.4106" lon="5.88955">
        <ele>1107.545361258</ele>
        <time>2016-06-18T12:00:41Z</time>
      </trkpt>
      <trkpt lat="45.41059" lon="5.8894">
        <ele>1108.058162779</ele>
        <time>2016-06-18T12:00:46Z</time>
      </trkpt>
      <trkpt lat="45.41072" lon="5.8892">
        <ele>1108.432601105</ele>
        <time>2016-06-18T12:00:56Z</time>
      </trkpt>
      <trkpt lat="45.41074" lon="5.88918">
        <ele>1108.432601105</ele>
        <time>2016-06-18T12:01:01Z</time>
      </trkpt>
      <trkpt lat="45.41086" lon="5.88901">
        <ele>1107.66672417</ele>
        <time>2016-06-18T12:01:16Z</time>
      </trkpt>
      <trkpt lat="45.41087" lon="5.88896">
        <ele>1107.66672417</ele>
        <time>2016-06-18T12:01:21Z</time>
      </trkpt>
      <trkpt lat="45.41099" lon="5.88879">
        <ele>1106.42065114</ele>
        <time>2016-06-18T12:01:31Z</time>
      </trkpt>
      <trkpt lat="45.411" lon="5.88874">
        <ele>1106.42065114</ele>
        <time>2016-06-18T12:01:36Z</time>
      </trkpt>
      <trkpt lat="45.41114" lon="5.88867">
        <ele>1105.163291042</ele>
        <time>2016-06-18T12:01:46Z</time>
      </trkpt>
      <trkpt lat="45.4112" lon="5.88861">
        <ele>1105.163291042</ele>
        <time>2016-06-18T12:01:51Z</time>
      </trkpt>
      <trkpt lat="45.4113" lon="5.88856">
        <ele>1103.464512605</ele>
        <time>2016-06-18T12:02:01Z</time>
      </trkpt>
      <trkpt lat="45.41132" lon="5.8884">
        <ele>1101.791719985</ele>
        <time>2016-06-18T12:02:06Z</time>
      </trkpt>
      <trkpt lat="45.41137" lon="5.88831">
        <ele>1101.791719985</ele>
        <time>2016-06-18T12:02:16Z</time>
      </trkpt>
      <trkpt lat="45.41141" lon="5.88826">
        <ele>1099.425042659</ele>
        <time>2016-06-18T12:02:21Z</time>
      </trkpt>
      <trkpt lat="45.41143" lon="5.88822">
        <ele>1099.425042659</ele>
        <time>2016-06-18T12:02:31Z</time>
      </trkpt>
      <trkpt lat="45.41145" lon="5.88817">
        <ele>1099.425042659</ele>
        <time>2016-06-18T12:02:36Z</time>
      </trkpt>
      <trkpt lat="45.41157" lon="5.88795">
        <ele>1095.411224292</ele>
        <time>2016-06-18T12:02:46Z</time>
      </trkpt>
      <trkpt lat="45.41171" lon="5.88775">
        <ele>1091.177424694</ele>
        <time>2016-06-18T12:03:01Z</time>
      </trkpt>
      <trkpt lat="45.41174" lon="5.88766">
        <ele>1091.177424694</ele>
        <time>2016-06-18T12:03:06Z</time>
      </trkpt>
      <trkpt lat="45.41179" lon="5.88746">
        <ele>1086.605440059</ele>
        <time>2016-06-18T12:03:16Z</time>
      </trkpt>
      <trkpt lat="45.41184" lon="5.8874">
        <ele>1086.605440059</ele>
        <time>2016-06-18T12:03:21Z</time>
      </trkpt>
      <trkpt lat="45.41199" lon="5.88727">
        <ele>1081.442530321</ele>
        <time>2016-06-18T12:03:36Z</time>
      </trkpt>
      <trkpt lat="45.41203" lon="5.88717">
        <ele>1081.442530321</ele>
        <time>2016-06-18T12:03:41Z</time>
      </trkpt>
      <trkpt lat="45.41213" lon="5.88706">
        <ele>1076.032538281</ele>
        <time>2016-06-18T12:03:51Z</time>
      </trkpt>
      <trkpt lat="45.41224" lon="5.88698">
        <ele>1070.982849947</ele>
        <time>2016-06-18T12:03:56Z</time>
      </trkpt>
      <trkpt lat="45.41235" lon="5.88689">
        <ele>1065.558080136</ele>
        <time>2016-06-18T12:04:06Z</time>
      </trkpt>
      <trkpt lat="45.41241" lon="5.88684">
        <ele>1065.558080136</ele>
        <time>2016-06-18T12:04:11Z</time>
      </trkpt>
      <trkpt lat="45.4125" lon="5.88669">
        <ele>1060.230638188</ele>
        <time>2016-06-18T12:04:21Z</time>
      </trkpt>
      <trkpt lat="45.4125" lon="5.88659">
        <ele>1060.230638188</ele>
        <time>2016-06-18T12:04:26Z</time>
      </trkpt>
      <trkpt lat="45.41254" lon="5.88651">
        <ele>1055.293655003</ele>
        <time>2016-06-18T12:04:31Z</time>
      </trkpt>
      <trkpt lat="45.41259" lon="5.88645">
        <ele>1055.293655003</ele>
        <time>2016-06-18T12:04:36Z</time>
      </trkpt>
    </trkseg>
  </trk>
</gpx>